[[{"header":{"parameterUnit":"m.s-1","parameterCategory":1,"la1":30.6,"la2":28.766,"lo1":-90.7593,"lo2":-88.6598,"dy":0.0162,"dx":0.0183,"nx":116,"ny":114,"refTime":"2023-10-01T12:00:00:Z","depth":0,"parameterNumber":2,"parameterNumberName":"U-component_of_WINDS"},"data":[0.0,0.0,0.0,0.0,0.0,0.0,0.0,0.0,0.0,0.0,0.0,0.0,0.0,0.0,0.0,0.0,0.0,0.0,0.0,0.0,0.0,0.0,0.0,0.0,0.0,0.0,0.0,0.0,0.0,0.0,0.0,0.0,0.0,0.0,0.0,0.0,0.0,0.0,0.0,0.0,0.0,0.0,0.0,0.0,0.0,0.0,0.0,0.0,0.0,0.0,0.0,0.0,0.0,0.0,0.0,0.0,0.0,0.0,0.0,0.0,0.0,0.0,0.0,0.0,0.0,0.0,0.0,0.0,0.0,0.0,0.0,0.0,0.0,0.0,0.0,0.0,0.0,0.0,0.0,0.0,0.0,0.0,0.0,0.0,0.0,0.0,0.0,0.0,0.0,0.0,0.0,0.0,0.0,0.0,0.0,0.0,0.0,0.0,0.0,0.0,0.0,0.0,0.0,0.0,0.0,0.0,0.0,0.0,0.0,0.0,0.0,0.0,0.0,0.0,0.0,0.0,0.0,0.0,0.0,0.0,0.0,0.0,0.0,0.0,0.0,0.0,0.0,0.0,0.0,0.0,0.0,0.0,0.0,0.0,0.0,0.0,0.0,0.0,0.0,0.0,0.0,0.0,0.0,0.0,0.0,0.0,0.0,0.0,0.0,0.0,0.0,0.0,0.0,0.0,0.0,0.0,0.0,0.0,0.0,0.0,0.0,0.0,0.0,0.0,0.0,0.0,0.0,0.0,0.0,0.0,0.0,0.0,0.0,0.0,0.0,0.0,0.0,0.0,0.0,0.0,0.0,0.0,0.0,0.0,0.0,0.0,0.0,0.0,0.0,0.0,0.0,0.0,0.0,0.0,0.0,0.0,0.0,0.0,0.0,0.0,0.0,0.0,0.0,0.0,0.0,0.0,0.0,0.0,0.0,0.0,0.0,0.0,0.0,0.0,0.0,0.0,0.0,0.0,0.0,0.0,0.0,0.0,0.0,0.0,0.0,0.0,0.0,0.0,0.0,0.0,0.0,0.0,0.0,0.0,0.0,0.0,0.0,0.0,0.0,0.0,0.0,0.0,0.0,0.0,0.0,0.0,0.0,0.0,0.0,0.0,0.0,0.0,0.0,0.0,0.0,0.0,0.0,0.0,0.0,0.0,0.0,0.0,0.0,0.0,0.0,0.0,0.0,0.0,0.0,0.0,0.0,0.0,0.0,0.0,0.0,0.0,0.0,0.0,0.0,0.0,0.0,0.0,0.0,0.0,0.0,0.0,0.0,0.0,0.0,0.0,0.0,0.0,0.0,0.0,0.0,0.0,0.0,0.0,0.0,0.0,0.0,0.0,0.0,0.0,0.0,0.0,0.0,0.0,0.0,0.0,0.0,0.0,0.0,0.0,0.0,0.0,0.0,0.0,0.0,0.0,0.0,0.0,0.0,0.0,0.0,0.0,0.0,0.0,0.0,0.0,0.0,0.0,0.0,0.0,0.0,0.0,0.0,0.0,0.0,0.0,0.0,0.0,0.0,0.0,0.0,0.0,0.0,0.0,0.0,0.0,0.0,0.0,0.0,0.0,0.0,0.0,0.0,0.0,0.0,0.0,0.0,0.0,0.0,0.0,0.0,0.0,0.0,0.0,0.0,0.0,0.0,0.0,0.0,0.0,0.0,0.0,0.0,0.0,0.0,0.0,0.0,0.0,0.0,0.0,0.0,0.0,0.0,0.0,0.0,0.0,0.0,0.0,0.0,0.0,0.0,0.0,0.0,0.0,0.0,0.0,0.0,0.0,0.0,0.0,0.0,0.0,0.0,0.0,0.0,0.0,0.0,0.0,0.0,0.0,0.0,0.0,0.0,0.0,0.0,0.0,0.0,0.0,0.0,0.0,0.0,0.0,0.0,0.0,0.0,0.0,0.0,0.0,0.0,0.0,0.0,0.0,0.0,0.0,0.0,0.0,0.0,0.0,0.0,0.0,0.0,0.0,0.0,0.0,0.0,0.0,0.0,0.0,0.0,0.0,0.0,0.0,0.0,0.0,0.0,0.0,0.0,0.0,0.0,0.0,0.0,0.0,0.0,0.0,0.0,0.0,0.0,0.0,0.0,0.0,0.0,0.0,0.0,0.0,0.0,0.0,0.0,0.0,0.0,0.0,0.0,0.0,0.0,0.0,0.0,0.0,0.0,0.0,0.0,0.0,0.0,0.0,0.0,0.0,0.0,0.0,0.0,0.0,0.0,0.0,0.0,0.0,0.0,0.0,0.0,0.0,0.0,0.0,0.0,0.0,0.0,0.0,0.0,0.0,0.0,0.0,0.0,0.0,0.0,0.0,0.0,0.0,0.0,0.0,0.0,0.0,0.0,0.0,0.0,0.0,0.0,0.0,0.0,0.0,0.0,0.0,0.0,0.0,0.0,0.0,0.0,0.0,0.0,0.0,0.0,0.0,0.0,0.0,0.0,0.0,0.0,0.0,0.0,0.0,0.0,0.0,0.0,0.0,0.0,0.0,0.0,0.0,0.0,0.0,0.0,0.0,0.0,0.0,0.0,0.0,0.0,0.0,0.0,0.0,0.0,0.0,0.0,0.0,0.0,0.0,0.0,0.0,0.0,0.0,0.0,0.0,0.0,0.0,0.0,0.0,0.0,0.0,0.0,0.0,0.0,0.0,0.0,0.0,0.0,0.0,0.0,0.0,0.0,0.0,0.0,0.0,0.0,0.0,0.0,0.0,0.0,0.0,0.0,0.0,0.0,0.0,0.0,0.0,0.0,0.0,0.0,0.0,0.0,0.0,0.0,0.0,0.0,0.0,0.0,0.0,0.0,0.0,0.0,0.0,0.0,0.0,0.0,0.0,0.0,0.0,0.0,0.0,0.0,0.0,0.0,0.0,0.0,0.0,0.0,0.0,0.0,0.0,0.0,0.0,0.0,0.0,0.0,0.0,0.0,0.0,0.0,0.0,0.0,0.0,0.0,0.0,0.0,0.0,0.0,0.0,0.0,0.0,0.0,0.0,0.0,0.0,0.0,0.0,0.0,0.0,0.0,0.0,0.0,0.0,0.0,0.0,0.0,0.0,0.0,0.0,0.0,0.0,0.0,0.0,0.0,0.0,0.0,0.0,0.0,0.0,0.0,0.0,0.0,0.0,0.0,0.0,0.0,0.0,0.0,0.0,0.0,0.0,0.0,0.0,0.0,0.0,0.0,0.0,0.0,0.0,0.0,0.0,0.0,0.0,0.0,0.0,0.0,0.0,0.0,0.0,0.0,0.0,0.0,0.0,0.0,0.0,0.0,0.0,0.0,0.0,0.0,0.0,0.0,0.0,0.0,0.0,0.0,0.0,0.0,0.0,0.0,0.0,0.0,0.0,0.0,0.0,0.0,0.0,0.0,0.0,0.0,0.0,0.0,0.0,0.0,0.0,0.0,0.0,0.0,0.0,0.0,0.0,0.0,0.0,0.0,0.0,0.0,0.0,0.0,0.0,0.0,0.0,0.0,0.0,0.0,0.0,0.0,0.0,0.0,0.0,0.0,0.0,0.0,0.0,0.0,0.0,0.0,0.0,0.0,0.0,0.0,0.0,0.0,0.0,0.0,0.0,0.0,0.0,0.0,0.0,0.0,0.0,0.0,0.0,0.0,0.0,0.0,0.0,0.0,0.0,0.0,0.0,0.0,0.0,0.0,0.0,0.0,0.0,0.0,0.0,0.0,0.0,0.0,0.0,0.0,0.0,0.0,0.0,0.0,0.0,0.0,0.0,0.0,0.0,0.0,0.0,0.0,0.0,0.0,0.0,0.0,0.0,0.0,0.0,0.0,0.0,0.0,0.0,0.0,0.0,0.0,0.0,0.0,0.0,0.0,0.0,0.0,0.0,0.0,0.0,0.0,0.0,0.0,0.0,0.0,0.0,0.0,0.0,0.0,0.0,0.0,0.0,0.0,0.0,0.0,0.0,0.0,0.0,0.0,0.0,0.0,0.0,0.0,0.0,0.0,0.0,0.0,0.0,0.0,0.0,0.0,0.0,0.0,0.0,0.0,0.0,0.0,0.0,0.0,0.0,0.0,0.0,0.0,0.0,0.0,0.0,0.0,0.0,0.0,0.0,0.0,0.0,0.0,0.0,0.0,0.0,0.0,0.0,0.0,0.0,0.0,0.0,0.0,0.0,0.0,0.0,0.0,0.0,0.0,0.0,0.0,0.0,0.0,0.0,0.0,0.0,0.0,0.0,0.0,0.0,0.0,0.0,0.0,0.0,0.0,0.0,0.0,0.0,0.0,0.0,0.0,0.0,0.0,0.0,0.0,0.0,0.0,0.0,0.0,0.0,0.0,0.0,0.0,0.0,0.0,0.0,0.0,0.0,0.0,0.0,0.0,0.0,0.0,0.0,0.0,0.0,0.0,0.0,0.0,0.0,0.0,0.0,0.0,0.0,0.0,0.0,0.0,0.0,0.0,0.0,0.0,0.0,0.0,0.0,0.0,0.0,0.0,0.0,0.0,0.0,0.0,0.0,0.0,0.0,0.0,0.0,0.0,0.0,0.0,0.0,0.0,0.0,0.0,0.0,0.0,0.0,0.0,0.0,0.0,0.0,0.0,0.0,0.0,0.0,0.0,0.0,0.0,0.0,0.0,0.0,0.0,0.0,0.0,0.0,0.0,0.0,0.0,0.0,0.0,0.0,0.0,0.0,0.0,0.0,0.0,0.0,0.0,0.0,0.0,0.0,0.0,0.0,0.0,0.0,0.0,0.0,0.0,0.0,0.0,0.0,0.0,0.0,0.0,0.0,0.0,0.0,0.0,0.0,0.0,0.0,0.0,0.0,0.0,0.0,0.0,0.0,0.0,0.0,0.0,0.0,0.0,0.0,0.0,0.0,0.0,0.0,0.0,0.0,0.0,0.0,0.0,0.0,0.0,0.0,0.0,0.0,0.0,0.0,0.0,0.0,0.0,0.0,0.0,0.0,0.0,0.0,0.0,0.0,0.0,0.0,0.0,0.0,0.0,0.0,0.0,0.0,0.0,0.0,0.0,0.0,0.0,0.0,0.0,0.0,0.0,0.0,0.0,0.0,0.0,0.0,0.0,0.0,0.0,0.0,0.0,0.0,0.0,0.0,0.0,0.0,0.0,0.0,0.0,0.0,0.0,0.0,0.0,0.0,0.0,0.0,0.0,0.0,0.0,0.0,0.0,0.0,0.0,0.0,0.0,0.0,0.0,0.0,0.0,0.0,0.0,0.0,0.0,0.0,0.0,0.0,0.0,0.0,0.0,0.0,0.0,0.0,0.0,0.0,0.0,0.0,0.0,0.0,0.0,0.0,0.0,0.0,0.0,0.0,0.0,0.0,0.0,0.0,0.0,0.0,0.0,0.0,0.0,0.0,0.0,0.0,0.0,0.0,0.0,0.0,0.0,0.0,0.0,0.0,0.0,0.0,0.0,0.0,0.0,0.0,0.0,0.0,0.0,0.0,0.0,0.0,0.0,0.0,0.0,0.0,0.0,0.0,0.0,0.0,0.0,0.0,0.0,0.0,0.0,0.0,0.0,0.0,0.0,0.0,0.0,0.0,0.0,0.0,0.0,0.0,0.0,0.0,0.0,0.0,0.0,0.0,0.0,0.0,0.0,0.0,0.0,0.0,0.0,0.0,0.0,0.0,0.0,0.0,0.0,0.0,0.0,0.0,0.0,0.0,0.0,0.0,0.0,0.0,0.0,0.0,0.0,0.0,0.0,0.0,0.0,0.0,0.0,0.0,0.0,0.0,0.0,0.0,0.0,0.0,0.0,0.0,0.0,0.0,0.0,0.0,0.0,0.0,0.0,0.0,0.0,0.0,0.0,0.0,0.0,0.0,0.0,0.0,0.0,0.0,0.0,0.0,0.0,0.0,0.0,0.0,0.0,0.0,0.0,0.0,0.0,0.0,0.0,0.0,0.0,0.0,0.0,0.0,0.0,0.0,0.0,0.0,0.0,0.0,0.0,0.0,0.0,0.0,0.0,0.0,0.0,0.0,0.0,0.0,0.0,0.0,0.0,0.0,0.0,0.0,0.0,0.0,0.0,0.0,0.0,0.0,0.0,0.0,0.0,0.0,0.0,0.0,0.0,0.0,0.0,0.0,0.0,0.0,-1.8443,-1.6219,0.0,0.0,0.0,0.0,0.0,0.0,0.0,0.0,0.0,0.0,0.0,0.0,0.0,0.0,0.0,0.0,0.0,0.0,0.0,0.0,0.0,0.0,0.0,0.0,0.0,0.0,0.0,0.0,0.0,0.0,0.0,0.0,0.0,0.0,0.0,0.0,0.0,-2.9532,-2.9187,-2.9737,-3.1072,-2.954,-2.5859,-2.0503,0.0,0.0,0.0,0.0,0.0,0.0,0.0,0.0,0.0,0.0,0.0,0.0,0.0,0.0,0.0,0.0,0.0,0.0,0.0,0.0,0.0,0.0,0.0,0.0,0.0,0.0,0.0,0.0,0.0,0.0,0.0,0.0,0.0,0.0,0.0,0.0,0.0,0.0,0.0,0.0,0.0,0.0,0.0,0.0,0.0,0.0,0.0,0.0,0.0,0.0,0.0,0.0,0.0,0.0,0.0,0.0,0.0,0.0,0.0,0.0,0.0,0.0,0.0,0.0,0.0,0.0,0.0,0.0,0.0,0.0,-2.1736,-1.9507,0.0,0.0,0.0,0.0,0.0,0.0,0.0,0.0,0.0,0.0,0.0,0.0,0.0,0.0,0.0,0.0,0.0,0.0,0.0,0.0,0.0,0.0,0.0,-2.3875,-2.4511,-2.4591,-2.4931,-2.4906,-2.4511,0.0,0.0,0.0,0.0,0.0,-2.8272,-2.7833,-2.8864,-3.1432,-3.256,-3.4077,-3.6016,-3.5898,-3.2568,-2.6577,-2.2558,0.0,0.0,0.0,0.0,0.0,0.0,0.0,0.0,0.0,0.0,0.0,0.0,0.0,0.0,0.0,0.0,0.0,0.0,0.0,0.0,0.0,0.0,0.0,0.0,0.0,0.0,0.0,0.0,0.0,0.0,0.0,0.0,0.0,0.0,0.0,0.0,0.0,0.0,0.0,0.0,0.0,0.0,0.0,0.0,0.0,0.0,0.0,0.0,0.0,0.0,0.0,0.0,0.0,0.0,0.0,0.0,0.0,0.0,0.0,0.0,0.0,0.0,0.0,-3.1133,-3.1027,-3.1232,-3.0221,-2.9432,-2.8529,-2.5266,-2.332,-2.223,-1.9818,0.0,0.0,0.0,0.0,0.0,0.0,0.0,0.0,0.0,0.0,0.0,0.0,0.0,0.0,0.0,0.0,0.0,0.0,0.0,-2.2741,-2.3569,-2.4127,-2.4585,-2.5004,-2.5102,-2.4898,-2.4447,0.0,0.0,0.0,0.0,-2.626,-2.701,-2.77,-2.9442,-3.2412,-3.6554,-3.8953,-3.9706,-3.9068,-3.8206,-3.7065,-3.155,-2.7246,-2.3913,0.0,0.0,0.0,0.0,0.0,0.0,0.0,0.0,0.0,0.0,0.0,0.0,0.0,0.0,0.0,0.0,0.0,0.0,0.0,0.0,0.0,0.0,0.0,0.0,0.0,0.0,0.0,0.0,0.0,0.0,0.0,0.0,0.0,0.0,0.0,0.0,0.0,0.0,0.0,0.0,0.0,-2.6015,-2.647,0.0,0.0,0.0,0.0,0.0,0.0,0.0,0.0,0.0,0.0,0.0,0.0,0.0,-3.1146,-3.1821,-3.4134,-3.4989,-3.4475,-3.6112,-3.6509,-3.5792,-3.4147,-3.3001,-3.2132,-2.8589,0.0,-2.4843,-2.3429,0.0,0.0,0.0,0.0,0.0,0.0,0.0,0.0,0.0,0.0,0.0,0.0,0.0,0.0,0.0,0.0,0.0,0.0,0.0,0.0,0.0,-2.4819,-2.5538,-2.6133,-2.7266,-2.7363,-2.5977,-2.6035,0.0,0.0,-2.486,-2.5636,-2.7019,-2.7122,-2.9755,-3.5172,-3.9917,-4.3,-4.4395,-4.4088,-4.3931,-4.375,-4.0336,-3.5093,-2.8641,-2.6094,0.0,0.0,0.0,0.0,0.0,0.0,0.0,0.0,0.0,0.0,0.0,0.0,0.0,0.0,0.0,0.0,0.0,0.0,0.0,0.0,0.0,0.0,0.0,0.0,0.0,0.0,0.0,0.0,0.0,0.0,0.0,0.0,0.0,0.0,0.0,0.0,0.0,0.0,0.0,-2.5346,-2.6712,-2.685,-2.621,-2.512,0.0,0.0,0.0,0.0,0.0,0.0,0.0,0.0,0.0,-2.8426,-3.0217,-3.1046,-3.0876,-3.3273,-3.4242,-3.3705,-3.4641,-3.4963,-3.4812,-3.388,-3.3106,-3.2504,-3.0746,-2.9001,-2.7177,-2.451,-2.2575,-2.1046,0.0,0.0,0.0,0.0,-1.7266,-1.7291,0.0,0.0,0.0,0.0,0.0,0.0,0.0,0.0,0.0,0.0,0.0,0.0,-2.4335,-2.5729,-2.6872,-2.7635,-2.9167,-2.9208,-2.7201,-2.7286,-2.652,-2.4528,-2.4641,-2.5369,-2.6819,-2.7984,-3.1614,-3.7775,-4.2269,-4.5408,-4.7232,-4.7373,-4.765,-4.8014,-4.6433,-4.1502,-3.4153,-3.1277,-2.7481,-2.3134,0.0,0.0,0.0,0.0,0.0,0.0,0.0,0.0,0.0,0.0,0.0,0.0,0.0,0.0,0.0,0.0,0.0,0.0,0.0,0.0,0.0,0.0,0.0,0.0,0.0,0.0,0.0,0.0,0.0,0.0,0.0,0.0,0.0,0.0,0.0,0.0,0.0,-2.609,-2.7381,-2.6847,-2.7078,-2.6169,0.0,0.0,0.0,0.0,0.0,0.0,-2.7101,-2.7228,-2.7736,-2.8966,-3.0844,-3.157,-3.098,-3.281,-3.3541,-3.3211,-3.3054,-3.3231,-3.3553,-3.274,-3.2135,-3.1625,-3.0988,-2.9731,-2.7937,-2.5413,-2.3718,-2.269,-2.1642,-2.0849,-2.0187,-2.0261,-2.0107,-1.9893,0.0,0.0,0.0,0.0,0.0,0.0,0.0,0.0,0.0,0.0,0.0,-2.3353,-2.44,-2.6707,-2.8548,-2.9469,-2.9642,-2.903,-2.7406,-2.6822,-2.5944,-2.467,-2.5257,-2.5684,-2.5771,-3.1487,-3.6061,-3.9417,-4.3113,-4.5478,-4.6461,-4.6996,-4.8049,-4.9525,-4.8127,-4.5255,-4.1314,-3.7019,-3.3119,-2.947,-2.5512,0.0,0.0,0.0,0.0,0.0,0.0,0.0,0.0,0.0,0.0,0.0,0.0,0.0,0.0,0.0,0.0,0.0,0.0,0.0,0.0,0.0,0.0,0.0,0.0,0.0,0.0,0.0,0.0,0.0,0.0,0.0,0.0,0.0,0.0,0.0,0.0,0.0,0.0,-2.6936,-2.9204,0.0,0.0,0.0,0.0,-2.3424,-2.4574,-2.6433,-2.9053,-2.917,-3.0589,-3.3652,-3.4229,-3.4694,-3.502,-3.5151,-3.4989,-3.4569,-3.418,-3.3936,-3.393,-3.1938,-3.0701,-2.9912,-2.8372,-2.71,-2.6212,-2.6968,-2.6234,-2.4553,-2.3269,-2.2588,-2.2301,-2.1692,-2.1521,-2.1521,0.0,0.0,0.0,0.0,0.0,0.0,0.0,0.0,-1.8926,-2.0135,-2.1884,-2.3586,-2.5129,-2.779,-2.9963,-3.1175,-3.1894,-3.1641,-3.0176,-2.9184,-2.8193,-2.7075,-2.6869,-2.763,-2.9429,-3.3697,-3.7452,-4.0464,-4.3319,-4.5309,-4.6462,-4.6382,-4.6677,-4.7193,-4.6387,-4.527,-4.3937,-4.1924,-3.8498,-3.3907,-3.0303,-2.6763,0.0,0.0,0.0,0.0,0.0,0.0,0.0,0.0,0.0,0.0,0.0,0.0,0.0,0.0,0.0,0.0,0.0,0.0,0.0,0.0,0.0,0.0,0.0,0.0,0.0,0.0,0.0,0.0,0.0,0.0,0.0,0.0,0.0,0.0,0.0,0.0,0.0,-2.7247,-2.8193,0.0,-2.493,-2.4405,-2.4313,-2.4395,-2.5871,-2.7505,-2.929,-2.9607,-3.0502,-3.2196,-3.2433,-3.2272,-3.1918,-3.1918,-3.1396,-3.0509,-3.0357,-3.03,-3.0252,-2.9323,-2.8604,-2.82,-2.7391,-2.6759,-2.6264,-2.6461,-2.5921,-2.4924,-2.4264,-2.3695,-2.3307,-2.2874,-2.2565,-2.2459,0.0,0.0,0.0,0.0,0.0,0.0,0.0,-1.6794,-1.7552,-1.9396,-2.1434,-2.3257,-2.4889,-2.7739,-3.0176,-3.181,-3.243,-3.2142,-3.0773,-2.9601,-2.8263,-2.6736,-2.7105,-2.9006,-3.2409,-3.5019,-3.7788,-4.0653,-4.2322,-4.373,-4.4927,-4.467,-4.491,-4.5487,-4.4894,-4.4919,-4.5391,-4.4619,-4.1479,-3.6809,-3.3518,-3.0084,-2.6569,0.0,0.0,0.0,0.0,0.0,0.0,0.0,0.0,0.0,0.0,0.0,0.0,0.0,0.0,0.0,0.0,0.0,0.0,0.0,0.0,0.0,0.0,0.0,0.0,0.0,0.0,0.0,0.0,0.0,0.0,0.0,0.0,0.0,0.0,-2.5547,-2.7392,-2.6562,-2.7755,-2.7732,-2.531,-2.4918,-2.5082,-2.5704,-2.7104,-2.838,-2.9486,-2.9954,-3.0481,-3.1124,-3.0985,-3.0607,-2.9943,-2.976,-2.9155,-2.8297,-2.8274,-2.8221,-2.8221,-2.7829,-2.7205,-2.6423,-2.6705,-2.6334,-2.5489,-2.5308,-2.4972,-2.4428,-2.4666,-2.4556,-2.4096,-2.3184,-2.2582,-2.2194,0.0,0.0,0.0,0.0,0.0,0.0,-1.4457,-1.4958,-1.5781,-1.7358,-2.0186,-2.2468,-2.3654,-2.6547,-2.9174,-3.1167,-3.0993,-3.0232,-2.8867,-2.7635,-2.5861,-2.3368,-2.5925,-2.9516,-3.4026,-3.5304,-3.7219,-3.9764,-4.016,-4.0763,-4.1556,-4.1556,-4.265,-4.4558,-4.3672,-4.4201,-4.5695,-4.4645,-4.1895,-3.8011,-3.51,-3.2488,-2.9904,0.0,0.0,0.0,0.0,0.0,0.0,0.0,0.0,0.0,0.0,0.0,0.0,0.0,0.0,0.0,0.0,0.0,0.0,0.0,0.0,0.0,0.0,0.0,0.0,0.0,0.0,0.0,0.0,0.0,0.0,0.0,0.0,0.0,-2.1735,-2.5493,-2.7364,-2.5098,-2.812,-2.9012,-2.5574,-2.6039,-2.6699,-2.7242,-2.8196,-2.9079,-2.9881,-3.0413,-3.0749,-3.0749,-3.0346,-3.007,-2.983,-2.9129,-2.872,-2.8591,-2.8297,-2.8248,-2.8234,-2.7856,-2.6555,-2.4778,-2.607,-2.5545,-2.3748,-2.3748,-2.3435,-2.3162,-2.4441,-2.4927,-2.4684,-2.2547,-2.1426,-2.072,0.0,0.0,0.0,0.0,0.0,0.0,-1.364,-1.4371,-1.5277,-1.6514,-1.9946,-2.2706,-2.3688,-2.6666,-2.9002,-3.0144,-2.9425,-2.8834,-2.8477,-2.6638,-2.5436,-2.5153,-2.6808,-2.9275,-3.2362,-3.2701,-3.4054,-3.6534,-3.6065,-3.6205,-3.7078,-3.6761,-3.6946,-3.7691,-3.7436,-3.7621,-3.7972,-3.7422,-3.6234,-3.4923,-3.6846,-3.5888,-3.3123,0.0,0.0,0.0,0.0,0.0,0.0,0.0,0.0,0.0,0.0,0.0,0.0,0.0,0.0,0.0,0.0,0.0,0.0,0.0,0.0,0.0,0.0,0.0,0.0,0.0,0.0,0.0,0.0,0.0,0.0,0.0,-2.175,-2.3567,-2.3487,-2.5452,-2.6891,-2.692,-2.8071,-2.8441,-2.7459,-2.7608,-2.788,-2.7947,-2.8602,-2.9154,-2.963,-2.9944,-3.0156,-3.0156,-3.0071,-2.9663,-2.9116,-2.8865,-2.8612,-2.827,-2.8417,-2.8484,-2.847,-2.6986,-2.5933,-2.5156,-2.3958,-2.2936,-2.2144,-2.2144,-2.1956,-2.1702,-2.1747,-2.159,-2.1158,-2.0392,-1.9848,-1.9371,0.0,0.0,0.0,0.0,0.0,0.0,-1.2324,-1.3052,-1.4041,-1.556,-1.8797,-2.1252,-2.2171,-2.4717,-2.6809,-2.7975,-2.73,-2.6728,-2.6424,-2.4626,-2.4202,-2.5657,-2.7008,-2.8951,-3.169,-3.2015,-3.297,-3.4701,-3.4077,-3.4186,-3.4935,-3.4538,-3.4498,-3.4832,-3.4832,-3.4832,-3.4816,-3.4609,-3.4128,-3.3852,-3.607,-3.5886,-3.4217,-3.2137,-3.0674,-2.96,-2.7992,-2.5935,-2.3764,-2.2105,0.0,0.0,0.0,0.0,0.0,0.0,0.0,0.0,0.0,0.0,0.0,0.0,0.0,0.0,0.0,0.0,0.0,0.0,0.0,0.0,0.0,0.0,0.0,0.0,-2.2872,-2.5104,-2.5598,-2.64,-2.7228,-2.7989,-2.823,-2.839,-2.8511,-2.8511,-2.8503,-2.8658,-2.8993,-2.9244,-2.9677,-2.9985,-2.9697,-2.8896,-2.9439,-2.9186,-2.7971,-2.7682,-2.7447,-2.7191,-2.6499,-2.6228,-2.6142,-2.5078,-2.4073,-2.3041,-2.2459,-2.1568,-2.0568,-2.0466,-2.0293,-2.0119,0.0,0.0,0.0,0.0,-1.7971,-1.708,0.0,0.0,0.0,0.0,0.0,0.0,-1.0591,-1.1304,-1.2404,-1.4494,-1.7026,-1.8939,-1.9712,-2.1726,-2.3579,-2.4994,-2.4882,-2.4384,-2.3656,-2.2448,-2.283,-2.5236,-2.6692,-2.8534,-3.1135,-3.1929,-3.2632,-3.3177,-3.2928,-3.3198,-3.3707,-3.3432,-3.3563,-3.3938,-3.3907,-3.3891,-3.3891,-3.3891,-3.3672,-3.3343,-3.3343,-3.3645,-3.3864,-3.2042,-3.2206,-3.3175,-3.0711,-2.8411,-2.6289,-2.4471,0.0,0.0,0.0,0.0,0.0,0.0,0.0,0.0,0.0,0.0,0.0,0.0,0.0,0.0,0.0,0.0,0.0,0.0,0.0,0.0,0.0,0.0,0.0,0.0,-2.3707,-2.6295,-2.7297,-2.7772,-2.8083,-2.8591,-2.8684,-2.8804,-2.9072,-2.8858,-2.887,-2.9199,-2.9086,-2.9086,-2.9457,-2.9631,0.0,0.0,0.0,-2.8147,-2.6421,-2.5841,-2.5548,-2.5461,-2.3753,-2.2965,-2.2943,-2.2768,-2.1679,-1.9979,-2.1135,-2.0582,-1.8959,-1.8764,-1.8532,-1.8426,-1.9511,-2.009,-1.9958,-1.7875,-1.6116,-1.4741,0.0,0.0,0.0,0.0,0.0,0.0,-0.8265,-0.9543,-1.1062,-1.321,-1.5579,-1.7318,-1.7862,-2.0081,-2.1662,-2.1988,-2.2574,-2.2821,-2.2644,-2.2674,-2.3386,-2.5106,-2.6085,-2.7196,-2.84,-2.9104,-2.9353,-2.9299,-2.9423,-2.9575,-2.9686,-2.9452,-2.9605,-3.0045,-2.9882,-2.9785,-2.9785,-2.9785,-2.9591,-2.9299,-2.9299,-3.0801,-3.3001,-3.2296,-3.1779,-3.141,-3.0185,-2.9066,-2.7865,-2.621,-2.4862,-2.3554,-2.2245,-2.0946,0.0,0.0,0.0,0.0,0.0,0.0,0.0,0.0,0.0,0.0,0.0,0.0,0.0,0.0,0.0,0.0,0.0,0.0,0.0,-1.8678,-2.2305,-2.5403,-2.6044,-2.7853,-2.9098,-2.8965,-2.9165,-2.9339,-2.9392,-2.9352,-2.94,-2.94,-2.7735,-2.6821,-2.712,-2.576,-2.4711,-2.4341,-2.4621,-2.452,-2.3864,-2.3732,-2.3699,-2.371,-2.3561,0.0,-2.3179,-2.168,-2.0762,-2.011,-1.8689,-1.7732,-1.7226,-1.7184,-1.6969,-1.6492,-1.6444,-1.6475,-1.6475,-1.5825,-1.5396,-1.5037,0.0,0.0,0.0,0.0,0.0,0.0,-0.6406,-0.7949,-0.9473,-1.0747,-1.3473,-1.5525,-1.5913,-1.7674,-1.8881,-1.9009,-1.9973,-2.0976,-2.1833,-2.2924,-2.4262,-2.5879,-2.68,-2.7468,-2.7909,-2.8377,-2.8537,-2.8377,-2.8377,-2.8457,-2.8604,-2.8283,-2.7872,-2.7177,-2.7037,-2.646,-2.559,-2.559,-2.5506,-2.5373,-2.5373,-2.628,-2.7942,-3.0565,-3.1675,-3.1826,-3.1479,-3.0265,-2.8788,-2.7842,-2.6449,-2.489,-2.3861,-2.2682,-2.1293,0.0,0.0,0.0,0.0,0.0,0.0,0.0,0.0,0.0,0.0,0.0,0.0,0.0,0.0,-1.4835,-1.4044,0.0,-1.8424,-1.8736,-2.1588,-2.4,-2.4751,-2.5889,-2.7006,-2.7775,-2.8181,-2.8048,-2.7172,-2.7092,-2.7092,-2.7092,-2.5959,-2.5389,-2.5513,-2.4605,-2.3683,-2.2665,-2.3475,-2.3297,-2.2071,-2.194,-2.1829,-2.1819,-2.0945,-2.0497,-2.0398,-1.9419,-1.8964,-1.8778,-1.7353,-1.6705,-1.653,-1.627,-1.5817,-1.5422,-1.5337,-1.526,-1.509,-1.4987,-1.4767,-1.4516,0.0,0.0,0.0,0.0,0.0,0.0,-0.4826,-0.6303,-0.7587,-0.8207,-1.1051,-1.3222,-1.3536,-1.5072,-1.6269,-1.6724,-1.7845,-1.925,-2.0862,-2.2516,-2.4239,-2.5933,-2.6704,-2.7187,-2.7187,-2.7397,-2.7487,-2.747,-2.7277,-2.7315,-2.7547,-2.7238,-2.6358,-2.4932,-2.4885,-2.4006,-2.2622,-2.2622,-2.2622,-2.2622,-2.2622,-2.26,-2.3071,-2.7472,-2.9864,-3.081,-3.0758,-2.9427,-2.7755,-2.7574,-2.6232,-2.4508,-2.402,-2.3353,-2.2019,-1.9072,-1.8211,0.0,0.0,0.0,0.0,0.0,0.0,0.0,0.0,-1.3813,-1.3553,-1.3763,-1.4099,-1.4546,-1.5122,-1.6757,-1.8238,-1.9103,-2.0947,-2.2538,-2.3279,-2.3868,-2.4578,-2.5742,-2.6329,-2.6121,-2.4678,-2.4501,-2.4501,-2.4501,-2.4219,-2.3957,-2.3999,-2.3632,-2.278,-2.1173,-2.2468,-2.227,-2.0454,-2.0235,-2.0023,-1.9924,-1.8228,-1.7494,-1.7591,-1.7356,-1.7275,-1.7145,-1.6552,-1.6225,-1.621,-1.5575,-1.5164,-1.4934,-1.5063,-1.4939,-1.4632,-1.4654,-1.4403,-1.402,0.0,0.0,0.0,0.0,0.0,0.0,0.0,0.0,-0.4958,-0.6533,-0.8508,-0.9867,-1.0307,-1.2768,-1.4861,-1.6171,-1.7083,-1.8103,-1.9271,-2.02,-2.1428,-2.2887,-2.3314,-2.3479,-2.3479,-2.3798,-2.371,-2.3268,-2.3542,-2.3653,-2.3675,-2.3345,-2.3259,-2.337,-2.3064,-2.2794,-2.2622,-2.2622,-2.2622,-2.2622,-2.2622,-2.2503,-2.249,-2.3083,-2.3523,-2.371,-2.3435,-2.2956,-2.2487,-2.2529,-2.2031,-2.139,-2.1402,-2.0869,-1.993,-1.8159,-1.7266,-1.6361,-1.472,-1.3573,-1.2891,-1.3062,-1.4,-1.4943,0.0,-1.6094,-1.6519,-1.5462,-1.5683,-1.6056,-1.6137,-1.6886,-1.7516,-1.778,-1.9887,-2.158,-2.1666,-2.367,-2.4448,-2.2634,-2.3883,-2.474,-2.4359,-2.4348,-2.4348,-2.4348,-2.2773,-2.1829,-2.1916,-2.0324,-1.9296,-1.9008,-1.9112,-1.9003,-1.8798,-1.8433,-1.8159,-1.8159,-1.7788,-1.7543,-1.7413,-1.6942,-1.6669,-1.652,-1.5976,-1.5793,-1.577,-1.5369,-1.522,-1.5153,-1.4728,-1.4445,-1.4257,-1.4556,-1.4452,-1.4119,0.0,0.0,0.0,0.0,0.0,0.0,0.0,0.0,-0.4184,-0.507,-0.6574,-0.8052,-0.9241,-1.1276,-1.2797,-1.3262,-1.486,-1.6469,-1.7907,-1.9527,-2.112,-2.2686,-2.3115,-2.3254,-2.3104,-2.334,-2.3233,-2.275,-2.2934,-2.2912,-2.2772,-2.2665,-2.2071,-2.1209,-2.1118,-2.0385,-1.9438,-1.9438,-1.9438,-1.9429,-1.9232,-1.9152,-1.9024,-1.8792,-1.8597,-1.8686,-2.0523,-2.1036,0.0,-2.0625,-2.0451,-2.0441,-2.0758,-2.0331,-1.9339,-1.7498,-1.6599,-1.5895,-1.4346,-1.3518,-1.3108,-1.3424,-1.4283,-1.516,-1.5428,-1.6006,-1.6432,-1.64,-1.6617,-1.6836,-1.7047,-1.7331,-1.7624,-1.7908,-1.8879,-1.9612,-1.995,-2.0867,-2.1151,-2.0324,-2.0632,-2.0876,-2.0903,-2.1202,-2.1307,-2.0912,-2.0448,-2.0201,-2.0279,-1.9517,-1.9037,-1.9037,-1.8858,-1.8712,-1.8615,-1.7968,-1.7551,-1.7448,-1.69,-1.6646,-1.6569,-1.6298,-1.5941,-1.5521,-1.4183,-1.3432,-1.3004,-1.1823,-1.133,-1.1259,-1.109,-1.0961,-1.1072,-1.3288,-1.3841,-1.3549,0.0,0.0,0.0,0.0,0.0,0.0,0.0,0.0,0.0,0.0,-0.4843,-0.6384,-0.8035,-0.9509,-1.0317,-1.0178,-1.2298,-1.431,-1.5768,-1.7815,-1.9614,-2.1169,-2.16,-2.175,-2.1561,-2.181,-2.171,-2.1319,-2.1319,-2.1239,-2.1078,-2.1078,-2.0385,-1.9099,-1.9099,-1.841,-1.7112,-1.7112,-1.7112,-1.7096,-1.6925,-1.6682,-1.6397,-1.604,-1.5505,-1.531,-1.7864,-1.8561,-1.8245,-1.7923,-1.7882,-1.8087,-1.8448,-1.8265,-1.7629,-1.5866,-1.5122,-1.4671,-1.3735,-1.3413,-1.3539,-1.4196,-1.4944,-1.561,-1.5894,-1.6097,-1.643,-1.7177,-1.7291,-1.7364,-1.7721,-1.7786,-1.7908,-1.8265,-1.8363,-1.8533,-1.8923,-1.8923,-1.8786,-1.8713,-1.8372,-1.8157,-1.7977,-1.8592,-1.8888,-1.8683,-1.8986,-1.9207,-1.9256,-1.9256,-1.9256,-1.9256,-1.898,-1.8705,-1.8536,-1.7608,-1.6878,-1.6143,-1.5502,-1.4834,-1.4363,-1.4044,-1.3712,-1.3172,-1.171,-1.0848,-1.0342,-0.9065,-0.8509,-0.8364,-0.8409,-0.8385,-0.8631,-1.1131,-1.2213,-1.2389,0.0,0.0,0.0,0.0,0.0,0.0,0.0,0.0,0.0,0.0,0.0,-0.4568,-0.6133,-0.702,-0.7549,-0.7597,-0.9593,-1.1336,-1.2465,-1.4204,-1.5704,-1.6898,-1.7214,-1.7394,-1.7567,-1.7575,-1.7485,-1.7288,-1.7288,-1.7288,-1.7279,-1.7279,-1.7288,-1.72,-1.72,-1.7112,-1.7112,-1.7112,-1.7112,-1.7096,-1.6925,-1.6451,-1.5942,-1.5666,-1.4753,-1.3822,-1.4228,-1.3992,-1.3333,-1.3037,-1.299,-1.3104,-1.299,-1.3404,-1.3753,-1.2909,-1.2323,-1.2111,-1.2874,-1.3271,-1.372,-1.5125,-1.5869,-1.6405,-1.6942,-1.721,-1.7445,-1.7819,-1.7746,-1.7737,-1.8095,-1.816,-1.8282,-1.8647,-1.885,-1.8964,-1.898,-1.9134,-1.9012,-1.8094,-1.8107,-1.7817,-1.6748,-1.7629,-1.8411,-1.8988,-1.8988,-1.9069,-1.9248,-1.9256,-1.9256,-1.9256,-1.8596,-1.8122,-1.8047,-1.7128,-1.5559,-1.3536,-1.3303,-1.2135,-1.0302,-0.9744,-0.9247,-0.8796,-0.8713,-0.8676,-0.8664,-0.8489,-0.8364,-0.8352,-0.8181,-0.8145,-0.8141,-0.8215,-0.9206,-1.0533,0.0,0.0,0.0,0.0,0.0,0.0,0.0,0.0,0.0,0.0,0.0,0.0,0.0,0.0,0.0,0.0,-0.7758,-0.8862,-1.0134,-1.1142,-1.2303,-1.3626,-1.4119,-1.4402,-1.4467,-1.4579,-1.4558,-1.4414,-1.4414,-1.4367,-1.4278,-1.4278,-1.4808,-1.569,-1.569,-1.6217,-1.7104,-1.699,-1.7006,-1.7055,-1.6397,-1.6024,-1.5772,-1.4713,-1.3856,-1.3052,0.0,-1.1985,-1.1762,-1.1417,-1.138,-1.1584,-1.1873,-1.2066,-1.205,-1.1805,-1.212,-1.2632,-1.3269,-1.3952,-1.4782,-1.5933,-1.6535,-1.7015,-1.7664,-1.7778,-1.7802,-1.8038,-1.7579,-1.7111,-1.7103,-1.6841,-1.6907,-1.7646,-1.7678,-1.8021,-1.9165,-1.8592,-1.8149,-1.8616,-1.6789,-1.5609,-1.589,-1.7254,-1.8157,-1.8167,-1.8773,-1.8592,-1.7246,-1.7147,-1.6494,-1.5088,-1.4763,-1.4465,-1.3911,-1.3268,-1.227,-1.0939,-1.0412,-0.9753,-0.9118,-0.8938,-0.8717,-0.8538,-0.7259,-0.6716,-0.6535,-0.5268,-0.4726,-0.4724,-0.4708,-0.4613,-0.4608,-0.4575,-0.5673,-0.7353,0.0,0.0,0.0,0.0,0.0,0.0,0.0,0.0,0.0,0.0,0.0,0.0,0.0,0.0,0.0,0.0,0.0,-0.6884,-0.7956,-0.8984,-0.997,-1.0987,-1.1555,-1.1987,-1.209,-1.2263,-1.2398,-1.2667,-1.2667,-1.2588,-1.26,-1.265,-1.3105,-1.3964,-1.4012,-1.4822,-1.6027,-1.5856,-1.6071,-1.647,-1.5538,-1.512,-1.4777,-1.3616,-1.2697,0.0,-1.1235,-1.0806,-1.0601,-1.0404,-1.0509,-1.0784,-1.094,-1.1047,-1.1105,-1.1599,-1.2216,-1.2952,-1.3989,-1.4759,-1.5557,-1.6604,-1.7185,-1.7599,-1.7989,-1.8046,-1.8022,-1.807,-1.7427,-1.672,-1.6514,-1.6094,-1.6091,-1.6841,-1.6972,-1.7427,-1.8566,-1.7374,-1.646,-1.6901,-1.4551,-1.3158,-1.3608,-1.5022,-1.5801,-1.5645,-1.6347,-1.6049,-1.4744,-1.4645,-1.4089,-1.2971,-1.25,-1.2138,-1.159,-1.0769,-0.973,-0.8398,-0.7216,-0.6675,-0.6648,-0.665,-0.6594,-0.6479,-0.5206,-0.4653,-0.4548,-0.3406,-0.2874,-0.2875,-0.2885,-0.2889,-0.2887,-0.2699,-0.3315,-0.454,0.0,0.0,0.0,0.0,0.0,0.0,0.0,0.0,0.0,0.0,0.0,0.0,0.0,0.0,0.0,0.0,0.0,0.0,-0.592,-0.7491,-0.8514,-0.8723,-0.9456,-0.9942,-1.0197,-1.022,-1.066,-1.147,-1.147,-1.1601,-1.177,-1.1826,-1.1887,-1.1968,-1.2023,-1.2738,-1.3967,-1.3803,-1.4383,-1.5256,-1.4404,-1.3819,-1.3255,-1.2376,-1.1498,-1.0763,-1.06,-1.0258,-0.9836,-0.9836,-1.0135,-1.0468,-1.0044,-1.0189,-1.0683,-1.2088,-1.2408,-1.2683,-1.4789,-1.5537,-1.5941,-1.6968,-1.7612,-1.8034,-1.7873,-1.7953,-1.801,-1.7716,-1.7032,-1.6364,-1.5988,-1.5685,-1.5569,-1.5861,-1.6336,-1.6712,-1.707,-1.5459,-1.3927,-1.317,-1.1609,-1.0464,-1.0258,-1.0979,-1.1461,-1.1549,-1.1848,-1.2048,-1.1848,-1.1848,-1.2058,-1.2479,-1.1573,-1.0926,-1.0636,-0.9633,-0.8067,-0.5901,-0.3968,-0.3081,-0.3145,-0.2991,-0.2946,-0.2915,-0.2887,-0.2859,-0.2833,-0.2861,-0.2875,-0.2879,-0.2905,-0.2917,-0.283,-0.2397,-0.2208,-0.2363,0.0,0.0,0.0,0.0,0.0,0.0,0.0,0.0,0.0,0.0,0.0,0.0,0.0,0.0,0.0,0.0,0.0,0.0,-0.3584,-0.4209,-0.4774,-0.5308,-0.5814,-0.61,-0.6279,-0.6458,-0.6679,-0.6937,-0.6937,-0.696,-0.7003,-0.7022,-0.765,-0.8645,-0.8674,-0.9372,-1.0744,-1.1536,-1.2121,-1.2519,-1.2748,-1.2864,-1.2772,-1.1556,-1.102,-1.0749,-1.0225,-0.9985,-0.993,-0.993,-0.9927,-0.9728,-0.9227,-0.9282,-0.978,-1.0759,-1.1308,-1.1795,-1.2979,-1.3555,-1.3867,-1.431,-1.5468,-1.6378,-1.6435,-1.6454,-1.6246,-1.5173,-1.3455,-1.1831,-1.0786,-1.0264,-1.021,-1.1004,-1.1063,-1.1562,-1.282,-1.1754,-1.1101,-1.1718,-0.967,-0.8276,-0.8543,-0.7411,-0.6502,-0.6109,-1.0192,-1.1958,-1.0358,-1.0258,-0.9419,-0.7712,-0.7257,-0.6761,-0.5905,-0.5178,-0.4497,-0.3953,-0.3411,-0.3081,-0.3051,-0.3013,-0.2966,-0.2916,-0.2908,-0.2889,-0.2863,-0.2871,-0.2886,-0.2905,-0.2913,-0.2655,-0.2397,-0.2219,-0.1941,-0.1565,0.0,0.0,0.0,0.0,0.0,0.0,0.0,0.0,0.0,0.0,0.0,0.0,0.0,0.0,0.0,0.0,0.0,0.0,0.0,-0.1865,-0.2374,-0.251,-0.3364,-0.385,-0.3971,-0.4091,-0.4387,-0.4794,-0.4823,-0.4867,-0.492,-0.4949,-0.5408,-0.6159,-0.6268,-0.7007,-0.8295,-0.8836,-0.9368,0.0,0.0,-1.0031,-0.9994,-0.9036,-0.8625,-0.8608,-0.8211,-0.8228,-0.8377,-0.859,-0.8706,-0.89,-0.9251,-0.9377,-0.9709,-1.0896,-1.1294,-1.1542,-1.2509,-1.3044,-1.3272,-1.3351,-1.3834,-1.4338,-1.4179,-1.3782,-1.326,-1.2331,-1.0981,-0.9617,-0.8606,-0.8278,-0.8341,-0.8759,-0.8977,-0.9458,-1.0567,-0.9348,-0.8658,-0.9167,-0.7265,-0.6044,-0.6239,-0.5478,-0.4728,-0.4504,-0.7291,-0.8453,-0.7254,-0.7151,-0.6696,-0.5462,-0.513,-0.4638,-0.3765,-0.3398,-0.3249,-0.3206,-0.3172,-0.3126,-0.3071,-0.304,-0.2986,-0.2916,-0.2916,-0.2893,-0.2856,-0.2882,-0.2901,-0.2919,-0.2669,-0.2409,-0.2143,-0.1779,-0.1403,-0.1025,0.0,0.0,0.0,0.0,0.0,0.0,0.0,0.0,0.0,0.0,0.0,0.0,0.0,0.0,0.0,0.0,0.0,0.0,0.0,0.0,-0.0958,-0.0515,-0.1836,-0.2661,-0.2756,-0.2741,-0.3084,-0.3799,-0.3849,-0.3925,-0.4088,-0.4207,-0.4264,-0.4257,-0.4376,-0.5018,-0.5978,-0.5972,-0.6498,-0.7332,-0.6901,-0.6715,-0.6563,0.0,-0.5896,-0.59,-0.5925,-0.5954,-0.6084,-0.663,-0.7292,-0.8109,-0.9439,-0.9698,-0.9869,-1.1396,-1.1446,-1.1334,-1.2238,-1.2587,-1.2602,-1.2492,-1.2168,-1.1817,-1.1509,-1.0739,-0.9908,-0.9283,-0.8832,-0.8283,-0.7494,-0.7497,-0.7617,-0.7541,-0.8042,-0.8485,-0.868,-0.7352,-0.6325,-0.6178,-0.4946,-0.4123,-0.4045,-0.4513,-0.4661,-0.4726,-0.4171,-0.3942,-0.4141,-0.4139,-0.4363,-0.4816,-0.4317,-0.3824,-0.3333,-0.3329,-0.33,-0.3247,-0.324,-0.3194,-0.3114,-0.308,-0.3017,-0.2934,-0.2926,-0.289,-0.2844,-0.2896,-0.2828,-0.2744,-0.2332,-0.2163,-0.1884,-0.114,-0.0759,-0.0659,0.0,0.0,0.0,0.0,0.0,0.0,0.0,0.0,0.0,0.0,0.3211,0.2848,0.0,0.0,0.0,0.0,0.0,0.0,0.0,0.0,0.0,-0.0394,-0.1426,-0.1957,-0.1963,-0.2053,-0.2133,-0.2257,-0.2263,-0.2332,-0.2344,-0.2351,-0.2374,-0.2347,-0.2416,-0.256,-0.2841,-0.3896,-0.4443,-0.468,-0.5648,-0.6056,-0.6039,-0.5961,0.0,0.0,-0.6068,-0.5436,-0.4635,-0.5839,-0.69,-0.7777,-0.8318,-0.8714,-0.9074,-1.0163,-0.9939,-0.9451,-0.9603,-0.9203,-0.8536,-0.7605,-0.8215,-0.8999,-0.8655,-0.8383,-0.7924,-0.6833,-0.5612,-0.4479,-0.3586,-0.3433,-0.3594,-0.3711,-0.3844,-0.411,-0.4313,-0.4096,-0.3942,-0.399,-0.3705,-0.3512,-0.3517,-0.3591,-0.3671,-0.3665,-0.3505,-0.3765,-0.4647,-0.4645,-0.4579,-0.4244,-0.3782,-0.3496,-0.3396,-0.3371,-0.3354,-0.3343,-0.3292,-0.3246,-0.3205,-0.3152,-0.3091,-0.3025,-0.2975,-0.2934,-0.2901,-0.2912,-0.2655,-0.231,-0.2244,-0.17,-0.1046,-0.0857,-0.0476,-0.0095,0.0,0.0,0.0,0.0,0.0,0.0,0.0,0.333,0.3433,0.3616,0.3589,0.3392,0.2966,0.289,0.2728,0.0,0.0,0.0,0.0,0.0,0.0,-0.0387,-0.1294,-0.1817,-0.1817,-0.1847,-0.1854,-0.1839,0.0,-0.1862,-0.1862,-0.1862,-0.1887,-0.187,-0.1914,-0.1933,-0.2037,-0.2628,-0.2877,-0.2958,-0.3635,-0.3879,-0.3879,-0.3879,0.0,0.0,-0.4013,-0.3658,-0.3308,-0.4483,-0.5306,-0.5903,-0.6769,-0.7074,-0.7286,-0.7783,-0.7724,-0.7477,-0.7416,-0.7243,-0.6857,-0.6243,-0.6305,-0.6285,-0.6054,-0.5578,-0.4862,-0.4247,-0.3519,-0.2912,-0.2434,-0.2417,-0.2522,-0.2684,-0.2787,-0.2926,-0.3152,-0.3223,-0.3292,-0.34,-0.3412,-0.3425,-0.3456,-0.3203,-0.3067,-0.3367,-0.3117,-0.3183,-0.3969,-0.3985,-0.3909,-0.3736,-0.3485,-0.3412,-0.3412,-0.3397,-0.3382,-0.3366,-0.3321,-0.3275,-0.3228,-0.3186,-0.3125,-0.305,-0.3005,-0.295,-0.2897,-0.2653,-0.2388,-0.2117,-0.1691,-0.1234,-0.0763,-0.0477,-0.0191,0.0,0.0,0.0,0.0,0.0,0.0,0.0,0.0,0.3392,0.3521,0.3774,0.3744,0.3689,0.3668,0.3586,0.3553,0.0,0.0,0.0,0.0,0.0,0.0,0.0,0.0,0.0,-0.1795,0.0,0.0,-0.1795,-0.1819,0.0,0.0,0.0,0.0,0.0,-0.1887,-0.1906,-0.1956,-0.1939,-0.1945,0.0,0.0,-0.1977,-0.1977,0.0,0.0,0.0,0.0,-0.2159,-0.2291,-0.3226,-0.3577,-0.3878,-0.486,-0.5465,-0.582,-0.5986,-0.6011,-0.6027,-0.586,-0.5853,-0.5836,-0.5617,-0.4867,-0.4107,-0.3983,-0.3238,-0.2536,-0.2367,-0.2352,-0.2363,-0.2346,-0.2395,-0.2477,-0.2593,-0.2607,-0.2746,-0.3065,-0.3051,-0.3148,-0.3418,-0.3422,-0.3427,-0.3469,-0.3006,-0.2972,-0.3359,-0.2808,-0.268,-0.3268,-0.33,-0.3321,-0.3321,-0.338,-0.3412,-0.3412,-0.3412,-0.34,-0.3375,-0.3339,-0.3296,-0.3249,-0.3106,-0.3047,-0.2973,-0.2742,-0.2682,-0.2707,-0.2205,-0.2025,-0.1921,-0.1131,-0.0763,-0.0572,-0.0191,0.0,0.0,0.0,0.0,0.0,0.0,0.0,0.0,0.0,0.3452,0.3597,0.3833,0.3834,0.3801,0.3844,0.3763,0.3662,0.0,0.0,0.0,0.0,0.0,0.0,0.0,0.0,0.0,0.0,0.0,0.0,-0.1795,-0.1798,0.0,0.0,0.0,0.0,0.0,0.0,-0.1864,-0.1896,-0.1921,0.0,0.0,0.0,0.0,0.0,0.0,0.0,0.0,0.0,-0.2131,-0.2169,-0.2449,-0.2533,-0.2572,-0.279,-0.425,-0.5946,-0.6066,-0.6135,-0.6011,-0.5129,-0.4923,-0.4772,-0.3696,-0.3263,-0.3104,-0.2858,-0.2708,-0.2487,-0.2358,-0.2335,-0.2345,-0.2369,-0.2358,-0.241,-0.2529,-0.232,-0.2331,-0.2961,-0.2756,-0.2729,-0.3359,-0.3397,-0.3403,-0.3381,-0.3399,-0.3282,-0.3329,-0.2781,-0.2756,-0.3135,-0.329,-0.3321,-0.3321,-0.338,-0.3412,-0.3412,-0.3412,-0.3411,-0.3407,-0.3348,-0.3318,-0.331,-0.2722,-0.2475,-0.2444,-0.1902,-0.1857,-0.2188,-0.1752,-0.1565,-0.1464,-0.0943,-0.0477,-0.0095,0.0,0.0,0.0095,0.0,0.0,0.0,0.0,0.0,0.0,0.3335,0.3409,0.3567,0.3846,0.3845,0.3815,0.3876,0.382,0.3543,0.2932,0.0,0.0,0.0,0.0,0.0,0.0,0.0,0.0,0.0,0.0,-0.1804,-0.1823,-0.1804,0.0,0.0,0.0,0.0,0.0,0.0,-0.184,-0.1885,-0.1879,0.0,0.0,0.0,0.0,0.0,0.0,0.0,0.0,0.0,0.0,-0.2147,-0.2272,-0.2279,-0.2331,-0.2361,-0.3034,-0.3892,-0.3973,-0.4169,-0.4168,-0.3888,-0.3786,-0.3753,-0.3343,-0.3086,-0.2904,-0.2791,-0.2456,-0.2151,-0.1985,-0.1822,-0.1611,-0.1705,-0.1691,-0.1636,-0.173,-0.1666,-0.1809,-0.2446,-0.2427,-0.2614,-0.3288,-0.3011,-0.2921,-0.2943,-0.2311,-0.1879,-0.1752,-0.1949,-0.204,-0.2223,-0.2657,-0.2985,-0.3294,-0.3352,-0.3385,-0.3385,-0.3403,-0.319,-0.2961,-0.2818,-0.2691,-0.2368,-0.2025,-0.1893,-0.1864,-0.1638,-0.1591,-0.1719,-0.1196,-0.1009,-0.0906,-0.0467,-0.019,0.0,0.0,0.0191,0.0477,0.0,0.0,0.0,0.0,0.0,0.3162,0.3352,0.3409,0.3553,0.388,0.385,0.3837,0.3879,0.3858,0.3298,0.2026,0.1892,0.0,0.0,0.0,0.0,0.0,0.0,0.0,0.0,0.0,-0.181,-0.1783,-0.1819,-0.182,0.0,0.0,-0.1814,-0.1825,0.0,0.0,0.0,0.0,0.0,0.0,0.0,0.0,0.0,0.0,0.0,0.0,0.0,0.0,0.0,0.0,0.0,-0.1341,-0.1259,-0.1588,-0.2054,-0.2522,-0.2781,-0.2942,-0.3032,-0.3129,-0.3109,-0.2725,-0.2684,-0.2519,-0.2092,-0.1797,-0.168,-0.1617,-0.1386,-0.1171,-0.1181,-0.1178,-0.1186,-0.1222,-0.1164,-0.1127,-0.1213,-0.1164,-0.1309,-0.1997,-0.1719,-0.1736,-0.2283,-0.1447,-0.0823,-0.0615,-0.0817,-0.0915,-0.0909,-0.1423,-0.2042,-0.2764,-0.2911,-0.2933,-0.2933,-0.2847,-0.2741,-0.2305,-0.2284,-0.1749,-0.0815,-0.1215,-0.0998,-0.0488,-0.0873,-0.1133,-0.118,-0.0647,-0.0552,-0.0636,-0.0187,0.0095,0.0191,0.0191,0.0572,0.1049,0.0,0.0,0.0,0.0,0.0,0.0,0.3469,0.3496,0.3583,0.3888,0.3921,0.3883,0.3881,0.3897,0.3173,0.1295,0.0971,0.0,0.0,0.0,0.0,0.0,0.0,0.0,0.0,0.0,-0.181,-0.1783,-0.1783,-0.1783,-0.1783,-0.1783,-0.1824,-0.1795,0.0,0.0,0.0,0.0,0.0,0.0,0.0,0.0,-0.0493,0.0,0.0,0.0,0.0,0.0,0.0,0.0,0.0,0.0,0.0,0.0208,-0.0857,-0.2187,-0.2688,-0.2849,-0.2939,-0.3051,-0.275,-0.1276,-0.1597,-0.1781,-0.0259,-0.0649,-0.1298,-0.125,-0.1168,-0.1168,-0.1168,-0.1179,-0.1194,-0.1209,-0.0868,-0.0165,0.102,0.1507,0.157,0.1058,0.0983,0.03,-0.1514,-0.1112,-0.0608,0.0,0.0508,0.0808,0.0808,0.0303,-0.0507,-0.1638,-0.1756,-0.1764,-0.1764,-0.1764,-0.1764,-0.166,-0.1749,-0.0611,0.1311,-0.0101,0.0298,0.2125,0.058,-0.0285,-0.0649,-0.0187,-0.028,-0.0649,-0.0189,0.0286,0.0763,0.0763,0.1049,0.1526,0.0,0.0,0.0,0.0,0.0,0.0,0.0,0.3349,0.3447,0.3649,0.3709,0.3538,0.2968,0.2874,0.2387,0.1092,0.0993,0.0,0.0,0.0,0.0,0.0,0.0,0.0,0.0,0.0,-0.1372,-0.1189,-0.0235,0.0177,0.012,0.106,0.1444,0.1422,0.1294,0.1287,0.0,0.0,0.0,0.0,0.0,0.0244,0.0555,0.0,0.0,0.0,0.0,0.0,0.0,0.0,0.0,0.0,0.0,0.0,0.0,0.1534,0.0546,-0.0333,0.0173,0.0808,0.1288,0.1006,0.1327,0.1869,0.2219,0.2359,0.2487,0.2414,0.2619,0.2846,0.2796,0.2882,0.2769,0.2237,0.2056,0.1793,0.1359,0.1146,0.0824,0.0381,0.0591,0.0803,0.0601,0.0705,0.091,0.1116,0.1214,0.1313,0.1313,0.1212,0.0405,-0.1015,-0.1536,-0.1749,-0.1749,-0.1655,-0.1552,-0.1131,-0.1128,0.0101,0.2397,0.0604,0.0795,0.2609,0.0779,-0.0096,-0.0185,-0.0094,0.0093,0.0371,0.047,0.0854,0.124,0.124,0.1621,0.2098,0.0,0.0,0.0,0.0,0.0,0.0,0.0,0.3089,0.2955,0.2925,0.3004,0.2786,0.2265,0.2215,0.1811,0.0861,0.0776,0.0,0.0,0.0,0.0,0.0,0.0,0.0,-0.1177,-0.1128,-0.0809,-0.0121,0.0779,0.1453,0.1923,0.2737,0.3098,0.3034,0.2945,0.2864,0.0,0.0,0.0,0.0,0.1397,0.1412,0.191,0.0,0.0,0.0,0.0,0.0,0.0,0.0,0.0,0.0,0.0,0.0,0.0,0.0,0.3981,0.2805,0.2544,0.2888,0.3296,0.3203,0.346,0.3841,0.43,0.4388,0.4396,0.4306,0.4525,0.4765,0.4706,0.4763,0.4688,0.4162,0.3739,0.3447,0.3279,0.3245,0.3113,0.2859,0.2569,0.2215,0.1903,0.2315,0.2323,0.1919,0.2323,0.2423,0.2221,0.202,0.1414,0.0404,-0.0305,-0.0815,-0.1019,-0.1024,-0.0922,-0.0509,-0.0509,0.0707,0.2884,0.0905,0.1095,0.2914,0.1077,0.029,0.0,0.0472,0.0753,0.1031,0.1037,0.1328,0.1812,0.1812,0.2098,0.2577,0.0,0.0,0.0,0.0,0.0,0.0,0.0,0.2799,0.2309,0.1844,0.1856,0.185,0.1817,0.1812,0.1416,0.0493,0.0,0.0,0.0,0.0,0.0,0.0,0.0,0.0,-0.0841,-0.0798,-0.0058,0.1264,0.1467,0.2236,0.3597,0.3718,0.3658,0.355,0.3425,0.3215,0.0,0.0,0.0,0.0,0.2115,0.206,0.0,0.0,0.0,0.0,0.0,0.0,0.0,0.0,0.0,0.0,0.0,0.0,0.0,0.0,0.0,0.0,0.0,0.3703,0.3942,0.5305,0.4956,0.4668,0.6088,0.5689,0.0,0.5026,0.5067,0.5096,0.5043,0.5187,0.5296,0.5089,0.4583,0.477,0.6463,0.701,0.7312,0.7506,0.6044,0.4335,0.2822,0.3532,0.3636,0.2626,0.3434,0.3735,0.333,0.2727,0.2424,0.2424,0.1414,0.0606,0.0101,0.0101,0.0202,0.0303,0.0202,0.1205,0.3179,0.1105,0.1199,0.3038,0.1473,0.088,0.0871,0.1343,0.1528,0.1527,0.1527,0.1908,0.2384,0.2384,0.2672,0.3155,0.0,0.0,0.0,0.0,0.0,0.0,0.0,0.0,0.0,0.0,0.1829,0.1604,0.0852,0.0827,0.0427,0.0,0.0,0.0,0.0,0.0,0.0,0.0,0.0,0.0,-0.0505,0.0455,0.1232,0.1898,0.4035,0.5259,0.5656,0.6622,0.6988,0.6719,0.5617,0.4231,0.0,0.0,0.0,0.0,0.203,0.2596,0.0,0.0,0.0,0.0,0.6337,0.6647,0.0,0.0,0.0,0.0,0.0,0.0,0.0,0.0,0.8703,0.8427,0.797,0.0,0.8067,0.7561,0.7893,0.8347,0.0,0.8387,0.8318,0.8136,0.8246,0.839,0.8523,0.8421,0.8283,0.802,0.7347,0.6982,0.7194,0.6674,0.6657,0.779,0.6075,0.5032,0.539,0.4925,0.4544,0.4242,0.404,0.3937,0.3836,0.3332,0.2827,0.2424,0.2121,0.1717,0.1212,0.1212,0.1811,0.2995,0.1812,0.2901,0.5899,0.2704,0.2398,0.4216,0.2274,0.1382,0.1467,0.1562,0.1748,0.2121,0.2121,0.24,0.2957,0.2957,0.3258,0.3665,0.0,0.0,0.0,0.0,0.0,0.0,0.0,0.0,0.0,0.0,0.0,0.0802,0.0284,0.0237,0.0,0.0,0.0,0.0,0.0,0.0,0.0,0.0,0.0,-0.0394,-0.0227,0.0461,0.1545,0.3109,0.4605,0.574,0.6366,0.7767,0.7557,0.6148,0.5276,0.4295,0.0,0.0,0.0,0.2438,0.2785,0.0,0.0,0.0,0.0,0.0,0.7336,0.7607,0.0,0.8189,0.8481,0.8698,0.0,0.0,0.0,0.0,0.9171,0.9226,0.9285,0.9443,0.9467,0.8837,0.915,0.9508,0.9204,0.9275,0.9351,0.9171,0.9323,0.9508,0.9574,0.9671,0.9573,0.9164,0.8875,0.8479,0.8164,0.7813,0.7821,0.866,0.7695,0.6944,0.6806,0.6037,0.5352,0.4847,0.4544,0.4242,0.4038,0.3534,0.3029,0.2726,0.2726,0.2424,0.1616,0.1616,0.2412,0.3879,0.2312,0.3005,0.5427,0.2807,0.2209,0.328,0.3071,0.2571,0.2074,0.2936,0.3119,0.2631,0.2631,0.2817,0.3092,0.3365,0.367,0.3895,0.0,0.0,0.0,0.0,0.0,0.0,0.0,0.0,0.0,0.0,0.0,0.0,0.0,0.0,0.0,0.0,0.0,0.0,0.0,0.0,0.0,0.0,-0.0114,0.0,0.0,0.0175,0.1505,0.3967,0.4162,0.491,0.6109,0.7344,0.6444,0.3806,0.3638,0.3522,0.0,0.0,0.268,0.2899,0.3438,0.0,0.0,0.0,0.0,0.0,0.0,0.0,0.0,0.8416,0.8519,0.8655,0.8742,0.0,0.0,0.0,0.0,0.0,0.9351,0.9449,0.9503,0.9345,0.9394,0.9427,0.9188,0.922,0.9275,0.9182,0.9351,0.953,0.9584,0.9719,0.9792,0.9499,0.9448,0.9288,0.9018,0.9051,0.9221,0.9501,0.94,0.8747,0.7543,0.6855,0.6057,0.515,0.4948,0.4746,0.4139,0.3635,0.333,0.323,0.323,0.2726,0.1818,0.1818,0.2612,0.4078,0.2613,0.2612,0.4078,0.2513,0.1818,0.1918,0.3671,0.3663,0.2692,0.4312,0.4301,0.315,0.3247,0.3245,0.3336,0.3793,0.4095,0.4229,0.0,0.0,0.0,0.0,0.0,0.0,0.0,0.0,0.0,0.0,0.0,0.0,0.0,0.0,0.0,0.0,0.0,0.0,0.0,0.0,0.0,-0.0061,0.0,0.0,0.0,0.1117,0.1926,0.2455,0.3558,0.4295,0.4632,0.4878,0.4015,0.2424,0.2319,0.1641,0.0617,0.0,0.1113,0.2157,0.2287,0.0,0.0,0.0,0.0,0.0,0.0,0.0,0.0,0.8416,0.8633,0.8883,0.8796,0.0,0.0,0.0,0.0,0.0,0.9557,0.9699,0.9704,0.9383,0.9394,0.9427,0.9188,0.922,0.9296,0.928,0.947,0.9737,1.0036,0.9662,0.9447,0.987,0.9427,0.9095,0.9043,0.8338,0.8266,0.9408,0.7929,0.7178,0.7871,0.7029,0.6461,0.6259,0.5856,0.5349,0.4746,0.4139,0.3635,0.323,0.323,0.3129,0.2928,0.2928,0.3717,0.5273,0.3718,0.3717,0.5175,0.3618,0.2928,0.2927,0.3321,0.3319,0.3122,0.3414,0.3398,0.318,0.3677,0.3854,0.3828,0.4408,0.4925,0.5467,0.0,0.0,0.0,0.0,0.0,0.0,0.0,0.0,0.0,0.0,0.0,0.0,0.0,0.0,0.0,0.0,0.0,0.0,0.0,0.0,0.0,0.0,0.0,0.0,0.0,0.0614,0.1329,0.2113,0.2696,0.3084,0.3122,0.232,0.201,0.2038,0.1276,0.0565,0.0,0.0,0.0809,0.2145,0.0,0.0,0.0,0.0,0.0,0.0,0.0,0.0,0.0,0.0,0.8617,0.8758,0.8769,0.0,0.0,0.0,0.0,0.0,0.9443,0.9606,0.9677,0.9378,0.959,0.9758,0.9323,0.9416,0.9557,0.9427,0.9595,0.9851,1.015,0.9829,0.9604,0.9946,0.8854,0.8163,0.8501,0.7985,0.7818,0.851,0.781,0.7473,0.8011,0.7148,0.6461,0.6461,0.5954,0.545,0.4847,0.4242,0.3735,0.323,0.323,0.323,0.323,0.323,0.4018,0.5474,0.3919,0.4018,0.5474,0.3919,0.323,0.323,0.4115,0.4018,0.3329,0.4415,0.441,0.3713,0.4213,0.4402,0.4485,0.5083,0.5578,0.6078,0.0,0.0,0.0,0.0,0.0,0.0,0.0,0.0,0.0,0.0,0.0,0.0,0.0,0.0,0.0,0.0,0.0,0.0,0.0,0.0,0.0,0.0,0.0,0.0,0.0,0.0,0.053,0.1587,0.1614,0.1637,0.1584,0.048,0.0599,0.1585,0.0828,0.0503,0.0505,0.0876,0.183,0.3149,0.0,0.0,0.0,0.0,0.0,0.0,0.0,0.0,0.0,0.0,0.0,0.0,0.0,0.0,0.0,0.9035,0.9215,0.9318,0.9372,0.9525,0.9622,0.9438,0.9737,0.9949,0.9459,0.9644,0.9862,0.9655,0.9845,1.0106,1.0291,1.0179,0.9938,0.9735,0.8474,0.7589,0.7888,0.7551,0.7365,0.7515,0.7501,0.7579,0.7734,0.6956,0.6461,0.6461,0.6158,0.5652,0.5049,0.4444,0.3937,0.3433,0.323,0.323,0.323,0.323,0.3822,0.4991,0.3721,0.382,0.4894,0.3721,0.323,0.3228,0.4606,0.4512,0.3531,0.5206,0.5213,0.424,0.4746,0.5049,0.5251,0.5753,0.613,0.6398,0.0,0.0,0.0,0.0,0.0,0.0,0.0,0.0,0.0,0.0,0.0,0.0,0.0,0.0,0.0,0.0,0.0,0.0,0.0,0.0,0.0,0.0,0.0,0.0,0.0,0.0,0.0067,0.014,0.0144,0.0146,0.0148,0.0071,0.0069,0.0201,0.1386,0.1938,0.2018,0.3383,0.475,0.5977,0.6102,0.0,0.0,0.0,0.0,0.0,0.0,0.0,0.0,0.0,0.0,0.0,0.0,0.0,0.9122,0.9133,0.9215,0.9351,0.9579,0.9655,0.9666,0.965,0.9677,0.9666,0.9508,0.984,1.0139,1.0008,1.0351,1.0677,1.0693,1.0733,1.04,0.8898,0.8474,0.7978,0.7138,0.663,0.6287,0.629,0.6395,0.647,0.6476,0.6528,0.6461,0.6461,0.6461,0.6158,0.5652,0.5049,0.4544,0.3937,0.3433,0.323,0.323,0.323,0.323,0.3328,0.323,0.3228,0.3328,0.323,0.323,0.323,0.3833,0.4036,0.4038,0.4641,0.4843,0.4847,0.545,0.5957,0.636,0.6461,0.6458,0.6455,0.0,0.0,0.0,0.0,0.0,0.0,0.0,0.0,0.0,0.0,0.0,0.0,0.0,0.0,0.0,0.0,0.0,0.0,0.0,0.0,0.0,0.0,0.0834,0.1298,0.1251,0.143,0.2048,0.3084,0.314,0.3074,0.2889,0.2733,0.2635,0.2583,0.3013,0.3295,0.3381,0.3941,0.5029,0.6333,0.6345,0.7206,0.0,0.0,0.0,0.0,0.0,0.0,0.0,0.0,0.8731,0.8785,0.8861,0.8948,0.8965,0.9041,0.9166,0.9237,0.94,0.9606,0.9796,1.0087,1.0103,0.9949,0.9753,0.9965,1.021,1.0242,1.0568,1.0832,1.0707,1.0545,1.0187,0.9282,0.8358,0.7771,0.739,0.6788,0.6259,0.6297,0.6376,0.6428,0.6428,0.6447,0.6461,0.6461,0.6461,0.6259,0.5753,0.545,0.4946,0.4038,0.3836,0.3735,0.3735,0.3735,0.3836,0.4139,0.3534,0.323,0.323,0.3534,0.3735,0.3735,0.4242,0.4544,0.4544,0.515,0.5349,0.5452,0.5957,0.636,0.6461,0.6461,0.6461,0.6461,0.0,0.0,0.0,0.0,0.0,0.0,0.0,0.0,0.0,0.0,0.0,0.0,0.0,0.0,0.0,0.0,0.0,0.0,0.1175,0.1177,0.12,0.1188,0.2157,0.2908,0.3375,0.3672,0.4181,0.4851,0.4951,0.4861,0.4662,0.4544,0.4386,0.4259,0.4543,0.4842,0.5082,0.5454,0.6247,0.7236,0.7201,0.7751,0.0,0.0,0.0,0.0,0.0,0.0,0.0,0.0,0.8715,0.8742,0.883,0.8857,0.8927,0.9084,0.9035,0.903,0.922,0.9427,0.9711,1.0372,1.0405,1.0403,1.0497,1.0426,1.0405,1.0694,1.1031,1.1127,1.0986,1.073,1.036,0.9748,0.8586,0.7834,0.7721,0.6942,0.6324,0.6365,0.6425,0.6461,0.6461,0.6461,0.6461,0.6461,0.6461,0.636,0.5954,0.5753,0.5349,0.4543,0.4341,0.4242,0.4242,0.4242,0.4444,0.4746,0.4038,0.3735,0.3735,0.4038,0.4242,0.4242,0.4847,0.5049,0.515,0.5753,0.5954,0.5954,0.636,0.6461,0.6461,0.6461,0.6461,0.6461,0.0,0.0,0.0,0.0,0.0,0.0,0.0,0.0,0.0,0.0,0.0,0.0,0.0,0.0,0.0,0.0,0.0,0.0,0.3816,0.3819,0.3815,0.3807,0.387,0.4689,0.6364,0.6683,0.6089,0.4584,0.4909,0.4934,0.4736,0.4772,0.4649,0.4584,0.5856,0.6753,0.7303,0.8393,0.9007,0.9105,0.8984,0.881,0.8573,0.0,0.0,0.0,0.0,0.0,0.0,0.0,0.859,0.8633,0.8878,0.8872,0.8823,0.9063,0.8981,0.8911,0.9106,0.9139,0.9308,1.0281,1.064,1.0999,1.2013,1.1426,1.0853,1.1486,1.1703,1.1755,1.1628,1.1414,1.0986,1.0226,0.9208,0.8405,0.7745,0.6982,0.6371,0.6371,0.6425,0.6461,0.6461,0.6461,0.6461,0.6461,0.6461,0.6461,0.6461,0.5954,0.5753,0.5652,0.515,0.4847,0.4847,0.4847,0.4847,0.4847,0.4847,0.4847,0.4847,0.4847,0.4847,0.4847,0.545,0.5753,0.5753,0.6259,0.6461,0.6461,0.6461,0.6461,0.6461,0.6461,0.6461,0.6461,0.0,0.0,0.0,0.0,0.0,0.0,0.0,0.0,0.0,0.0,0.0,0.0,0.0,0.0,0.0,0.0,0.0,0.0,0.3816,0.3722,0.3691,0.3806,0.479,0.5574,0.6153,0.754,0.8221,0.8141,0.816,0.8062,0.7787,0.7622,0.7486,0.7256,0.8061,0.8371,0.8459,0.908,0.9401,0.9516,0.9312,0.9276,0.0,0.0,0.0,0.0,0.0,0.0,0.0,0.0,0.0,0.0,0.938,0.9324,0.9231,0.9589,0.944,0.9347,0.9887,0.996,1.0184,1.1321,1.1612,1.1915,1.3015,1.2643,1.2268,1.2938,1.2842,1.2674,1.246,1.1691,1.0732,0.9752,0.8723,0.7796,0.7387,0.6742,0.6387,0.6428,0.645,0.6461,0.6461,0.6461,0.6461,0.6461,0.6461,0.6461,0.6461,0.636,0.6057,0.5753,0.5551,0.545,0.545,0.545,0.5654,0.5957,0.5957,0.5553,0.4847,0.5251,0.545,0.545,0.6057,0.6259,0.6259,0.6461,0.6461,0.6461,0.6461,0.6461,0.6461,0.6461,0.6461,0.6561,0.0,0.0,0.0,0.0,0.0,0.0,0.0,0.0,0.0,0.0,0.1368,0.0,0.0,0.0,0.0,0.0,0.0,0.0,0.0,0.5319,0.5388,0.5645,0.6561,0.7098,0.7223,0.8303,0.9089,0.9529,0.9602,0.9513,0.9268,0.9168,0.8949,0.8638,0.9069,0.916,0.9088,0.948,0.963,0.9715,0.9639,0.9701,0.9801,0.0,0.0,0.0,0.0,0.0,0.0,0.0,0.0,0.0,0.9637,0.9496,0.9324,0.949,0.945,0.9465,0.9995,1.0354,1.0724,1.1938,1.241,1.2915,1.4124,1.3763,1.3341,1.3582,1.3541,1.3243,1.2992,1.1849,1.0717,0.993,0.8675,0.7625,0.7444,0.6888,0.642,0.6458,0.6461,0.6461,0.6461,0.6461,0.6461,0.6461,0.6461,0.6461,0.6461,0.6461,0.636,0.6055,0.6055,0.6055,0.6055,0.6055,0.6158,0.6461,0.6461,0.6158,0.5452,0.5856,0.6055,0.6055,0.636,0.6461,0.6461,0.6461,0.6461,0.6461,0.6461,0.6477,0.6493,0.6472,0.6679,0.6898,0.0,0.0,0.0,0.0,0.0,0.0,0.0,0.0,0.0,0.0,0.2013,0.2943,0.0,0.0,0.0,0.0,0.0,0.0,0.0,0.791,0.8018,0.8375,0.8732,0.8881,0.8932,0.8851,0.8962,0.9346,0.9583,0.9652,0.9579,0.9636,0.942,0.9029,0.933,0.9437,0.9426,0.974,0.9795,0.9745,0.9947,0.9984,0.9937,0.9819,0.0,0.0,0.0,0.0,0.0,0.0,0.0,0.0,0.9641,0.9509,0.9411,0.9296,0.9341,0.9486,0.9877,1.0469,1.1207,1.2244,1.304,1.3895,1.5135,1.4966,1.4361,1.3891,1.3804,1.372,1.3264,1.2033,1.0849,1.0413,0.896,0.7885,0.7861,0.7127,0.6561,0.6461,0.6461,0.6461,0.6461,0.6461,0.6461,0.6461,0.6461,0.6461,0.6461,0.6461,0.6461,0.6461,0.6461,0.6461,0.6461,0.6461,0.6461,0.6461,0.6461,0.6461,0.6461,0.6461,0.6461,0.6461,0.6461,0.6461,0.6461,0.6461,0.6461,0.6463,0.6469,0.6504,0.6545,0.6597,0.702,0.7467,0.0,0.0,0.0,0.0,0.0,0.0,0.0,0.0,0.0,0.0,0.0,0.0,0.0,0.0,0.0,0.0,0.0,0.0,0.0,0.8154,0.8253,0.8375,0.8602,0.8811,0.8997,0.8851,0.9013,0.9479,0.9431,0.9596,0.9995,1.0058,1.0052,0.9856,1.03,1.0285,1.0019,1.013,1.0212,1.0179,1.021,1.0303,1.0385,1.0359,1.0156,0.0,0.0,0.0,0.0,0.0,0.0,0.0,1.0385,1.0257,1.0203,1.0478,1.0382,1.0441,1.1543,1.177,1.1983,1.3174,1.4333,1.5164,1.5521,1.6048,1.6281,1.562,1.49,1.421,1.38,1.2254,1.0801,1.0135,0.9188,0.8257,0.7534,0.7254,0.6964,0.6561,0.6461,0.6461,0.6461,0.6461,0.6461,0.6461,0.6461,0.6461,0.6461,0.6461,0.6461,0.6461,0.6461,0.6461,0.6461,0.6461,0.6461,0.6461,0.6461,0.6461,0.6461,0.6461,0.6461,0.6461,0.6461,0.6461,0.6461,0.6461,0.6461,0.6466,0.6512,0.6744,0.7167,0.7308,0.7641,0.8156,0.0,0.0,0.0,0.0,0.0,0.0,0.0,0.0,0.0,0.0,0.0,0.0,0.0,0.0,0.0,0.0,0.0,0.0,0.0,0.0,0.8685,0.92,0.9187,0.9249,0.9453,0.9322,0.9395,0.9714,0.9728,0.9894,1.0235,1.0379,1.0302,1.0238,1.0578,1.0473,1.0076,1.0201,1.03,1.0292,1.0348,1.0473,1.0602,1.0602,1.03,0.9993,1.0444,0.0,0.0,0.0,0.0,0.0,0.0,0.0,1.0509,1.0712,1.075,1.0872,1.181,1.2265,1.2895,1.4311,1.5272,1.5893,1.6048,1.6508,1.6854,1.6506,1.5894,1.5213,1.4423,1.2927,1.1501,1.049,0.9424,0.8581,0.8159,0.7666,0.7163,0.6964,0.6662,0.6461,0.6461,0.6461,0.6461,0.6461,0.6461,0.6461,0.6461,0.6461,0.6461,0.6461,0.6461,0.6461,0.6461,0.6461,0.6461,0.6461,0.6461,0.6461,0.6461,0.6461,0.6461,0.6461,0.6461,0.6461,0.6461,0.6461,0.648,0.6507,0.6846,0.7199,0.7566,0.7776,0.8214,0.8746,0.0,0.0,0.0,0.0,0.0,0.0,0.0,0.0,0.0,0.0,0.0,0.0,0.0,0.0,0.0,0.0,0.0,0.0,0.0,0.0,0.0,1.0128,0.986,0.9813,1.0006,0.978,0.978,1.0012,1.0135,1.0376,1.061,1.0638,1.062,1.0553,1.0655,1.0457,1.0054,1.0255,1.0292,1.0241,1.0404,1.0555,1.0643,0.0,0.0,0.9851,1.0424,1.0385,1.013,1.0538,0.0,0.0,0.0,0.0,1.0733,1.0637,1.0836,1.1109,1.1562,1.2564,1.39,1.5337,1.5981,1.6302,1.6483,1.6762,1.6906,1.7155,1.6759,1.6035,1.493,1.35,1.2096,1.1094,0.9743,0.8898,0.8869,0.8173,0.7566,0.7465,0.7065,0.6763,0.6662,0.6662,0.6561,0.6461,0.6461,0.6461,0.6461,0.6461,0.6461,0.6461,0.6461,0.6461,0.6461,0.6461,0.6461,0.6461,0.6461,0.6461,0.6461,0.6461,0.6461,0.6461,0.6461,0.6461,0.6461,0.6461,0.6597,0.6758,0.7175,0.756,0.7977,0.8351,0.8893,0.9349,0.0,0.0,0.0,0.0,0.0,0.0,0.0,0.0,0.0,0.0,0.0,0.0,0.0,0.0,0.0,0.0,0.0,0.0,0.9114,0.0,0.0,1.0229,0.9764,0.9697,1.0154,0.9664,0.9664,1.0161,1.018,1.0652,1.1635,1.1534,1.1489,1.1616,1.1402,1.1121,1.0718,1.0404,1.0294,1.0287,1.0453,1.0432,1.0337,0.0,0.0,1.022,1.0324,1.0405,1.0449,1.067,1.0894,0.0,0.0,0.0,1.113,1.1228,1.1258,1.1321,1.2184,1.3482,1.4876,1.5949,1.632,1.6469,1.6711,1.6986,1.7359,1.7756,1.6831,1.5817,1.5432,1.3553,1.1936,1.1589,1.0433,0.9364,0.8978,0.8776,0.8475,0.8069,0.7968,0.7666,0.7264,0.7163,0.6964,0.6561,0.6461,0.6461,0.6461,0.6461,0.6461,0.6461,0.6461,0.6461,0.6461,0.6461,0.6461,0.6461,0.6461,0.6461,0.6461,0.6461,0.6461,0.6461,0.6461,0.6461,0.6461,0.6461,0.68,0.7272,0.7432,0.8123,0.9042,0.9206,0.9553,1.0078,0.0,0.0,0.0,0.0,0.0,0.0,0.0,0.0,0.0,0.0,0.0,0.0,0.0,0.0,0.0,0.8999,0.8988,0.9035,0.9323,0.9564,0.9856,1.0141,0.9979,1.0015,1.0279,1.0097,1.0136,1.0399,1.0399,1.0967,1.2088,1.2026,1.2074,1.2196,1.1986,1.1633,1.1172,1.0806,1.0555,0.0,0.0,0.0,0.0,0.0,0.0,0.0,0.0,0.0,1.0419,1.0744,1.088,1.0948,1.1138,0.0,0.0,0.0,1.2525,1.2765,1.4178,1.4438,1.479,1.6738,1.661,1.627,1.7464,1.7426,1.727,1.7869,1.7304,1.6498,1.5915,1.4216,1.2719,1.1701,1.0666,0.9919,0.9372,0.9078,0.8776,0.8575,0.827,0.7965,0.7767,0.7767,0.7566,0.6964,0.6964,0.6864,0.6561,0.6461,0.6461,0.6461,0.6461,0.6461,0.6461,0.6461,0.6461,0.6461,0.6461,0.6461,0.6461,0.6763,0.6763,0.6561,0.6864,0.6964,0.6967,0.7306,0.7668,0.7944,0.8327,0.8821,0.9424,0.978,1.0004,1.0204,0.0,0.0,0.0,0.0,0.0,0.0,0.0,0.0,0.0,0.0,0.0,0.0,0.0,0.0,0.0,0.0,0.911,0.9144,0.9367,0.9625,0.9822,0.9869,1.008,1.0181,1.0222,1.0324,1.0412,1.0493,1.0527,1.1165,1.2345,1.2386,1.2562,1.2827,1.2535,1.2108,1.1592,1.1219,0.0,0.0,0.0,0.0,0.0,0.0,0.0,0.0,0.0,0.0,0.0,0.0,0.0,1.1888,1.2216,1.2111,0.0,0.0,0.0,1.4258,1.5969,1.5694,1.5403,1.7331,1.6932,1.638,1.7496,1.7333,1.7091,1.783,1.7602,1.7195,1.6523,1.5084,1.3487,1.2058,1.107,1.0352,0.9902,0.9332,0.9044,0.9044,0.8743,0.845,0.8266,0.827,0.8069,0.7566,0.7465,0.7364,0.6964,0.6763,0.6662,0.6662,0.6561,0.6561,0.6662,0.6864,0.6864,0.6864,0.6878,0.6887,0.6988,0.7392,0.7291,0.6988,0.7374,0.7474,0.7597,0.8056,0.8338,0.8639,0.9117,0.9402,0.9686,1.0004,1.0216,1.0208,0.0,0.0,0.0,0.0,0.0,0.0,0.0,0.0,0.0,0.0,0.0,0.0,0.9571,0.9585,0.953,0.9381,0.9361,0.9367,0.9381,0.953,0.9625,0.9632,0.9768,0.0,0.9997,1.0004,1.0209,1.0493,1.0636,1.1321,1.2494,1.2637,1.3085,1.3743,1.3024,1.2535,1.2203,1.1619,0.0,0.0,0.0,0.0,0.0,0.0,0.0,0.0,0.0,0.0,0.0,0.0,0.0,0.0,0.0,1.4809,1.4872,0.0,0.0,0.0,1.6698,1.7267,1.7388,1.7246,1.7279,1.7116,1.6205,1.6254,1.6746,1.7638,1.7675,1.7521,1.7426,1.5813,1.41,1.2893,1.1793,1.0895,1.0215,0.9789,0.9451,0.9451,0.9451,0.9285,0.8869,0.8877,0.8676,0.8065,0.8069,0.8069,0.8065,0.7566,0.7264,0.7264,0.6763,0.6763,0.7264,0.7767,0.8065,0.8069,0.8039,0.8072,0.8072,0.8174,0.8174,0.8069,0.8099,0.8106,0.8174,0.8178,0.8575,0.9236,0.9244,0.9608,1.011,1.0216,1.0216,1.0216,0.0,0.0,0.0,0.0,0.0,0.0,0.0,0.0,0.0,0.0,0.0,0.0,0.0,0.9747,0.972,0.9666,0.9578,0.953,0.953,0.9666,0.9747,0.9747,0.989,0.993,0.9984,1.0148,1.0249,1.0358,1.05,1.1043,1.1938,1.2189,1.2596,1.3125,1.3152,1.2834,1.2264,1.185,0.0,0.0,0.0,0.0,0.0,0.0,0.0,0.0,0.0,0.0,0.0,0.0,0.0,0.0,0.0,0.0,0.0,1.6095,1.6353,1.666,1.7927,1.7524,1.7116,1.8749,1.7698,1.6383,1.7405,1.6975,1.6408,1.6734,1.7098,1.7306,1.6828,1.5667,1.4397,1.3301,1.2321,1.1534,1.0755,1.0215,0.9943,0.9943,0.9653,0.9371,0.9206,0.921,0.9035,0.8492,0.8841,0.8844,0.8156,0.8324,0.8212,0.7861,0.7666,0.7666,0.7767,0.7965,0.8065,0.8065,0.8096,0.8133,0.8181,0.8589,0.8716,0.8763,0.9148,0.9019,0.88,0.9212,0.9604,0.9771,0.9831,0.9976,1.0216,1.0216,1.0216,1.0216,0.0,0.0,0.0,0.0,0.0,0.0,0.0,0.0,0.0,0.7616,0.0,0.0,0.0,0.0,0.9876,0.9829,0.9693,0.9612,0.9612,0.97,0.9747,0.9747,0.9829,0.9936,0.9984,1.0148,1.0229,1.0283,1.0426,1.0853,1.1545,1.1796,1.2203,1.2739,1.2888,1.2813,1.2569,1.2264,0.0,1.1287,0.0,0.0,1.2196,0.0,0.0,0.0,0.0,0.0,0.0,0.0,0.0,0.0,0.0,0.0,0.0,0.0,0.0,1.7745,1.8694,1.8204,1.7672,1.8799,1.7902,1.681,1.6993,1.6986,1.6977,1.6609,1.7179,1.7665,1.7019,1.6105,1.508,1.3912,1.3028,1.2245,1.1312,1.0783,1.0436,1.0376,0.9994,0.9823,0.9887,0.9891,0.9824,0.9493,0.9717,0.954,0.8917,0.8867,0.8671,0.8162,0.827,0.837,0.837,0.8572,0.8672,0.8672,0.8698,0.8756,0.8731,0.914,0.9392,0.9473,0.9784,0.9752,0.9395,0.9924,1.0098,1.013,1.0192,1.0216,1.0216,1.0216,1.0216,1.0216,0.0,0.0,0.0,0.0,0.0,0.0,0.0,0.0,0.6292,0.7789,0.0,0.0,0.0,0.0,0.0,0.9863,0.972,0.9639,0.9625,0.9618,0.9618,0.9618,0.9747,0.9897,0.999,0.9997,1.0127,1.0283,1.0426,1.0792,1.1362,1.1511,1.1979,1.2664,1.2237,1.2454,1.3112,1.282,1.261,1.2539,0.0,1.2361,1.1938,0.0,0.0,0.0,1.8218,1.9107,0.0,0.0,0.0,0.0,0.0,0.0,0.0,0.0,0.0,0.0,0.0,0.0,0.0,1.7214,1.8091,1.8521,1.4747,1.638,1.8407,1.7359,1.8061,1.8734,1.8281,1.729,1.6043,1.4778,1.3918,1.3043,1.2002,1.1444,1.0998,1.0729,1.0649,1.0725,1.093,1.0852,1.0857,1.0861,1.0467,1.0317,1.0325,0.9348,0.8592,0.8166,0.8676,0.8978,0.8978,0.948,0.9782,0.9782,0.9771,0.9861,0.9955,0.9955,1.0,1.0085,1.0085,1.0085,1.0085,1.0085,1.0134,1.0216,1.0216,1.0216,1.0216,1.0216,1.0216,1.0216,0.0,0.0,0.0,0.0,0.0,0.3939,0.5308,0.65,0.7857,0.0,0.0,0.0,1.0365,1.0503,1.057,1.0487,1.0439,1.0276,0.9889,0.9869,0.9815,0.9768,0.9802,0.9944,1.0209,1.0215,1.0236,1.0283,1.0426,1.0527,1.0588,1.0738,1.109,1.1599,1.1701,1.1911,1.2189,1.2006,0.0,1.3574,1.2394,1.3858,0.0,0.0,0.0,0.0,0.0,2.0192,1.936,0.0,2.1233,2.1088,0.0,0.0,0.0,0.0,0.0,0.0,1.9036,0.0,0.0,0.0,0.0,0.0,1.7606,1.7787,1.7936,1.7385,1.7811,1.8232,1.7917,1.6926,1.6073,1.5957,1.4808,1.3726,1.2883,1.2386,1.2052,1.1993,1.1351,1.0943,1.1082,1.0814,1.0692,1.0844,1.1112,1.1162,1.0904,1.0699,1.0554,1.038,1.058,1.0681,1.0681,1.0781,1.0886,1.0886,1.0914,1.0714,1.0467,1.057,1.0453,1.0179,1.0602,1.0813,1.0813,1.0391,1.0192,1.0216,1.0216,1.0216,1.0216,1.0216,1.0216,1.0216,0.0,0.0,0.0,0.0,0.0,0.4568,0.5457,0.7168,0.8708,0.0,0.0,0.0,1.0765,1.0989,1.1023,1.0744,1.0663,1.0487,1.0168,1.0148,1.0073,0.9862,0.9978,1.0093,1.0276,1.0337,1.0371,1.0371,1.0453,1.0453,1.0371,1.0453,1.0697,1.1077,1.1192,1.1636,1.2386,1.2233,0.0,0.0,1.4194,0.0,0.0,1.8799,1.9446,0.0,0.0,0.0,2.1371,2.2031,2.2114,0.0,0.0,0.0,0.0,0.0,0.0,0.0,0.0,0.0,0.0,0.0,0.0,0.0,1.7866,1.8135,1.8341,1.7645,1.8045,1.8505,1.8447,1.7348,1.6591,1.6968,1.5763,1.4454,1.3787,1.3382,1.2979,1.2909,1.2198,1.1817,1.1987,1.1819,1.162,1.1615,1.1719,1.1533,1.1035,1.1159,1.124,1.1282,1.1282,1.1282,1.1282,1.1282,1.1282,1.1282,1.133,1.1236,1.1086,1.1127,1.1127,1.0958,1.1276,1.1382,1.1382,1.1064,1.0958,1.0958,1.0958,1.0958,1.0958,1.0958,1.0958,1.0958,0.0,0.0,0.2244,0.2484,0.3735,0.4863,0.521,0.7442,0.9142,0.0,1.0385,1.1131,1.1294,1.1402,1.1301,1.088,1.0704,1.0534,1.0344,1.0331,1.0256,1.0017,1.0209,1.029,1.0304,1.0446,1.0507,1.0493,1.0507,1.0507,1.0493,1.0473,1.0695,1.1117,1.0958,1.1844,1.3483,1.3486,1.3177,1.2989,1.6676,1.7425,0.0,0.0,2.2133,2.1772,2.3845,2.4311,2.3772,2.3507,2.2814,0.0,0.0,0.0,0.0,0.0,1.9193,0.0,0.0,0.0,0.0,0.0,0.0,0.0,1.71,1.8141,1.9293,1.8166,1.8632,1.922,1.9284,1.82,1.7342,1.7675,1.663,1.5498,1.4657,1.4258,1.3926,1.3614,1.3293,1.3127,1.329,1.3242,1.312,1.2795,1.2272,1.1773,1.1226,1.1255,1.1367,1.1463,1.1478,1.1483,1.1483,1.1483,1.1483,1.1488,1.1594,1.1701,1.17,1.1805,1.1916,1.1911,1.2017,1.2017,1.2017,1.2017,1.2017,1.1911,1.1911,1.1911,1.1911,1.1911,1.1911,1.1911,0.0,0.2203,0.2664,0.4159,0.4788,0.5863,0.8524,0.9179,0.9916,1.133,1.171,1.1945,1.221,1.2054,1.1843,1.1633,1.1484,1.1185,1.067,1.0636,1.0514,1.0249,1.0263,1.0331,1.0446,1.0602,1.0616,1.0493,1.0616,1.0616,1.0487,1.0378,1.112,1.2402,1.2287,1.311,1.4715,1.6208,1.6177,1.5053,1.5014,1.6869,1.9686,1.9674,2.1147,2.3419,2.4267,2.442,2.4118,0.0,2.32,2.2455,0.0,0.0,0.0,0.0,0.0,0.0,0.0,0.0,0.0,0.0,0.0,0.0,1.9182,1.949,2.0024,1.9702,1.9329,1.8872,1.8205,1.8405,1.8298,1.7102,1.8121,1.8037,1.533,1.5101,1.4968,1.4517,1.4371,1.4264,1.4011,1.3765,1.3525,1.312,1.2865,1.2684,1.2667,1.2488,1.242,1.2441,1.2536,1.259,1.259,1.259,1.259,1.259,1.2706,1.2619,1.2215,1.2429,1.223,1.1911,1.244,1.2651,1.2651,1.3074,1.2757,1.1911,1.1911,1.1911,1.1911,1.1911,1.1911,1.1911,0.4466,0.4718,0.5134,0.6162,0.7054,0.8193,0.9976,1.0697,1.1435,1.2498,1.2752,1.2813,1.2739,1.2528,0.0,0.0,0.0,0.0,0.0,1.0766,1.0704,1.0399,1.046,1.0534,1.0602,1.0758,1.0799,1.0717,1.0799,1.0758,1.0602,1.1243,1.1892,1.2621,1.3392,1.4493,1.5802,1.6923,1.7135,1.6738,1.68,0.0,2.077,2.0538,2.2075,2.441,2.489,2.4866,2.454,2.3796,2.3562,0.0,0.0,2.1934,2.1764,0.0,2.0678,2.0569,0.0,0.0,0.0,2.0202,0.0,0.0,0.0,1.9843,1.9808,1.9875,1.9461,1.9149,1.9289,1.8948,1.8659,1.8809,1.9155,1.8875,1.7507,1.699,1.6477,1.5739,1.5255,1.5012,1.4996,1.466,1.4299,1.3874,1.3425,1.3293,1.3489,1.3394,1.343,1.3493,1.3615,1.3684,1.3684,1.339,1.3318,1.338,1.3198,1.3011,1.2921,1.3037,1.3022,1.2757,1.3074,1.318,1.318,1.3496,1.3285,1.2757,1.2757,1.2757,1.2757,1.2757,1.2757,1.2757,0.6839,0.7202,0.7519,0.807,0.9344,1.0493,1.093,1.2029,1.2942,1.3186,1.3431,1.3471,1.3166,0.0,0.0,0.0,0.0,0.0,0.0,0.0,1.0941,1.0636,1.0711,1.0751,1.0717,1.09,1.0962,1.084,1.1233,1.1298,1.1115,1.2553,1.3257,1.3315,1.466,1.6012,1.7301,1.74,1.794,1.8622,1.9328,2.0079,2.0849,2.132,2.2844,2.4855,2.5313,2.5301,2.4891,2.3928,2.388,2.4069,2.2681,2.2573,0.0,0.0,0.0,0.0,0.0,0.0,0.0,0.0,0.0,2.0557,0.0,0.0,0.0,1.9625,1.9413,1.9508,2.0237,1.9454,1.909,2.0235,1.9908,1.9496,1.9579,1.9055,1.8341,1.7246,1.6279,1.5913,1.6479,1.598,1.5349,1.4702,1.4107,1.3827,1.4071,1.4047,1.4104,1.4244,1.4372,1.4452,1.4476,1.4107,1.3977,1.4077,1.3717,1.3635,1.3741,1.3863,1.3919,1.3919,1.3919,1.3919,1.3919,1.3919,1.3919,1.3919,1.3708,1.3602,1.3602,1.3602,1.3602,1.3602,0.6998,0.6982,0.7725,0.9437,1.0278,1.1143,1.2651,1.3165,1.3336,1.337,1.3403,1.3505,0.0,0.0,0.0,0.0,0.0,0.0,1.2318,0.0,0.0,1.1097,1.0982,1.0793,1.0724,1.0995,1.1009,1.0744,1.2285,1.2879,1.2618,1.3997,1.5284,1.6475,1.6435,1.7716,1.986,1.9406,2.0087,2.1351,2.012,1.9703,0.0,1.9654,2.1477,2.442,2.5168,2.5421,2.5301,0.0,2.4528,2.4468,0.0,2.32,2.2794,0.0,0.0,0.0,0.0,0.0,0.0,0.0,2.1354,0.0,0.0,0.0,2.0031,1.9586,0.0,1.9543,1.8523,0.0,0.0,1.8539,2.0329,2.1398,2.0055,2.0519,2.0465,1.8975,1.7828,1.7672,1.8947,1.7876,1.6711,1.5631,1.4958,1.4651,1.4805,1.4235,1.3963,1.4097,1.4238,1.436,1.4476,1.4598,1.4565,1.4583,1.4844,1.4873,1.4892,1.5018,1.5072,1.5072,1.5072,1.5072,1.5072,1.5072,1.5072,1.4967,1.4024,1.3602,1.3602,1.3602,1.3602,1.3602,0.9807,0.9866,1.0295,1.1188,1.1613,1.216,1.3064,1.36,1.3892,1.3804,1.3871,1.4034,0.0,0.0,0.0,0.0,0.0,1.303,0.0,0.0,0.0,0.0,1.1294,1.1124,1.124,1.1192,1.146,1.2037,1.278,1.352,1.4315,1.5749,1.6721,1.7313,1.8197,1.9226,2.0267,2.0195,2.0711,2.1294,1.9974,1.9977,0.0,2.0628,2.2267,2.4745,2.5083,2.5313,2.5289,0.0,2.4359,0.0,0.0,0.0,0.0,0.0,0.0,0.0,0.0,0.0,0.0,0.0,0.0,0.0,2.0505,0.0,1.9989,0.0,0.0,0.0,0.0,0.0,0.0,0.0,2.0971,2.1619,2.0923,2.1311,2.1163,1.9673,1.7891,1.6896,1.7235,1.7056,1.6522,1.5693,1.6099,1.5973,1.5146,1.5428,1.5568,1.5428,1.5582,1.5572,1.5503,1.5265,1.5272,1.543,1.5142,1.5173,1.532,1.5295,1.5368,1.5515,1.5356,1.5332,1.5405,1.5405,1.5405,1.5411,1.4957,1.4685,1.4551,1.4551,1.4551,1.4563,1.1837,0.0,0.0,1.221,1.2576,1.2963,1.3302,1.3357,1.3323,1.3335,1.3393,1.3598,1.4034,1.4157,0.0,0.0,1.436,1.3838,0.0,0.0,1.2474,0.0,0.0,0.0,0.0,1.2057,1.2559,1.3604,1.4063,1.4922,1.609,1.7464,1.8166,1.8381,1.9579,2.0307,2.0629,2.0967,2.1378,2.1775,2.0882,2.1199,2.2217,2.2191,2.3338,2.4975,2.5047,2.5192,2.5277,2.4157,2.4277,0.0,2.3876,0.0,0.0,0.0,0.0,0.0,2.2814,0.0,0.0,0.0,0.0,0.0,0.0,0.0,0.0,0.0,0.0,0.0,0.0,0.0,0.0,0.0,0.0,2.1341,2.1269,2.1426,2.123,2.0363,1.8901,1.7559,1.6633,1.7252,1.7401,1.6717,1.7254,1.7216,1.6067,1.6572,1.6766,1.6594,1.6612,1.6553,1.6508,1.6044,1.5877,1.6126,1.5755,1.5672,1.5861,1.586,1.5823,1.6005,1.5942,1.5929,1.5917,1.5961,1.5974,1.5986,1.6087,1.5999,1.5823,1.5505,1.5399,1.5411,1.1999,1.2135,0.0,1.2142,1.2671,1.3308,1.3749,1.2003,1.087,1.1301,1.1242,0.0,0.0,0.0,0.0,0.0,0.0,1.4638,1.4468,0.0,1.3105,0.0,0.0,1.3,0.0,0.0,1.4397,1.5215,1.6796,1.7653,1.7851,1.8976,1.9792,2.0323,2.0337,2.0759,2.1474,2.1993,2.2802,2.3652,2.3423,2.3616,2.413,0.0,2.4265,2.4999,2.5252,0.0,0.0,2.5011,2.4842,0.0,0.0,0.0,0.0,0.0,0.0,0.0,0.0,0.0,0.0,2.1897,0.0,0.0,0.0,0.0,2.0195,0.0,0.0,0.0,0.0,0.0,0.0,0.0,0.0,0.0,0.0,2.0702,2.0907,2.1366,2.1715,2.1134,1.9155,2.0013,2.0262,1.9384,1.863,1.807,1.7707,1.7053,1.6837,1.7173,1.6698,1.6636,1.7099,1.6646,1.6489,1.6644,1.6904,1.6978,1.6985,1.6985,1.6985,1.7005,1.7127,1.7188,1.7202,1.7244,1.7305,1.7305,1.7311,1.7305,1.719,1.6112,1.5686,1.5686,0.0,0.0,0.0,0.0,1.2515,1.3064,1.3614,1.3381,1.2758,1.1678,1.2876,0.0,0.0,1.48,1.6232,0.0,0.0,1.5642,1.4997,1.4353,0.0,0.0,0.0,1.4253,0.0,0.0,0.0,1.7922,1.8306,1.8971,1.991,2.0285,2.0513,2.0699,2.102,2.1373,2.18,2.2681,2.3152,2.3321,2.3418,2.3688,2.4251,0.0,2.4649,2.4975,2.5059,2.5289,0.0,2.4721,2.4564,2.4589,2.4335,2.3937,2.3647,2.4009,2.3852,2.3611,0.0,0.0,2.3592,2.2959,0.0,0.0,0.0,0.0,0.0,0.0,0.0,0.0,0.0,0.0,0.0,0.0,0.0,0.0,0.0,1.9989,2.0134,2.0859,2.0379,1.9596,1.8694,1.9257,1.9346,1.8361,1.8973,1.8449,1.6233,1.7381,1.7632,1.661,1.6759,1.698,1.7263,1.6701,1.6653,1.6904,1.6958,1.7032,1.7121,1.7121,1.7229,1.7419,1.7365,1.7399,1.75,1.7548,1.7568,1.7582,1.767,1.7724,1.7684,1.7061,1.688,1.6785,1.2167,0.0,0.0,1.2264,1.2589,1.3091,1.3695,1.3666,1.3168,1.2132,1.3482,0.0,1.3603,0.0,1.6856,0.0,1.6863,1.6327,1.5479,1.4964,0.0,1.417,1.451,0.0,0.0,0.0,0.0,0.0,1.9668,2.0247,2.0617,2.0709,2.0851,2.1121,2.1537,2.1715,2.1824,2.3261,2.3611,2.3225,2.3587,2.4045,0.0,0.0,2.4806,2.4975,0.0,2.5156,2.5228,2.4806,2.4589,2.448,2.4432,2.4154,2.39,2.4109,2.4049,2.3904,2.3904,2.3904,0.0,2.3309,2.2373,0.0,2.0971,0.0,0.0,0.0,0.0,0.0,0.0,0.0,0.0,0.0,0.0,0.0,0.0,1.9664,1.9845,2.046,1.9849,1.9475,1.9593,1.9686,1.9457,1.8696,1.9411,1.8645,1.5945,1.7643,1.7961,1.6551,1.7151,1.7553,1.7545,1.7083,1.6934,1.6978,1.6978,1.7026,1.7121,1.7168,1.7297,1.7487,1.75,1.7555,1.765,1.7704,1.7717,1.7738,1.7826,1.786,1.7846,1.765,1.7575,1.7595,1.2594,1.2861,1.2718,1.2583,1.2908,1.3397,1.3994,1.2945,1.2201,1.2573,1.2941,1.3385,1.3874,1.5616,1.6971,1.7385,1.7154,1.668,1.5947,1.5608,0.0,0.0,1.4945,1.5624,1.6411,0.0,0.0,0.0,0.0,2.1518,2.015,2.0343,2.0873,2.1616,2.1849,2.1813,2.1619,2.3719,2.4178,2.3471,2.3977,2.4494,2.4939,2.4745,2.4818,2.5011,2.5252,2.518,2.5011,2.524,2.4902,2.4407,2.5156,2.4697,2.3953,2.4806,2.4661,2.4251,2.4251,2.4251,2.3997,2.2995,2.2388,0.0,0.0,0.0,2.102,0.0,0.0,0.0,0.0,0.0,0.0,0.0,0.0,0.0,0.0,0.0,1.9953,2.0243,2.0412,2.084,2.1752,2.1269,2.071,2.0279,1.9866,1.8749,1.6903,1.7888,1.7975,1.6942,1.771,1.8197,1.8149,1.777,1.7418,1.7083,1.7083,1.7083,1.709,1.7233,1.7302,1.7315,1.7622,1.765,1.765,1.7923,1.7977,1.7977,1.7977,1.7977,1.7977,1.7977,1.7977,1.7977,1.282,1.318,1.3254,1.3329,1.3437,1.3675,1.4163,1.4198,1.3782,1.2705,1.4578,1.545,1.415,1.6219,1.7534,1.7433,1.7249,0.0,0.0,0.0,0.0,1.5466,1.5881,1.6708,1.8026,1.9071,0.0,2.0047,0.0,2.1514,2.0363,2.1278,2.1584,2.1356,2.2177,2.2191,2.1607,2.3526,2.4335,2.4335,2.4468,2.4733,2.4951,2.4879,2.5023,2.5325,2.5107,2.5228,2.5289,2.4951,2.4842,2.4842,2.4842,2.4649,2.4468,2.4673,2.4637,2.4528,2.4528,2.4383,2.4133,2.3736,2.2831,2.186,0.0,0.0,0.0,0.0,0.0,0.0,0.0,0.0,0.0,0.0,0.0,0.0,0.0,0.0,0.0,2.0195,1.997,2.0103,2.0907,2.0668,2.0175,1.9446,1.9476,1.8843,1.7295,1.8699,1.8966,1.7624,1.7665,1.8008,1.876,1.7536,1.7394,1.8222,1.8222,1.8222,1.823,1.8397,1.847,1.8485,1.8805,1.8944,1.8958,1.9119,1.9192,1.9192,1.9192,1.9192,1.9081,1.864,1.853,1.853,1.2982,1.3648,1.3871,1.3831,1.415,1.4468,1.4658,1.4957,1.4947,1.4355,1.5905,1.6656,1.5645,1.7015,1.7901,1.7717,1.7453,0.0,1.687,0.0,0.0,1.5957,1.6481,1.7079,1.7509,1.9045,0.0,1.89,0.0,2.0964,1.9785,2.0995,2.1452,2.1244,2.2256,2.2323,2.1812,2.3411,2.442,2.4963,2.4721,2.4866,0.0,2.4999,2.5204,2.5421,2.5277,2.524,2.524,2.5047,2.4927,2.4878,2.4951,2.4902,2.483,2.4951,2.4975,2.4951,2.4842,2.4531,2.427,2.4045,2.3086,2.2088,2.1806,2.157,2.138,0.0,2.1525,2.1873,0.0,0.0,0.0,0.0,0.0,0.0,0.0,0.0,0.0,0.0,2.0134,2.0207,2.0315,1.9869,1.9398,1.8939,1.9145,1.8642,1.7052,1.8839,1.9252,1.8002,1.8618,1.932,2.0038,1.8463,1.8159,1.9127,1.8239,1.8159,1.8649,1.8813,1.8895,1.8909,1.9237,1.9379,1.9394,1.955,1.9632,1.9632,1.9632,1.9632,1.9632,1.9515,1.9309,1.9192,1.3258,1.4102,1.4407,1.417,1.4841,1.5398,1.5364,1.5506,1.5859,1.6551,1.7032,1.7351,1.7467,1.7826,1.8057,1.8036,0.0,1.7331,1.706,1.6639,1.6273,1.5981,1.6788,1.6931,1.6202,1.8506,0.0,0.0,0.0,2.0131,1.9033,2.0354,2.104,2.1252,2.2094,2.2375,2.2202,2.3266,2.4371,2.524,2.4842,2.4963,2.5361,2.5168,2.524,2.5433,2.5433,2.5289,2.5132,2.5361,2.512,2.4818,2.5289,2.5277,2.5144,2.5373,2.5348,2.53,2.4987,2.465,2.4242,2.3948,2.3101,2.2277,2.2018,2.1442,2.1032,2.1254,2.1094,2.1137,2.1671,0.0,0.0,0.0,0.0,0.0,0.0,0.0,0.0,0.0,0.0,0.0,1.9953,1.9289,1.8831,1.8698,1.8927,1.8436,1.6957,1.8713,1.9334,1.8465,1.9767,2.0741,2.1289,1.9543,1.9179,1.9899,1.8061,1.7712,1.8888,1.9039,1.9122,1.9159,1.9468,1.9596,1.9612,1.9785,1.9845,1.9845,1.9845,1.9845,1.9955,2.0395,2.0278,1.9845,1.3745,0.0,0.0,0.0,1.4977,1.5608,1.6198,1.6524,1.6842,1.7216,1.765,1.7901,1.7792,1.786,1.786,1.7738,1.765,0.0,0.0,0.0,0.0,1.6598,1.6364,1.6404,1.6713,1.6965,1.69,0.0,0.0,1.9577,1.8869,2.0721,2.1526,2.1306,2.1652,2.2177,2.2955,2.3309,2.3796,2.448,2.483,2.5035,2.5047,2.5216,2.5397,2.5433,2.5433,2.5409,2.5373,2.5421,2.5373,2.5313,2.5409,2.5409,2.5373,2.5421,2.5092,2.4823,2.4776,2.4272,2.3732,2.3551,2.2994,2.2466,2.2284,2.1814,2.1545,2.1789,2.154,2.1335,2.1568,0.0,0.0,0.0,0.0,0.0,0.0,0.0,0.0,0.0,0.0,1.9689,1.9905,1.9953,1.9627,1.8746,1.8927,1.8883,1.8463,1.937,1.9803,1.9715,1.9352,1.9628,2.0684,1.8441,1.8293,2.0166,1.8938,1.8994,2.0231,2.0263,2.0351,2.0602,2.0711,2.0799,2.0815,2.0975,2.1063,2.1063,2.1063,2.1063,2.1063,2.1156,2.1156,2.1063,1.4441,0.0,0.0,0.0,1.5601,1.6307,1.6897,1.7439,1.7704,1.7453,1.7684,1.7806,1.765,1.7846,1.7948,1.788,1.767,1.7534,1.7541,1.7039,1.6748,1.6748,1.6741,0.0,1.6466,1.642,1.6325,1.609,0.0,0.0,1.7425,1.9275,2.0091,2.0074,2.1245,2.2448,2.3663,2.3763,2.4085,2.4685,2.5083,2.5252,2.5264,2.5385,2.5433,2.5433,2.5433,2.5433,2.5433,2.5433,2.5433,2.5433,2.5433,2.5433,2.5348,2.5092,2.4921,2.4664,2.4492,2.3972,2.3488,2.3428,2.2939,2.2444,2.2309,2.2062,2.1814,2.1803,2.1609,2.1373,2.1034,2.0941,0.0,0.0,0.0,0.0,0.0,0.0,0.0,0.0,0.0,0.0,0.0,2.0105,1.9804,1.8589,1.8855,1.8868,1.8384,1.9187,1.9848,2.0101,1.9881,2.0345,2.164,1.957,1.9411,2.1199,1.9626,1.9537,2.0726,2.0726,2.0775,2.0864,2.1051,2.1124,2.114,2.1319,2.1384,2.1384,2.1384,2.1449,2.153,2.153,2.1595,2.166,1.5201,1.5235,0.0,1.5689,1.6408,1.708,1.75,1.8145,1.8355,1.7738,1.7738,1.7738,1.7582,1.7846,1.8036,1.8002,1.7704,1.7514,1.7507,1.7005,1.6693,1.6659,1.6927,1.6803,1.6046,1.6407,1.6355,0.0,0.0,0.0,1.6317,1.8223,1.9206,1.9399,2.134,2.283,2.3864,2.4207,2.4601,2.4987,2.5252,2.5433,2.5433,2.5433,2.5433,2.5433,2.5433,2.547,2.5432,2.4992,2.5127,2.5433,2.5433,2.5127,2.4808,2.459,2.4258,2.3862,2.3731,2.329,2.2945,2.2945,2.2632,2.2236,2.2236,2.2149,2.2008,2.1814,2.1728,2.1441,2.0634,2.0921,0.0,0.0,0.0,0.0,0.0,0.0,0.0,0.0,0.0,0.0,1.9701,1.9957,1.9654,1.8251,1.8662,1.8779,1.8232,1.905,1.9705,2.0244,2.0611,2.1333,2.2418,2.0901,2.0675,2.1862,2.0016,1.9768,2.0913,2.0913,2.0929,2.0978,2.1116,2.1181,2.1197,2.136,2.1449,2.1449,2.149,2.1595,2.1725,2.1725,2.1806,2.1912,1.5947,1.609,1.632,1.6761,1.7236,1.767,1.7982,1.843,1.8674,1.8464,1.8321,1.8199,1.8036,1.7948,1.7826,1.7704,1.7772,1.7602,1.708,1.7229,1.7039,1.6381,1.6524,1.6298,1.5628,1.6407,1.668,0.0,0.0,1.8157,1.731,1.9413,2.065,2.1057,2.2422,2.3036,2.3218,2.4154,2.477,2.4987,2.5252,2.5433,2.5433,2.5433,2.5433,2.5433,2.5433,2.559,2.5524,2.3751,2.4137,2.5433,2.5433,2.4373,2.3272,2.3948,2.2729,2.1349,2.2047,2.1822,2.1475,2.1475,2.1715,2.205,2.205,2.2129,2.2299,2.2277,2.2094,2.1661,2.0764,2.1196,2.1468,0.0,0.0,0.0,0.0,0.0,0.0,0.0,0.0,0.0,0.0,1.9471,1.9048,1.766,1.8287,1.8818,1.9095,1.9338,1.9759,2.0325,2.1192,2.1609,2.1341,2.0524,2.038,2.098,1.9688,1.9831,2.11,2.11,2.1189,2.1343,2.136,2.136,2.1384,2.1555,2.1636,2.166,2.1806,2.1896,2.1912,2.1912,2.1912,2.1961,1.6734,1.6653,1.6748,1.7283,1.7528,1.7806,1.8287,1.8586,1.8708,1.8552,1.8409,1.8267,1.8111,1.7948,1.7846,1.7772,1.7758,1.767,1.7521,1.729,1.706,1.6849,1.6551,1.6298,1.6168,1.639,1.6383,0.0,0.0,0.0,0.0,1.7384,1.9266,2.1294,2.2641,2.3381,2.3575,2.4311,2.4782,2.4987,2.5252,2.4738,2.3697,2.3697,2.2998,2.2126,2.2126,2.2186,2.2266,2.1433,2.2476,2.3961,2.2722,2.1893,2.1412,2.1785,2.1205,2.0529,2.1164,2.1231,2.1144,2.1407,2.1683,2.193,2.1787,2.2044,2.2254,2.1969,2.2001,2.2022,2.1345,2.1557,2.1776,2.1334,0.0,0.0,0.0,0.0,0.0,0.0,0.0,0.0,0.0,1.9553,1.9243,1.9669,1.91,1.8572,1.8179,1.9009,1.9714,2.0222,2.093,2.1413,2.1541,2.12,2.108,2.1165,2.0666,2.0714,2.1278,2.1278,2.1384,2.1555,2.1555,2.162,2.1725,2.179,2.1831,2.1831,2.1912,2.2001,2.2082,2.2082,2.2383,2.2832,1.7507,1.7317,1.7317,1.788,1.7982,1.8111,1.8477,1.8708,1.8762,1.8552,1.8443,1.8301,1.8111,1.7948,1.7846,1.7812,1.7738,1.7704,1.767,1.7317,1.7093,1.706,1.6619,0.0,1.6714,1.6683,1.6602,1.6536,1.6175,0.0,0.0,1.6852,1.9036,2.1551,2.3131,2.3515,2.3155,2.3911,2.4005,2.3664,2.3765,2.301,2.1863,2.1811,2.1002,1.9873,1.9873,2.0006,2.0069,1.9378,2.0289,2.1542,2.0543,1.9848,1.9491,1.9805,1.9589,1.9383,1.9962,2.0397,2.0663,2.1008,2.1403,2.1661,2.1491,2.1951,2.2235,2.201,2.2129,2.2182,2.183,2.1966,2.2129,2.1753,0.0,0.0,0.0,0.0,0.0,0.0,2.117,2.0814,2.0878,1.9744,1.9495,2.081,1.9757,1.8924,1.8458,1.9173,1.9892,2.039,2.1166,2.1611,2.1692,2.1894,2.1775,2.1295,2.136,2.1384,2.1384,2.1449,2.153,2.166,2.1725,2.1806,2.1936,2.2001,2.2017,2.2017,2.2066,2.2286,2.2498,2.2498,2.3038,2.3731,1.8247,1.8179,1.8213,1.8674,1.8742,1.8694,1.8552,1.8796,1.8884,1.8565,1.8531,1.8423,1.8124,1.7948,1.7812,1.7663,1.7772,1.767,1.7229,1.7338,1.7216,0.0,0.0,1.6577,1.6871,1.7531,1.7876,1.7816,0.0,0.0,1.771,1.9303,2.0691,2.1964,2.3888,2.3454,2.148,2.2778,2.2176,2.036,2.0242,2.0166,2.0138,1.9949,1.996,1.9873,1.9873,2.0093,2.0027,1.8181,1.7729,1.8143,1.9457,1.8831,1.7673,1.8466,1.7969,1.7309,1.8151,1.9086,1.9806,1.9806,2.0526,2.1253,2.1253,2.1797,2.2364,2.2643,2.2492,2.2236,2.2029,2.2341,2.2525,2.1978,0.0,0.0,0.0,0.0,0.0,0.0,2.1291,2.0978,2.0547,1.9701,1.9503,2.0284,2.0074,2.0185,2.0733,2.0238,2.0262,2.1151,2.2383,0.0,2.1576,2.2511,2.2305,2.1132,2.1295,2.1384,2.1384,2.1579,2.166,2.166,2.1847,2.1936,2.1953,2.2123,2.2188,2.2212,2.2383,2.281,2.3386,2.3386,2.3731,2.4402,1.8158,1.8375,1.8565,1.8599,1.8694,1.8742,1.8694,1.8782,1.8762,1.8565,1.8443,1.8321,1.8111,1.8057,1.7948,1.7812,1.7758,1.7704,1.765,1.7507,1.7358,1.7216,1.6965,1.6852,1.7042,1.741,1.7578,1.7537,1.7499,1.7576,1.7838,1.9502,2.0929,2.2244,2.3458,2.3566,2.2691,2.2381,2.175,2.0846,2.0412,1.9491,1.8309,1.8211,1.7428,1.6369,1.6247,1.6392,1.6537,1.584,1.5744,1.5923,1.6288,1.6157,1.6046,1.6642,1.6719,1.6796,1.7751,1.8558,1.9197,1.9834,2.0299,2.0821,2.1316,2.202,2.2736,2.3093,2.3117,2.2997,2.2984,2.2954,2.2913,2.2845,2.2586,0.0,2.2113,0.0,0.0,0.0,2.0515,2.0405,2.1014,2.0145,1.9941,2.1123,2.046,2.0145,2.065,2.1035,2.1463,2.2076,2.2846,0.0,2.2643,2.2694,2.2412,2.1666,2.153,2.1449,2.1579,2.1766,2.1912,2.2026,2.2082,2.2188,2.2302,2.2359,2.2604,2.2965,2.3147,2.3509,2.4067,2.4067,2.4411,2.4985,1.8355,1.8518,1.864,1.8552,1.862,1.8654,1.8606,1.8694,1.8694,1.8477,1.8423,1.8321,1.8111,1.8091,1.8023,1.788,1.7772,1.7772,1.786,1.7629,1.748,1.7419,1.7134,1.7003,1.7206,1.7382,1.7494,1.7624,1.7772,1.8024,1.8287,1.996,2.1159,2.1971,2.2952,2.2831,2.1801,2.1429,2.0461,1.9097,1.8737,1.7713,1.653,1.6355,1.564,1.4726,1.4631,1.4719,1.4875,1.4841,1.4889,1.4964,1.4923,1.5031,1.5268,1.568,1.619,1.6717,1.7459,1.8198,1.8937,1.9766,2.0132,2.0631,2.1341,2.2101,2.2699,2.3062,2.3308,2.3308,2.313,2.3013,2.2864,2.2791,2.2318,2.1945,2.1798,0.0,0.0,0.0,0.0,2.0395,0.0,2.061,2.061,2.1969,2.1355,2.0978,2.1327,2.1437,2.1874,2.2627,2.3035,2.3156,2.3054,2.2729,2.2361,2.1889,2.1664,2.1555,2.166,2.1912,2.2082,2.2188,2.2253,2.2481,2.281,2.281,2.3147,2.3731,2.3731,2.4067,2.4632,2.4632,2.4967,2.5548,1.8728,1.864,1.8545,1.8511,1.8531,1.8477,1.8355,1.8565,1.864,1.8375,1.8443,1.8409,1.8124,1.8077,1.8023,1.788,1.7846,1.7846,1.786,1.7717,1.7582,1.7426,1.7161,1.7065,1.7253,1.755,1.7712,1.7943,1.8938,1.9314,1.913,2.0563,2.1192,2.1312,2.2403,2.1585,1.942,2.004,1.8634,1.6032,1.5782,1.5447,1.5077,1.4821,1.476,1.4767,1.4767,1.4774,1.4808,1.4964,1.5018,1.5038,1.5174,1.5215,1.5368,1.5682,1.6204,1.6797,1.7281,1.8123,1.9066,1.9616,2.0175,2.0677,2.138,2.1979,2.2373,2.2599,2.3004,2.3183,2.2736,2.2726,2.2526,2.1989,2.1739,2.1656,2.1565,2.1264,0.0,0.0,0.0,0.0,2.1312,2.1118,2.1441,2.2604,2.2543,2.2422,2.2673,2.1671,2.1605,2.2893,2.3056,2.3025,2.3012,2.2826,2.2379,2.1754,2.1746,2.1684,2.1684,2.2042,2.2212,2.2212,2.2498,2.2925,2.3386,2.3509,2.3846,2.4402,2.4402,2.4746,2.5214,2.5214,2.5663,2.6129,1.8443,1.8586,1.864,1.8409,1.8464,1.8511,1.8477,1.8552,1.8565,1.8498,1.8409,1.8301,1.8111,1.7989,1.7901,1.786,1.7758,1.7738,1.786,1.7717,1.7582,1.7426,1.7351,1.7277,1.726,1.7559,1.8031,1.8528,1.8886,1.9208,1.9525,2.0473,2.1221,2.1752,2.1607,2.1066,2.0283,1.9142,1.8155,1.723,1.6227,1.5859,1.5835,1.5197,1.4984,1.5079,1.5079,1.5153,1.5276,1.5432,1.5479,1.5486,1.552,1.5815,1.6067,1.6102,1.6459,1.7087,1.7692,1.8304,1.8972,1.9829,2.1063,2.2046,2.202,2.2427,2.2738,2.2617,2.2668,2.2749,2.2658,2.2515,2.2312,2.2212,2.2081,2.1777,2.1009,2.1096,2.1004,0.0,2.058,2.0938,2.1249,2.1767,2.2034,0.0,0.0,2.2215,2.2413,2.1877,2.2106,2.3221,2.3788,2.3933,2.3918,2.3657,2.2992,2.2134,2.1891,2.1871,2.1871,2.2237,2.2407,2.2407,2.3024,2.327,2.3394,2.3943,2.4411,2.4967,2.4967,2.5328,2.5891,2.5891,2.6006,2.6129,1.8531,1.8708,1.8796,1.8565,1.8586,1.862,1.8545,1.8531,1.8511,1.8443,1.8375,1.8267,1.8111,1.7948,1.786,1.786,1.7792,1.7772,1.786,1.7792,1.765,1.7433,1.7419,1.738,1.7462,1.788,1.8405,1.8972,1.9084,1.9372,1.9929,2.0572,2.1235,2.1827,2.1245,2.084,2.0372,1.9312,1.8382,1.7795,1.7132,1.6678,1.6252,1.5804,1.5513,1.5391,1.5391,1.5445,1.5527,1.5608,1.5732,1.5925,1.5925,1.6312,1.6787,1.7062,1.729,1.7539,1.812,1.8528,1.8912,1.9958,2.121,2.2135,2.2019,2.2368,2.2705,2.2596,2.2763,2.2856,2.2566,2.2467,2.2294,2.2109,2.1868,2.1678,2.1226,2.1065,2.0879,2.0837,2.0893,2.1057,2.1504,2.2106,2.2345,2.214,2.2231,2.2447,2.2838,2.2497,2.258,2.309,2.3347,2.3621,2.394,2.3725,2.3386,2.269,2.2753,2.2594,2.229,2.2971,2.3147,2.2925,2.3607,2.3952,2.4305,2.4535,2.509,2.5663,2.5663,2.5796,2.6129,2.6129,2.6129,2.6129,1.8796,1.8905,1.8952,1.8816,1.8762,1.8694,1.8552,1.8511,1.8464,1.8375,1.8335,1.8267,1.8145,1.7968,1.786,1.786,1.786,1.786,1.786,1.786,1.7738,1.7433,1.7419,1.7528,1.7686,1.8277,1.8862,1.9297,1.945,1.9652,2.0098,2.0568,2.1056,2.1552,2.1056,2.0577,2.0098,1.9592,1.8929,1.8175,1.8055,1.7477,1.663,1.6609,1.6215,1.5739,1.5856,1.5863,1.5773,1.589,1.6188,1.6569,1.6569,1.6964,1.7479,1.8102,1.8235,1.8319,1.8705,1.8898,1.9187,2.0045,2.111,2.1877,2.1849,2.2116,2.2392,2.2363,2.2744,2.2934,2.2459,2.2354,2.223,2.1944,2.1625,2.1471,2.1658,0.0,2.1004,2.163,2.1334,2.1319,2.1916,2.2264,2.2586,2.2831,2.2836,2.295,2.3399,2.2989,2.2834,2.2873,2.2732,2.3072,2.3606,2.3673,2.3647,2.329,2.355,2.3406,2.2999,2.391,2.4067,2.3607,2.419,2.4746,2.5205,2.5328,2.5663,2.6129,2.6129,2.6129,2.6129,2.6129,2.6129,2.6129,1.8938,1.8972,1.8993,1.8959,1.8742,1.8565,1.8531,1.8423,1.8389,1.8477,1.8389,1.8301,1.8287,1.8036,1.786,1.786,1.786,1.786,1.786,1.786,1.7738,1.7433,1.7419,1.7634,1.8211,1.9088,1.9509,1.9475,1.9371,1.9485,1.9805,1.9902,2.0201,2.0694,2.0201,1.9902,1.9796,1.9074,1.8809,1.8826,1.8198,1.794,1.7861,1.7329,1.6698,1.6326,1.694,1.6796,1.6531,1.7151,1.7393,1.7491,1.7491,1.7886,1.8288,1.841,1.8797,1.9077,1.9175,1.9863,2.0542,2.0631,2.1512,2.2255,2.2085,2.2143,2.2096,2.1925,2.1982,2.1982,2.1887,2.1887,2.1896,2.2076,2.203,2.1878,2.164,0.0,2.1819,2.1601,2.1811,2.2067,2.2519,2.2784,2.3077,2.3464,2.2848,2.2857,2.3655,2.2873,2.2635,2.3084,2.3493,2.4028,2.4679,2.4164,2.3965,2.4155,2.3834,2.3683,2.3867,2.4191,2.4288,2.4164,2.4746,2.509,2.5214,2.5786,2.6006,2.6129,2.6129,2.6129,2.6129,2.6129,2.6129,2.6006,1.9061,1.9169,1.9203,1.9115,1.8993,1.8816,1.8565,1.8552,1.8531,1.8423,1.8423,1.8409,1.8321,1.8124,1.7948,1.786,1.786,1.786,1.786,1.786,1.7738,1.7433,1.7742,1.8209,1.8968,1.9616,1.9898,1.9808,1.9532,1.9651,2.0063,2.0063,2.0359,2.0762,2.0363,2.0207,2.0198,1.9421,1.9199,1.9256,1.8882,1.8564,1.834,1.806,1.7674,1.7294,1.7654,1.7714,1.7528,1.7803,1.8134,1.8428,1.8428,1.873,1.9239,1.9239,1.9203,1.9281,1.937,2.019,2.0984,2.0984,2.1776,2.251,2.2302,2.2255,2.2227,2.2132,2.2208,2.2283,2.2283,2.2378,2.2409,2.2384,2.2409,2.2252,2.2053,2.2151,2.221,2.223,2.2336,2.2548,2.2841,2.3162,2.3427,2.3616,2.3069,2.3081,2.4149,2.3031,2.2742,2.3735,2.4055,2.4293,2.4613,2.4716,2.4818,2.4911,2.4918,2.4709,2.4469,2.5018,2.509,2.487,2.5452,2.5672,2.5672,2.6006,2.6129,2.6129,2.6129,2.6129,2.6129,2.6129,2.5891,2.5548,1.9203,1.9345,1.9413,1.9325,1.9217,1.904,1.8687,1.8654,1.8586,1.8389,1.8443,1.8443,1.8335,1.8179,1.8023,1.788,1.786,1.786,1.786,1.786,1.7738,1.7433,1.7995,1.869,1.9493,1.9879,2.0101,1.9854,1.9674,1.9722,1.9991,2.0091,2.0493,2.0994,2.0536,2.0494,2.0587,1.9839,1.9573,1.9565,1.9435,1.9179,1.8789,1.8923,1.8567,1.8179,1.8518,1.8462,1.8462,1.8564,1.8869,1.9167,1.9167,1.9479,1.9792,1.9792,1.9597,1.941,1.954,2.0384,2.1186,2.1186,2.1986,2.2737,2.2576,2.2538,2.2538,2.2538,2.2671,2.2784,2.2784,2.2907,2.3017,2.2911,0.0,2.2719,2.26,2.253,2.2546,2.2734,2.2788,2.286,2.3068,2.3417,2.3672,2.3776,2.325,2.3377,2.4613,2.3391,2.3228,2.4486,2.4393,2.4393,2.4606,2.5198,2.5534,2.5581,2.5751,2.5638,2.5204,2.5835,2.5796,2.5425,2.5891,2.6129,2.6129,2.6129,2.6129,2.6129,2.6129,2.6006,2.5891,2.5891,2.5548,2.4985,1.9379,1.9427,1.9468,1.961,1.9291,1.8993,1.8959,1.862,1.8389,1.8498,1.8409,1.8335,1.8321,1.8179,1.8023,1.788,1.786,1.786,1.786,1.786,1.7738,1.7433,1.8208,1.888,1.9493,1.9999,1.9911,1.9228,1.983,1.9734,1.9065,1.9565,2.0072,2.0579,2.0089,2.0089,2.0596,1.9979,1.9768,1.9768,1.9752,1.9752,1.9752,1.976,1.9354,1.8948,1.9479,1.9378,1.9065,1.9479,1.9691,1.9792,1.9792,1.9792,1.9792,1.9792,1.9768,1.9752,1.9768,2.0579,2.1379,2.1379,2.2186,2.2983,2.2973,2.2964,2.2964,2.2964,2.2983,2.2992,2.2992,2.3001,2.3121,2.3285,2.3159,2.3049,2.3325,2.3089,2.2981,2.3002,2.2954,2.3077,2.3294,2.3502,2.3795,2.4183,2.353,2.3728,2.5046,2.4114,2.4111,2.5366,2.491,2.4826,2.5366,2.5506,2.561,2.5808,2.5827,2.5931,2.5987,2.6129,2.6129,2.6006,2.6129,2.6129,2.6129,2.6129,2.6129,2.6129,2.6129,2.5786,2.5328,2.5328,2.487,2.4288,1.9522,1.9576,1.9556,1.9522,1.9379,1.9169,1.8884,1.8708,1.8552,1.8423,1.8355,1.8287,1.8199,1.8124,1.8023,1.788,1.786,1.786,1.786,1.786,1.806,1.8402,1.8712,1.9174,2.0007,2.0216,1.9975,1.9392,1.9911,1.9719,1.9135,1.9758,2.0262,2.0782,2.0274,2.0427,2.0934,2.0311,1.9963,1.9955,1.9833,1.9792,1.98,1.9914,1.9852,1.9758,1.9973,2.0014,1.9799,2.0014,2.0117,2.0117,2.0117,2.0117,2.0117,2.0117,2.0117,2.0117,2.0117,2.0858,2.159,2.159,2.2396,2.3172,2.3039,2.3011,2.3011,2.3011,2.3115,2.3209,2.3209,2.3313,2.3377,2.3317,2.3398,2.3359,2.3176,2.3311,2.3294,2.319,2.3446,2.3635,2.372,2.4031,2.4287,2.4447,2.4083,2.4229,2.5203,2.5078,2.5254,2.5704,2.5592,2.561,2.5704,2.5827,2.5931,2.6007,2.6007,2.6054,2.6129,2.6129,2.6129,2.6129,2.6129,2.6129,2.6129,2.6129,2.6129,2.6015,2.5672,2.5452,2.5205,2.4746,2.4288,2.3731,1.9624,1.9664,1.961,1.9468,1.9359,1.9169,1.8816,1.864,1.8498,1.8335,1.8321,1.8267,1.8111,1.8124,1.8077,1.788,1.786,1.786,1.786,1.786,1.8177,1.8833,1.8877,1.9242,2.0015,2.0007,1.9798,1.9172,1.9688,1.9624,1.8995,1.9831,2.0555,2.1182,2.0575,2.0737,2.1353,2.0509,2.015,2.0133,2.0011,1.9955,1.9971,2.0101,2.0141,2.015,2.0279,2.032,2.032,2.032,2.032,2.032,2.032,2.032,2.032,2.032,2.032,2.032,2.032,2.1061,2.1792,2.1792,2.2606,2.3389,2.3238,2.3209,2.3228,2.3294,2.337,2.3446,2.3521,2.3587,2.3587,2.3455,2.354,2.3531,2.3247,2.3455,2.3606,2.354,2.3786,2.3984,2.405,2.4372,2.4608,2.4674,2.4522,2.4586,2.5152,2.5658,2.5931,2.5931,2.6054,2.6054,2.5931,2.6054,2.6129,2.6129,2.6129,2.6129,2.6129,2.6129,2.6129,2.6129,2.6129,2.6129,2.6129,2.5891,2.5796,2.5786,2.5205,2.4746,2.4535,2.419,2.3607,2.3164,1.9664,1.9664,1.961,1.9447,1.9183,1.8938,1.8782,1.8375,1.8145,1.8301,1.8321,1.8267,1.8111,1.8233,1.8199,1.7901,1.786,1.786,1.786,1.786,1.806,1.8288,1.8664,1.9137,1.9493,1.9493,1.9172,1.8641,1.9172,1.9172,1.8641,1.979,2.0945,2.1985,2.0841,2.0945,2.1882,2.0841,2.032,2.032,2.032,2.032,2.032,2.032,2.032,2.032,2.032,2.032,2.032,2.032,2.032,2.032,2.032,2.032,2.032,2.032,2.032,2.032,2.032,2.1154,2.1977,2.1977,2.2806,2.3635,2.3635,2.3635,2.3701,2.3918,2.3786,2.371,2.3928,2.3786,2.3644,2.3644,2.3635,2.3635,2.3635,2.3635,2.372,2.3937,2.3965,2.4041,2.4249,2.4457,2.4674,2.4873,2.4716,2.4776,2.5187,2.5786,2.6129,2.6129,2.6129,2.6129,2.6129,2.6129,2.6129,2.6129,2.6129,2.6129,2.6129,2.6129,2.6129,2.6129,2.6129,2.6129,2.6015,2.5425,2.5205,2.509,2.4508,2.3943,2.3386,2.3386,2.3049,2.2472,1.9644,1.9576,1.9447,1.9291,1.9115,1.8938,1.8782,1.8477,1.8267,1.8321,1.8124,1.7989,1.7935,1.7968,1.7968,1.786,1.786,1.786,1.786,1.7772,1.7779,1.7799,1.8618,1.9205,1.9664,1.9966,1.9798,1.9276,1.9798,1.9798,1.9276,2.0424,2.143,2.2188,2.1453,2.1453,2.2188,2.1041,2.0442,2.032,2.032,2.032,2.032,2.032,2.032,2.032,2.032,2.032,2.032,2.032,2.032,2.032,2.032,2.032,2.032,2.032,2.032,2.032,2.032,2.0841,2.157,2.1873,2.2806,2.3569,2.3302,2.3235,2.329,2.3492,2.3483,2.3561,2.4164,2.4117,2.4069,2.4069,2.3956,2.3861,2.3861,2.3861,2.389,2.3956,2.422,2.4419,2.4485,2.4816,2.5062,2.5109,2.5273,2.561,2.5768,2.6006,2.6129,2.6129,2.6129,2.6129,2.6129,2.6129,2.6129,2.6129,2.6129,2.6129,2.6129,2.6129,2.6129,2.6129,2.6129,2.591,2.5425,2.5328,2.4985,2.4526,2.3943,2.3607,2.3386,2.2925,2.2703,2.2472,1.9644,1.959,1.9434,1.9169,1.904,1.8905,1.862,1.8389,1.8233,1.8233,1.8077,1.7935,1.786,1.7914,1.7935,1.786,1.786,1.786,1.786,1.7772,1.7738,1.7738,1.8676,1.927,1.9418,1.9954,1.9972,1.9586,1.9901,1.987,1.9493,2.0707,2.1637,2.2284,2.172,2.186,2.2381,2.1149,2.0531,2.0426,2.0426,2.0385,2.0328,2.0401,2.0385,2.032,2.032,2.032,2.032,2.032,2.032,2.032,2.032,2.032,2.032,2.032,2.032,2.032,2.032,2.0787,2.1368,2.1682,2.2413,2.3084,2.2864,2.2804,2.2972,2.317,2.325,2.3542,2.3945,2.4209,2.4258,2.4258,2.4164,2.4079,2.4079,2.4079,2.4117,2.4202,2.4428,2.4617,2.4693,2.5005,2.5279,2.543,2.5751,2.6007,2.6129,2.6129,2.6129,2.6129,2.6129,2.6129,2.6129,2.6129,2.6129,2.6129,2.6129,2.6129,2.6129,2.6129,2.6006,2.5786,2.5786,2.5452,2.487,2.465,2.4288,2.3828,2.327,2.3049,2.3049,2.2588,2.2472,2.2472,1.9644,1.9624,1.9488,1.9081,1.8993,1.883,1.8423,1.8213,1.8111,1.8111,1.8091,1.8023,1.788,1.7989,1.8023,1.788,1.7846,1.7846,1.786,1.7846,1.7846,1.786,1.882,1.9334,1.9193,1.98,2.0028,1.9864,1.9856,1.9777,1.9644,2.0944,2.1775,2.2337,2.1865,2.2049,2.2574,2.1241,2.0637,2.0726,2.0726,2.062,2.049,2.0661,2.0515,2.0369,2.0369,2.0361,2.0344,2.0328,2.032,2.032,2.032,2.032,2.032,2.032,2.032,2.032,2.0344,2.0781,2.1335,2.1369,2.18,2.2266,2.2432,2.2476,2.2529,2.273,2.3054,2.3411,2.3709,2.4019,2.4315,2.4315,2.4306,2.4296,2.4296,2.4296,2.4362,2.4561,2.4617,2.4712,2.4901,2.5128,2.543,2.5827,2.6025,2.6129,2.6129,2.6129,2.6129,2.6129,2.6129,2.6129,2.6129,2.6129,2.6129,2.6129,2.6129,2.6129,2.6129,2.6006,2.5672,2.5205,2.509,2.4746,2.4164,2.3607,2.3386,2.327,2.2711,2.2472,2.2472,2.2472,2.2472,2.2472,1.9576,1.9379,1.9135,1.9149,1.8972,1.8782,1.8674,1.8443,1.8267,1.8267,1.8057,1.7901,1.786,1.7901,1.7901,1.786,1.7758,1.7738,1.786,1.7758,1.7738,1.786,1.8928,1.955,1.9536,2.0247,2.0725,2.0684,2.0449,2.0433,2.0628,2.1166,2.1912,2.2732,2.213,2.2255,2.2785,2.1566,2.1144,2.1431,2.1431,2.1406,2.1372,2.1414,2.1193,2.0742,2.0742,2.0653,2.0515,2.0369,2.032,2.032,2.032,2.032,2.032,2.032,2.032,2.0353,2.0499,2.0669,2.0873,2.1053,2.1226,2.145,2.2031,2.2147,2.2198,2.2386,2.2495,2.2805,2.372,2.4018,2.4208,2.4641,2.4617,2.4513,2.4513,2.4513,2.4532,2.458,2.4873,2.508,2.5128,2.5477,2.5799,2.6054,2.6101,2.6129,2.6129,2.6129,2.6129,2.6129,2.6129,2.6129,2.6129,2.6129,2.6129,2.6129,2.6129,2.6129,2.6129,2.5663,2.5328,2.5205,2.4746,2.419,2.3607,2.3509,2.3164,2.2711,2.2588,2.2472,2.2472,2.2472,2.2472,2.2448,1.9359,1.9203,1.8993,1.8993,1.8972,1.8905,1.8687,1.8586,1.8477,1.8335,1.8111,1.7948,1.786,1.786,1.786,1.786,1.7792,1.7792,1.786,1.8019,1.8115,1.8302,1.9405,2.0065,2.0065,2.077,2.1067,2.0986,2.0897,2.0856,2.0963,2.1489,2.2126,2.2864,2.2409,2.2661,2.3313,2.2024,2.1823,2.2268,2.2268,2.2216,2.2139,2.1912,2.1573,2.1276,2.0963,2.0799,2.08,2.0822,2.087,2.0853,2.0762,2.0737,2.0649,2.053,2.045,2.0491,2.0669,2.0783,2.0897,2.1083,2.1189,2.1355,2.1682,2.19,2.2143,2.2236,2.2699,2.3255,2.3892,2.4228,2.4555,2.4882,2.4797,2.4731,2.4731,2.4731,2.4731,2.4731,2.5005,2.5279,2.5477,2.5704,2.5903,2.6101,2.6129,2.6129,2.6129,2.6129,2.6129,2.6129,2.6129,2.6129,2.6129,2.6129,2.6006,2.5672,2.5672,2.5672,2.5672,2.5081,2.4623,2.4288,2.4067,2.3492,2.2933,2.2933,2.281,2.2472,2.2472,2.2472,2.2472,2.2472,2.2407,2.2318,1.9128,1.9006,1.8864,1.8816,1.8959,1.8972,1.862,1.8654,1.864,1.8389,1.8233,1.8077,1.7948,1.8045,1.8163,1.8163,1.8143,1.824,1.824,1.8661,1.8868,1.8868,1.9955,2.0505,2.0505,2.1063,2.1319,2.1173,2.114,2.1067,2.1053,2.1682,2.2298,2.2908,2.2487,2.2874,2.3774,2.2535,2.2367,2.2908,2.3016,2.3018,2.2778,2.2298,2.2048,2.1689,2.116,2.0929,2.0979,2.1224,2.1378,2.1458,2.1297,2.1247,2.1176,2.0913,2.0743,2.0677,2.0856,2.101,2.1132,2.1165,2.1388,2.1502,2.1502,2.1932,2.2371,2.2379,2.3137,2.3892,2.401,2.4446,2.4773,2.4882,2.4882,2.4882,2.4882,2.492,2.4929,2.4929,2.5156,2.5458,2.5855,2.5874,2.595,2.6101,2.6129,2.6129,2.6129,2.6129,2.6129,2.6129,2.6129,2.6015,2.6006,2.6006,2.5663,2.5081,2.4985,2.4985,2.5081,2.4411,2.3828,2.3386,2.327,2.2933,2.2472,2.2472,2.2472,2.2472,2.2472,2.2472,2.2472,2.2424,2.2318,2.2188,1.8938,1.8687,1.8531,1.8905,1.8776,1.8654,1.8728,1.864,1.8552,1.8511,1.8375,1.8287,1.8267,1.8698,1.9043,1.9043,1.9364,1.9618,1.9618,1.9486,1.9515,1.9515,2.0183,2.0505,2.0505,2.1063,2.136,2.1343,2.1197,2.1189,2.1303,2.1558,2.2238,2.3084,2.2301,2.2435,2.3137,2.2555,2.2555,2.3093,2.3638,2.3838,2.3711,2.3193,2.2647,2.2185,2.153,2.1213,2.1059,2.0988,2.1243,2.1661,2.1635,2.1627,2.1635,2.1554,2.1243,2.0856,2.1043,2.1108,2.1165,2.1319,2.1798,2.2143,2.2143,2.2261,2.2379,2.2927,2.3128,2.3346,2.3892,2.4119,2.4337,2.4773,2.4882,2.4882,2.4882,2.5033,2.5156,2.5156,2.5506,2.5827,2.6054,2.6082,2.6101,2.6129,2.6129,2.6129,2.6129,2.6129,2.6129,2.6129,2.6129,2.5796,2.5328,2.5328,2.4967,2.4411,2.3943,2.3943,2.4411,2.3846,2.3509,2.3386,2.281,2.2588,2.2472,2.2472,2.2472,2.2472,2.2472,2.2472,2.2448,2.2294,2.2212,2.2147,1.8586,1.8511,1.8531,1.8816,1.8952,1.9006,1.8905,1.8905,1.8816,1.8565,1.8477,1.8409,1.8321,1.922,1.9906,2.0237,2.0724,2.1087,2.0874,2.1136,2.1277,2.1063,2.1705,2.1932,2.1932,2.2253,2.2143,2.1932,2.1521,2.1319,2.1384,2.1875,2.2427,2.3128,2.2722,2.2948,2.3574,2.3364,2.3346,2.3683,2.3892,2.401,2.3892,2.3018,2.2472,2.2253,2.1612,2.1343,2.1246,2.15,2.1864,2.2277,2.2271,2.2237,2.2156,2.1937,2.1433,2.1043,2.1222,2.1278,2.1388,2.1798,2.2143,2.2489,2.3128,2.3246,2.3364,2.3574,2.3892,2.4228,2.4446,2.4446,2.4555,2.4882,2.4882,2.4929,2.5062,2.5156,2.5279,2.5534,2.5704,2.5903,2.6101,2.6129,2.6129,2.6129,2.6129,2.6129,2.6129,2.6129,2.6129,2.6129,2.5786,2.5425,2.5205,2.487,2.4411,2.3846,2.3509,2.3509,2.3731,2.3147,2.2925,2.2925,2.2588,2.2472,2.2472,2.2472,2.2472,2.2472,2.2472,2.2407,2.2302,2.2212,2.2066,2.1871]},{"header":{"parameterUnit":"m.s-1","parameterCategory":1,"la1":30.6,"la2":28.766,"lo1":-90.7593,"lo2":-88.6598,"dy":0.0162,"dx":0.0183,"nx":116,"ny":114,"refTime":"2023-10-01T12:00:00:Z","depth":0,"parameterNumber":3,"parameterNumberName":"V-component_of_WINDS"},"data":[0.0,0.0,0.0,0.0,0.0,0.0,0.0,0.0,0.0,0.0,0.0,0.0,0.0,0.0,0.0,0.0,0.0,0.0,0.0,0.0,0.0,0.0,0.0,0.0,0.0,0.0,0.0,0.0,0.0,0.0,0.0,0.0,0.0,0.0,0.0,0.0,0.0,0.0,0.0,0.0,0.0,0.0,0.0,0.0,0.0,0.0,0.0,0.0,0.0,0.0,0.0,0.0,0.0,0.0,0.0,0.0,0.0,0.0,0.0,0.0,0.0,0.0,0.0,0.0,0.0,0.0,0.0,0.0,0.0,0.0,0.0,0.0,0.0,0.0,0.0,0.0,0.0,0.0,0.0,0.0,0.0,0.0,0.0,0.0,0.0,0.0,0.0,0.0,0.0,0.0,0.0,0.0,0.0,0.0,0.0,0.0,0.0,0.0,0.0,0.0,0.0,0.0,0.0,0.0,0.0,0.0,0.0,0.0,0.0,0.0,0.0,0.0,0.0,0.0,0.0,0.0,0.0,0.0,0.0,0.0,0.0,0.0,0.0,0.0,0.0,0.0,0.0,0.0,0.0,0.0,0.0,0.0,0.0,0.0,0.0,0.0,0.0,0.0,0.0,0.0,0.0,0.0,0.0,0.0,0.0,0.0,0.0,0.0,0.0,0.0,0.0,0.0,0.0,0.0,0.0,0.0,0.0,0.0,0.0,0.0,0.0,0.0,0.0,0.0,0.0,0.0,0.0,0.0,0.0,0.0,0.0,0.0,0.0,0.0,0.0,0.0,0.0,0.0,0.0,0.0,0.0,0.0,0.0,0.0,0.0,0.0,0.0,0.0,0.0,0.0,0.0,0.0,0.0,0.0,0.0,0.0,0.0,0.0,0.0,0.0,0.0,0.0,0.0,0.0,0.0,0.0,0.0,0.0,0.0,0.0,0.0,0.0,0.0,0.0,0.0,0.0,0.0,0.0,0.0,0.0,0.0,0.0,0.0,0.0,0.0,0.0,0.0,0.0,0.0,0.0,0.0,0.0,0.0,0.0,0.0,0.0,0.0,0.0,0.0,0.0,0.0,0.0,0.0,0.0,0.0,0.0,0.0,0.0,0.0,0.0,0.0,0.0,0.0,0.0,0.0,0.0,0.0,0.0,0.0,0.0,0.0,0.0,0.0,0.0,0.0,0.0,0.0,0.0,0.0,0.0,0.0,0.0,0.0,0.0,0.0,0.0,0.0,0.0,0.0,0.0,0.0,0.0,0.0,0.0,0.0,0.0,0.0,0.0,0.0,0.0,0.0,0.0,0.0,0.0,0.0,0.0,0.0,0.0,0.0,0.0,0.0,0.0,0.0,0.0,0.0,0.0,0.0,0.0,0.0,0.0,0.0,0.0,0.0,0.0,0.0,0.0,0.0,0.0,0.0,0.0,0.0,0.0,0.0,0.0,0.0,0.0,0.0,0.0,0.0,0.0,0.0,0.0,0.0,0.0,0.0,0.0,0.0,0.0,0.0,0.0,0.0,0.0,0.0,0.0,0.0,0.0,0.0,0.0,0.0,0.0,0.0,0.0,0.0,0.0,0.0,0.0,0.0,0.0,0.0,0.0,0.0,0.0,0.0,0.0,0.0,0.0,0.0,0.0,0.0,0.0,0.0,0.0,0.0,0.0,0.0,0.0,0.0,0.0,0.0,0.0,0.0,0.0,0.0,0.0,0.0,0.0,0.0,0.0,0.0,0.0,0.0,0.0,0.0,0.0,0.0,0.0,0.0,0.0,0.0,0.0,0.0,0.0,0.0,0.0,0.0,0.0,0.0,0.0,0.0,0.0,0.0,0.0,0.0,0.0,0.0,0.0,0.0,0.0,0.0,0.0,0.0,0.0,0.0,0.0,0.0,0.0,0.0,0.0,0.0,0.0,0.0,0.0,0.0,0.0,0.0,0.0,0.0,0.0,0.0,0.0,0.0,0.0,0.0,0.0,0.0,0.0,0.0,0.0,0.0,0.0,0.0,0.0,0.0,0.0,0.0,0.0,0.0,0.0,0.0,0.0,0.0,0.0,0.0,0.0,0.0,0.0,0.0,0.0,0.0,0.0,0.0,0.0,0.0,0.0,0.0,0.0,0.0,0.0,0.0,0.0,0.0,0.0,0.0,0.0,0.0,0.0,0.0,0.0,0.0,0.0,0.0,0.0,0.0,0.0,0.0,0.0,0.0,0.0,0.0,0.0,0.0,0.0,0.0,0.0,0.0,0.0,0.0,0.0,0.0,0.0,0.0,0.0,0.0,0.0,0.0,0.0,0.0,0.0,0.0,0.0,0.0,0.0,0.0,0.0,0.0,0.0,0.0,0.0,0.0,0.0,0.0,0.0,0.0,0.0,0.0,0.0,0.0,0.0,0.0,0.0,0.0,0.0,0.0,0.0,0.0,0.0,0.0,0.0,0.0,0.0,0.0,0.0,0.0,0.0,0.0,0.0,0.0,0.0,0.0,0.0,0.0,0.0,0.0,0.0,0.0,0.0,0.0,0.0,0.0,0.0,0.0,0.0,0.0,0.0,0.0,0.0,0.0,0.0,0.0,0.0,0.0,0.0,0.0,0.0,0.0,0.0,0.0,0.0,0.0,0.0,0.0,0.0,0.0,0.0,0.0,0.0,0.0,0.0,0.0,0.0,0.0,0.0,0.0,0.0,0.0,0.0,0.0,0.0,0.0,0.0,0.0,0.0,0.0,0.0,0.0,0.0,0.0,0.0,0.0,0.0,0.0,0.0,0.0,0.0,0.0,0.0,0.0,0.0,0.0,0.0,0.0,0.0,0.0,0.0,0.0,0.0,0.0,0.0,0.0,0.0,0.0,0.0,0.0,0.0,0.0,0.0,0.0,0.0,0.0,0.0,0.0,0.0,0.0,0.0,0.0,0.0,0.0,0.0,0.0,0.0,0.0,0.0,0.0,0.0,0.0,0.0,0.0,0.0,0.0,0.0,0.0,0.0,0.0,0.0,0.0,0.0,0.0,0.0,0.0,0.0,0.0,0.0,0.0,0.0,0.0,0.0,0.0,0.0,0.0,0.0,0.0,0.0,0.0,0.0,0.0,0.0,0.0,0.0,0.0,0.0,0.0,0.0,0.0,0.0,0.0,0.0,0.0,0.0,0.0,0.0,0.0,0.0,0.0,0.0,0.0,0.0,0.0,0.0,0.0,0.0,0.0,0.0,0.0,0.0,0.0,0.0,0.0,0.0,0.0,0.0,0.0,0.0,0.0,0.0,0.0,0.0,0.0,0.0,0.0,0.0,0.0,0.0,0.0,0.0,0.0,0.0,0.0,0.0,0.0,0.0,0.0,0.0,0.0,0.0,0.0,0.0,0.0,0.0,0.0,0.0,0.0,0.0,0.0,0.0,0.0,0.0,0.0,0.0,0.0,0.0,0.0,0.0,0.0,0.0,0.0,0.0,0.0,0.0,0.0,0.0,0.0,0.0,0.0,0.0,0.0,0.0,0.0,0.0,0.0,0.0,0.0,0.0,0.0,0.0,0.0,0.0,0.0,0.0,0.0,0.0,0.0,0.0,0.0,0.0,0.0,0.0,0.0,0.0,0.0,0.0,0.0,0.0,0.0,0.0,0.0,0.0,0.0,0.0,0.0,0.0,0.0,0.0,0.0,0.0,0.0,0.0,0.0,0.0,0.0,0.0,0.0,0.0,0.0,0.0,0.0,0.0,0.0,0.0,0.0,0.0,0.0,0.0,0.0,0.0,0.0,0.0,0.0,0.0,0.0,0.0,0.0,0.0,0.0,0.0,0.0,0.0,0.0,0.0,0.0,0.0,0.0,0.0,0.0,0.0,0.0,0.0,0.0,0.0,0.0,0.0,0.0,0.0,0.0,0.0,0.0,0.0,0.0,0.0,0.0,0.0,0.0,0.0,0.0,0.0,0.0,0.0,0.0,0.0,0.0,0.0,0.0,0.0,0.0,0.0,0.0,0.0,0.0,0.0,0.0,0.0,0.0,0.0,0.0,0.0,0.0,0.0,0.0,0.0,0.0,0.0,0.0,0.0,0.0,0.0,0.0,0.0,0.0,0.0,0.0,0.0,0.0,0.0,0.0,0.0,0.0,0.0,0.0,0.0,0.0,0.0,0.0,0.0,0.0,0.0,0.0,0.0,0.0,0.0,0.0,0.0,0.0,0.0,0.0,0.0,0.0,0.0,0.0,0.0,0.0,0.0,0.0,0.0,0.0,0.0,0.0,0.0,0.0,0.0,0.0,0.0,0.0,0.0,0.0,0.0,0.0,0.0,0.0,0.0,0.0,0.0,0.0,0.0,0.0,0.0,0.0,0.0,0.0,0.0,0.0,0.0,0.0,0.0,0.0,0.0,0.0,0.0,0.0,0.0,0.0,0.0,0.0,0.0,0.0,0.0,0.0,0.0,0.0,0.0,0.0,0.0,0.0,0.0,0.0,0.0,0.0,0.0,0.0,0.0,0.0,0.0,0.0,0.0,0.0,0.0,0.0,0.0,0.0,0.0,0.0,0.0,0.0,0.0,0.0,0.0,0.0,0.0,0.0,0.0,0.0,0.0,0.0,0.0,0.0,0.0,0.0,0.0,0.0,0.0,0.0,0.0,0.0,0.0,0.0,0.0,0.0,0.0,0.0,0.0,0.0,0.0,0.0,0.0,0.0,0.0,0.0,0.0,0.0,0.0,0.0,0.0,0.0,0.0,0.0,0.0,0.0,0.0,0.0,0.0,0.0,0.0,0.0,0.0,0.0,0.0,0.0,0.0,0.0,0.0,0.0,0.0,0.0,0.0,0.0,0.0,0.0,0.0,0.0,0.0,0.0,0.0,0.0,0.0,0.0,0.0,0.0,0.0,0.0,0.0,0.0,0.0,0.0,0.0,0.0,0.0,0.0,0.0,0.0,0.0,0.0,0.0,0.0,0.0,0.0,0.0,0.0,0.0,0.0,0.0,0.0,0.0,0.0,0.0,0.0,0.0,0.0,0.0,0.0,0.0,0.0,0.0,0.0,0.0,0.0,0.0,0.0,0.0,0.0,0.0,0.0,0.0,0.0,0.0,0.0,0.0,0.0,0.0,0.0,0.0,0.0,0.0,0.0,0.0,0.0,0.0,0.0,0.0,0.0,0.0,0.0,0.0,0.0,0.0,0.0,0.0,0.0,0.0,0.0,0.0,0.0,0.0,0.0,0.0,0.0,0.0,0.0,0.0,0.0,0.0,0.0,0.0,0.0,0.0,0.0,0.0,0.0,0.0,0.0,0.0,0.0,0.0,0.0,0.0,0.0,0.0,0.0,0.0,0.0,0.0,0.0,0.0,0.0,0.0,0.0,0.0,0.0,0.0,0.0,0.0,0.0,0.0,0.0,0.0,0.0,0.0,0.0,0.0,0.0,0.0,0.0,0.0,0.0,0.0,0.0,0.0,0.0,0.0,0.0,0.0,0.0,0.0,0.0,0.0,0.0,0.0,0.0,0.0,0.0,0.0,0.0,0.0,0.0,0.0,0.0,0.0,0.0,0.0,0.0,0.0,0.0,0.0,0.0,0.0,0.0,0.0,0.0,0.0,0.0,0.0,0.0,0.0,0.0,0.0,0.0,0.0,0.0,0.0,0.0,0.0,0.0,0.0,0.0,0.0,0.0,0.0,0.0,0.0,0.0,0.0,0.0,0.0,0.0,0.0,0.0,0.0,0.0,0.0,0.0,0.0,0.0,0.0,0.0,0.0,0.0,0.0,0.0,0.0,0.0,0.0,0.0,0.0,0.0,0.0,0.0,0.0,0.0,0.0,0.0,0.0,0.0,0.0,0.0,0.0,0.0,0.0,0.0,0.0,0.0,0.0,0.0,0.0,0.0,0.0,0.0,0.0,0.0,0.0,0.0,0.0,0.0,0.0,0.0,0.0,0.0,0.0,0.0,0.0,0.0,0.0,0.0,0.0,0.0,0.0,0.0,0.0,0.0,0.0,0.0,0.0,0.0,0.0,0.0,0.0,0.0,0.0,0.0,0.0,0.0,0.0,0.0,0.0,0.0,0.0,0.0,0.0,0.0,0.0,0.0,0.0,0.0,0.0,0.0,0.0,0.0,0.0,0.0,0.0,0.0,0.0,0.0,0.0,4.5506,4.4562,0.0,0.0,0.0,0.0,0.0,0.0,0.0,0.0,0.0,0.0,0.0,0.0,0.0,0.0,0.0,0.0,0.0,0.0,0.0,0.0,0.0,0.0,0.0,0.0,0.0,0.0,0.0,0.0,0.0,0.0,0.0,0.0,0.0,0.0,0.0,0.0,0.0,3.8836,3.9534,4.1212,4.3763,4.359,4.2931,4.1805,0.0,0.0,0.0,0.0,0.0,0.0,0.0,0.0,0.0,0.0,0.0,0.0,0.0,0.0,0.0,0.0,0.0,0.0,0.0,0.0,0.0,0.0,0.0,0.0,0.0,0.0,0.0,0.0,0.0,0.0,0.0,0.0,0.0,0.0,0.0,0.0,0.0,0.0,0.0,0.0,0.0,0.0,0.0,0.0,0.0,0.0,0.0,0.0,0.0,0.0,0.0,0.0,0.0,0.0,0.0,0.0,0.0,0.0,0.0,0.0,0.0,0.0,0.0,0.0,0.0,0.0,0.0,0.0,0.0,0.0,4.9841,4.8741,0.0,0.0,0.0,0.0,0.0,0.0,0.0,0.0,0.0,0.0,0.0,0.0,0.0,0.0,0.0,0.0,0.0,0.0,0.0,0.0,0.0,0.0,0.0,4.0837,4.1097,4.1231,4.1802,4.1862,4.1097,0.0,0.0,0.0,0.0,0.0,3.8121,3.796,3.8654,4.0232,4.1581,4.431,4.8232,4.8514,4.7055,4.4231,4.4272,0.0,0.0,0.0,0.0,0.0,0.0,0.0,0.0,0.0,0.0,0.0,0.0,0.0,0.0,0.0,0.0,0.0,0.0,0.0,0.0,0.0,0.0,0.0,0.0,0.0,0.0,0.0,0.0,0.0,0.0,0.0,0.0,0.0,0.0,0.0,0.0,0.0,0.0,0.0,0.0,0.0,0.0,0.0,0.0,0.0,0.0,0.0,0.0,0.0,0.0,0.0,0.0,0.0,0.0,0.0,0.0,0.0,0.0,0.0,0.0,0.0,0.0,0.0,5.6747,5.7294,5.6782,5.8208,5.8392,5.7534,5.5925,5.4773,5.3833,5.2309,0.0,0.0,0.0,0.0,0.0,0.0,0.0,0.0,0.0,0.0,0.0,0.0,0.0,0.0,0.0,0.0,0.0,0.0,0.0,3.9688,4.0925,4.1685,4.2368,4.2983,4.3152,4.2909,4.2132,0.0,0.0,0.0,0.0,3.9393,3.9026,4.021,4.1853,4.3902,4.753,4.997,5.1166,5.2437,5.2827,5.2203,4.8351,4.7192,4.7963,0.0,0.0,0.0,0.0,0.0,0.0,0.0,0.0,0.0,0.0,0.0,0.0,0.0,0.0,0.0,0.0,0.0,0.0,0.0,0.0,0.0,0.0,0.0,0.0,0.0,0.0,0.0,0.0,0.0,0.0,0.0,0.0,0.0,0.0,0.0,0.0,0.0,0.0,0.0,0.0,0.0,4.6812,4.7631,0.0,0.0,0.0,0.0,0.0,0.0,0.0,0.0,0.0,0.0,0.0,0.0,0.0,5.5758,5.726,6.0486,6.1529,6.0472,6.399,6.4529,6.2464,6.422,6.4247,6.2892,6.4024,0.0,5.6796,5.5364,0.0,0.0,0.0,0.0,0.0,0.0,0.0,0.0,0.0,0.0,0.0,0.0,0.0,0.0,0.0,0.0,0.0,0.0,0.0,0.0,0.0,4.3315,4.4569,4.5263,4.7225,4.7394,4.4993,4.4868,0.0,0.0,4.1069,4.1327,4.1606,4.1865,4.401,4.8078,5.2138,5.5037,5.6823,5.7456,5.7772,5.7664,5.4511,5.1906,4.9859,4.8947,0.0,0.0,0.0,0.0,0.0,0.0,0.0,0.0,0.0,0.0,0.0,0.0,0.0,0.0,0.0,0.0,0.0,0.0,0.0,0.0,0.0,0.0,0.0,0.0,0.0,0.0,0.0,0.0,0.0,0.0,0.0,0.0,0.0,0.0,0.0,0.0,0.0,0.0,0.0,4.5843,4.7943,4.8314,4.8398,4.7872,0.0,0.0,0.0,0.0,0.0,0.0,0.0,0.0,0.0,6.0101,6.1274,6.2782,6.4732,6.6735,6.7385,6.6869,6.854,6.899,6.8322,6.8702,6.8254,6.72,6.7465,6.6106,6.3448,6.0665,5.8239,5.6104,0.0,0.0,0.0,0.0,5.1231,5.1676,0.0,0.0,0.0,0.0,0.0,0.0,0.0,0.0,0.0,0.0,0.0,0.0,4.3231,4.536,4.7136,4.8229,5.0773,5.0975,4.7713,4.7619,4.6167,4.2807,4.2787,4.3176,4.3764,4.5111,4.8449,5.3949,5.7648,6.067,6.2964,6.3152,6.309,6.2715,6.0924,5.7385,5.2716,5.1797,4.9706,4.7041,0.0,0.0,0.0,0.0,0.0,0.0,0.0,0.0,0.0,0.0,0.0,0.0,0.0,0.0,0.0,0.0,0.0,0.0,0.0,0.0,0.0,0.0,0.0,0.0,0.0,0.0,0.0,0.0,0.0,0.0,0.0,0.0,0.0,0.0,0.0,0.0,0.0,4.8684,5.0429,5.0228,5.1741,5.1638,0.0,0.0,0.0,0.0,0.0,0.0,5.9467,6.0268,6.248,6.6419,6.7291,6.8677,7.0825,7.1375,7.1724,7.1835,7.1907,7.2084,7.2365,7.205,7.1338,7.0411,7.0011,6.962,6.8929,6.493,6.2193,6.0285,5.7883,5.6136,5.5089,5.5478,5.5244,5.503,0.0,0.0,0.0,0.0,0.0,0.0,0.0,0.0,0.0,0.0,0.0,4.4741,4.6132,4.7812,4.9822,5.2219,5.2526,5.1705,4.9569,4.8016,4.609,4.3715,4.419,4.4485,4.4525,5.1257,5.7291,6.2471,6.5292,6.7424,6.8881,6.951,6.9262,6.8166,6.7007,6.3299,5.7521,5.3238,5.1987,5.2488,4.8107,0.0,0.0,0.0,0.0,0.0,0.0,0.0,0.0,0.0,0.0,0.0,0.0,0.0,0.0,0.0,0.0,0.0,0.0,0.0,0.0,0.0,0.0,0.0,0.0,0.0,0.0,0.0,0.0,0.0,0.0,0.0,0.0,0.0,0.0,0.0,0.0,0.0,0.0,5.5227,5.7939,0.0,0.0,0.0,0.0,5.6551,5.8781,6.0791,6.2482,6.5134,6.7708,7.0159,7.0965,7.2129,7.3835,7.3902,7.3979,7.4133,7.4356,7.4038,7.318,7.4114,7.3663,7.2214,7.2959,7.2482,7.0812,6.6539,6.4729,6.4383,6.2029,6.0616,5.9847,5.9197,5.8927,5.8927,0.0,0.0,0.0,0.0,0.0,0.0,0.0,0.0,4.314,4.4054,4.4869,4.629,4.866,5.1451,5.3778,5.5383,5.6951,5.6644,5.3883,5.2379,5.0472,4.8099,4.7856,4.9086,5.1883,5.6359,6.0521,6.4443,6.7024,6.8944,7.0196,7.0576,7.0522,7.0131,6.926,6.7752,6.5447,6.0152,5.6015,5.2967,5.1831,4.9164,0.0,0.0,0.0,0.0,0.0,0.0,0.0,0.0,0.0,0.0,0.0,0.0,0.0,0.0,0.0,0.0,0.0,0.0,0.0,0.0,0.0,0.0,0.0,0.0,0.0,0.0,0.0,0.0,0.0,0.0,0.0,0.0,0.0,0.0,0.0,0.0,0.0,5.9787,6.2403,0.0,5.9817,5.9654,6.0366,6.1931,6.4033,6.6404,6.9002,7.0606,7.2518,7.4939,7.5262,7.5798,7.6584,7.6584,7.6503,7.6231,7.6333,7.6188,7.5828,7.5648,7.5004,7.3946,7.375,7.3025,7.1916,6.9843,6.8418,6.7332,6.5993,6.4662,6.339,6.2633,6.1998,6.1496,0.0,0.0,0.0,0.0,0.0,0.0,0.0,4.4181,4.4558,4.6254,4.7582,4.9452,5.2181,5.5484,5.7967,5.9047,6.0355,5.9977,5.7121,5.509,5.3015,5.0818,5.0843,5.3146,5.7871,6.0655,6.3833,6.7491,6.9403,7.1013,7.2248,7.2362,7.2397,7.2267,7.1671,7.1193,7.0568,6.6307,6.164,5.6953,5.5783,5.3038,4.9447,0.0,0.0,0.0,0.0,0.0,0.0,0.0,0.0,0.0,0.0,0.0,0.0,0.0,0.0,0.0,0.0,0.0,0.0,0.0,0.0,0.0,0.0,0.0,0.0,0.0,0.0,0.0,0.0,0.0,0.0,0.0,0.0,0.0,0.0,5.9642,6.3185,6.3538,6.6596,6.7367,6.4048,6.4703,6.577,6.6745,6.8589,7.0687,7.2979,7.4138,7.5442,7.7036,7.7176,7.7453,7.8005,7.7782,7.7719,7.7745,7.742,7.7273,7.7273,7.646,7.5772,7.5138,7.4125,7.3345,7.2733,7.2217,7.101,6.9463,6.8466,6.7467,6.6429,6.5469,6.4439,6.3333,0.0,0.0,0.0,0.0,0.0,0.0,4.5164,4.5865,4.6826,4.8179,5.1246,5.4242,5.6583,5.9802,6.221,6.3201,6.2503,6.1136,5.9022,5.5884,5.3317,5.1724,5.3155,5.6549,6.2021,6.435,6.7666,7.2106,7.2825,7.3919,7.5356,7.5356,7.5192,7.4896,7.4512,7.3744,7.2597,7.1273,6.8702,6.5016,5.9886,5.7423,5.6389,0.0,0.0,0.0,0.0,0.0,0.0,0.0,0.0,0.0,0.0,0.0,0.0,0.0,0.0,0.0,0.0,0.0,0.0,0.0,0.0,0.0,0.0,0.0,0.0,0.0,0.0,0.0,0.0,0.0,0.0,0.0,0.0,0.0,5.9515,6.4101,6.7306,6.6683,7.0707,7.2033,6.8173,6.9876,7.1172,7.0967,7.2273,7.3352,7.3957,7.5512,7.6345,7.6345,7.6548,7.7076,7.7964,7.7395,7.7589,7.8552,7.7745,7.7347,7.731,7.6533,7.6043,7.5696,7.4392,7.3665,7.3361,7.3361,7.2395,7.0759,6.9499,6.8953,6.875,6.763,6.6189,6.4487,0.0,0.0,0.0,0.0,0.0,0.0,4.6233,4.5929,4.65,4.9176,5.2302,5.5158,5.7542,6.1328,6.4009,6.4645,6.3644,6.2368,6.1069,5.7617,5.5976,5.666,5.8656,6.2248,6.7658,6.9141,7.1396,7.4492,7.498,7.5693,7.6443,7.664,7.7027,7.7492,7.7398,7.7135,7.6788,7.5884,7.4291,7.1801,6.6131,6.2003,5.8994,0.0,0.0,0.0,0.0,0.0,0.0,0.0,0.0,0.0,0.0,0.0,0.0,0.0,0.0,0.0,0.0,0.0,0.0,0.0,0.0,0.0,0.0,0.0,0.0,0.0,0.0,0.0,0.0,0.0,0.0,0.0,6.1419,6.4751,6.453,6.8302,7.1685,7.3215,7.508,7.5817,7.4682,7.4585,7.4568,7.4501,7.4754,7.5211,7.5948,7.7,7.7546,7.7546,7.7579,7.7527,7.7358,7.7202,7.7296,7.7671,7.8075,7.8259,7.8222,7.8374,7.8071,7.7422,7.686,7.5907,7.4758,7.4758,7.4121,7.2974,7.141,7.0069,6.8935,6.8025,6.7005,6.5924,0.0,0.0,0.0,0.0,0.0,0.0,4.6399,4.628,4.7214,5.0305,5.3638,5.6653,5.9103,6.2349,6.4324,6.4337,6.3352,6.2025,6.0411,5.8547,5.8428,6.0444,6.3053,6.6384,7.0554,7.1906,7.3618,7.5707,7.5648,7.6112,7.7103,7.6896,7.7257,7.8006,7.8006,7.8006,7.797,7.7506,7.6652,7.5149,7.1757,6.8029,6.4183,6.2231,6.004,5.7781,5.5837,5.5617,5.5816,5.3039,0.0,0.0,0.0,0.0,0.0,0.0,0.0,0.0,0.0,0.0,0.0,0.0,0.0,0.0,0.0,0.0,0.0,0.0,0.0,0.0,0.0,0.0,0.0,0.0,6.5496,6.8972,7.033,7.2532,7.4808,7.69,7.7561,7.8002,7.8332,7.7542,7.7003,7.6904,7.6778,7.6934,7.7312,7.8114,7.8642,7.8856,7.8739,7.8583,7.8443,7.8173,7.8049,7.8138,7.8911,7.9249,7.9277,7.9538,7.9359,7.8729,7.8003,7.7119,7.6097,7.572,7.5079,7.4114,0.0,0.0,0.0,0.0,6.826,6.7562,0.0,0.0,0.0,0.0,0.0,0.0,4.6104,4.6859,4.8397,5.1393,5.5044,5.8289,6.0667,6.2875,6.3914,6.3248,6.2368,6.0926,5.8735,5.9249,6.0859,6.3657,6.6693,6.9529,7.2036,7.365,7.5048,7.6302,7.5729,7.6123,7.752,7.666,7.6731,7.7589,7.7518,7.7482,7.7482,7.7482,7.6981,7.623,7.623,7.4042,7.0404,6.6989,6.5128,6.4069,6.1597,6.041,5.9745,5.8358,0.0,0.0,0.0,0.0,0.0,0.0,0.0,0.0,0.0,0.0,0.0,0.0,0.0,0.0,0.0,0.0,0.0,0.0,0.0,0.0,0.0,0.0,0.0,0.0,6.9588,7.2986,7.6029,7.6564,7.7157,7.8552,7.8809,7.914,7.9874,7.9286,7.8783,7.862,7.8578,7.8578,7.8524,7.9251,0.0,0.0,0.0,8.0039,8.0419,7.9828,7.9512,7.954,8.0189,8.0418,8.0343,8.0393,8.0208,7.9762,7.8534,7.7832,7.748,7.6683,7.5734,7.4594,7.2498,7.2137,7.2579,7.0705,6.9804,6.9349,0.0,0.0,0.0,0.0,0.0,0.0,4.6577,4.7169,4.8641,5.1779,5.5471,5.8465,6.0301,6.2969,6.4507,6.4314,6.2659,6.1446,6.097,6.1667,6.3819,6.7598,7.0234,7.2738,7.5207,7.682,7.7477,7.708,7.766,7.8062,7.8354,7.7482,7.7883,7.9304,7.8614,7.8358,7.8358,7.8358,7.7847,7.708,7.708,7.5523,7.3047,7.1694,7.0342,6.8922,6.7204,6.7653,6.8536,6.5076,6.4558,6.4714,6.1117,5.8139,0.0,0.0,0.0,0.0,0.0,0.0,0.0,0.0,0.0,0.0,0.0,0.0,0.0,0.0,0.0,0.0,0.0,0.0,0.0,6.9405,7.3241,7.6477,7.8405,7.9479,7.9947,7.958,8.0131,8.0608,8.0755,8.0645,8.0502,8.0502,8.0265,8.0451,8.1052,8.1699,8.2104,8.2174,8.2131,8.1794,8.1215,8.1091,8.0978,8.1016,8.1832,0.0,8.1169,8.1623,8.1377,8.0656,8.0154,7.9572,7.8923,7.8732,7.734,7.5165,7.3415,7.2808,7.2808,7.1752,7.1286,7.1123,0.0,0.0,0.0,0.0,0.0,0.0,4.6317,4.7187,4.8736,5.1109,5.4291,5.6945,5.8621,5.9908,6.0808,6.1218,6.0129,6.049,6.2962,6.4069,6.6659,7.1101,7.3634,7.5469,7.668,7.7965,7.8405,7.7965,7.7965,7.8185,7.8589,7.7708,7.7898,7.8928,7.8522,7.8512,7.8759,7.8759,7.8499,7.809,7.809,7.7419,7.6252,7.4944,7.3505,7.2117,7.1331,7.1516,7.1702,6.9346,6.8677,6.8385,6.5558,6.2745,5.9923,0.0,0.0,0.0,0.0,0.0,0.0,0.0,0.0,0.0,0.0,0.0,0.0,0.0,0.0,6.3003,6.5024,0.0,7.0604,7.4113,7.6545,7.8809,8.1275,8.2109,8.2201,8.1531,8.2136,8.2924,8.3626,8.3693,8.3693,8.3693,8.3601,8.3695,8.4106,8.4417,8.468,8.4958,8.4292,8.3652,8.3095,8.2241,8.1826,8.1788,8.2097,8.221,8.2194,8.207,8.1735,8.1337,8.0774,8.0312,7.991,7.9524,7.8181,7.6229,7.5808,7.4588,7.2948,7.2051,7.1778,7.1749,0.0,0.0,0.0,0.0,0.0,0.0,4.5919,4.708,4.8591,5.0391,5.2841,5.5076,5.6928,5.6743,5.6737,5.7378,5.7694,5.9913,6.4688,6.6568,6.9653,7.4523,7.6736,7.785,7.785,7.8728,7.8987,7.8662,7.8108,7.8219,7.8883,7.7998,7.7928,7.8478,7.8329,7.8521,7.8891,7.8891,7.8891,7.8891,7.8891,7.8816,7.8516,7.7045,7.5814,7.4844,7.4485,7.376,7.2778,7.2303,7.1346,7.018,6.9026,6.7107,6.4633,6.0953,6.0033,0.0,0.0,0.0,0.0,0.0,0.0,0.0,0.0,6.0433,6.2093,6.4405,6.633,6.8432,7.1145,7.2944,7.5243,7.8811,7.9917,8.1268,8.3941,8.4628,8.4669,8.4199,8.4468,8.5105,8.6063,8.6154,8.6154,8.6154,8.6234,8.6388,8.6538,8.668,8.6908,8.7353,8.6101,8.5345,8.5196,8.3481,8.2608,8.2592,8.2222,8.2302,8.276,8.2091,8.1709,8.1537,8.0902,8.065,8.0573,7.9663,7.847,7.7281,7.7495,7.5967,7.3559,7.2837,7.2409,7.2126,0.0,0.0,0.0,0.0,0.0,0.0,0.0,0.0,4.8183,5.0477,5.2241,5.4227,5.6648,5.6425,5.595,5.5708,5.8372,6.1858,6.6116,6.9303,7.3218,7.8204,7.9341,7.9903,7.9903,8.0664,8.0364,7.8866,7.9477,7.9852,7.9926,7.9128,7.9153,7.9854,7.9129,7.8841,7.8891,7.8891,7.8891,7.8891,7.8891,7.8478,7.7791,7.7617,7.7852,7.8162,7.6654,7.5085,7.3839,7.4561,7.3202,7.1355,7.1963,7.1021,6.8935,6.493,6.2259,5.9754,5.5665,5.495,5.6397,6.08,6.1873,6.346,0.0,7.0411,7.0152,7.1591,7.3781,7.5539,7.5921,7.8597,8.1099,8.232,8.4046,8.5361,8.5702,8.7196,8.8157,8.7914,8.6854,8.5923,8.5301,8.5263,8.5263,8.5263,8.5738,8.6346,8.7089,8.7595,8.7947,8.801,8.7107,8.6611,8.6576,8.4897,8.4077,8.4077,8.3238,8.2531,8.192,8.1899,8.1476,8.0749,8.0779,8.0775,8.066,7.9067,7.83,7.7955,7.5769,7.5187,7.5541,7.5325,7.435,7.3062,0.0,0.0,0.0,0.0,0.0,0.0,0.0,0.0,4.7825,4.9271,5.0787,5.2314,5.3782,5.451,5.4614,5.394,5.7203,6.1464,6.6539,6.9821,7.3957,7.9441,8.0944,8.1432,8.0906,8.1733,8.1357,7.9667,7.998,7.9905,7.9417,7.9041,7.9249,7.9848,7.9509,7.9538,7.9815,7.9815,7.9815,7.9777,7.9343,7.8639,7.7745,7.6797,7.6,7.5294,7.4004,7.2762,0.0,7.1051,7.0451,7.0128,7.0931,6.9753,6.7722,6.588,6.3895,6.2019,6.063,6.066,6.1669,6.3838,6.6131,6.8739,7.2198,7.2952,7.3738,7.6744,7.8175,7.9207,8.02,8.1538,8.2913,8.425,8.5159,8.6235,8.7721,8.819,8.8524,8.8918,8.8486,8.8228,8.8342,8.8311,8.8326,8.838,8.8569,8.8825,8.9168,8.9418,8.9561,8.9561,8.8721,8.8033,8.7575,8.5914,8.4844,8.4347,8.3064,8.2278,8.1895,8.1472,8.1065,8.0788,8.0954,8.0805,8.04,8.0306,7.9983,7.948,7.8912,7.8614,7.8165,7.5361,7.4228,7.4004,0.0,0.0,0.0,0.0,0.0,0.0,0.0,0.0,0.0,0.0,4.9176,5.0181,5.1091,5.2585,5.3387,5.2976,5.6049,6.0478,6.6315,6.9511,7.3846,7.9697,8.1321,8.1887,8.1533,8.2114,8.1736,8.0264,8.0264,7.9962,7.9358,7.9358,7.9538,7.9937,7.9937,8.0139,8.0506,8.0506,8.0506,8.043,7.9627,7.8481,7.7144,7.5462,7.334,7.1264,7.099,6.9881,6.8389,6.7181,6.703,6.7501,6.8254,6.7575,6.637,6.5769,6.422,6.2921,6.3932,6.4838,6.5809,6.7148,7.0304,7.3437,7.4775,7.573,7.7296,8.0812,8.1347,8.169,8.3372,8.3677,8.425,8.5932,8.639,8.7192,8.9027,8.9027,8.8856,8.8991,8.9301,8.9744,9.0378,9.0373,9.0311,9.0314,9.0291,9.0364,9.0593,9.0593,9.0593,9.0593,8.9773,8.8953,8.815,8.6547,8.5339,8.4527,8.3137,8.2545,8.2509,8.1732,8.1392,8.1441,8.1388,8.1035,8.0589,8.1136,8.096,8.0425,8.0853,8.062,7.9611,7.6183,7.4988,7.5039,0.0,0.0,0.0,0.0,0.0,0.0,0.0,0.0,0.0,0.0,0.0,4.7986,4.9504,5.1161,5.2467,5.321,5.5465,5.9357,6.5266,6.8663,7.3098,7.9074,8.0125,8.0965,8.1767,8.1805,8.1385,8.0468,8.0468,8.0468,8.043,8.043,8.0468,8.0487,8.0487,8.0506,8.0506,8.0506,8.0506,8.043,7.9627,7.7811,7.5403,7.3705,7.0544,6.7187,6.8778,6.7271,6.4456,6.4436,6.3848,6.3346,6.4207,6.5518,6.6483,6.49,6.2667,6.1236,6.3632,6.4867,6.6689,7.1543,7.466,7.7182,7.9704,8.0964,8.2073,8.383,8.3486,8.3448,8.5129,8.5435,8.6008,8.7727,8.8683,8.9218,8.9294,9.002,8.9926,8.8441,8.8997,8.9573,8.9819,8.965,8.9493,8.9332,8.9332,8.9714,9.0555,9.0593,9.0593,9.0593,8.9893,8.9073,8.8212,8.6603,8.551,8.4865,8.3992,8.3695,8.3901,8.3102,8.2766,8.2815,8.2038,8.1689,8.1572,8.0766,8.0425,8.0309,7.9502,7.9152,7.9113,7.8988,7.7777,7.615,0.0,0.0,0.0,0.0,0.0,0.0,0.0,0.0,0.0,0.0,0.0,0.0,0.0,0.0,0.0,0.0,5.4766,5.7999,6.2227,6.6138,7.0219,7.4427,7.7593,7.9646,8.0507,8.1638,8.2038,8.1747,8.1747,8.1477,8.0977,8.0977,8.0882,8.0716,8.0716,8.0611,8.0468,7.9933,8.0009,8.0238,7.7144,7.5386,7.4201,7.0353,6.698,6.4154,0.0,6.2017,6.0866,5.9779,5.9587,5.9945,6.0725,6.1006,6.0929,6.038,6.199,6.4238,6.5585,6.8197,7.1456,7.5365,7.7793,8.0047,8.3104,8.3639,8.3754,8.4862,8.3601,8.2263,8.2224,8.2318,8.3102,8.5303,8.6892,8.8576,9.0652,9.0373,8.9706,8.9011,8.9493,8.9667,8.8983,8.9285,8.9744,9.03,9.0256,9.0373,9.0838,9.0857,9.1216,9.2013,9.1275,9.0689,9.0381,8.8779,8.7306,8.5986,8.4045,8.318,8.3252,8.2446,8.2077,8.2096,8.1945,8.1912,8.1888,8.1744,8.166,8.1621,8.1348,8.1236,8.1158,8.0573,7.9877,7.9073,0.0,0.0,0.0,0.0,0.0,0.0,0.0,0.0,0.0,0.0,0.0,0.0,0.0,0.0,0.0,0.0,0.0,5.6063,5.9431,6.2443,6.5732,6.937,7.2443,7.4629,7.5799,7.688,7.7728,7.8318,7.8318,7.837,7.8447,7.8756,7.884,7.8692,7.8962,7.9012,7.8777,7.7934,7.7691,7.7487,7.3892,7.1904,7.0659,6.6551,6.3469,0.0,5.9177,5.8304,5.7905,5.6829,5.7048,5.7831,5.8318,5.8537,5.8844,6.0022,6.2847,6.6246,6.9146,7.2138,7.5204,7.8537,8.085,8.2798,8.4632,8.49,8.4785,8.5015,8.2875,8.0828,8.0272,7.9999,8.0437,8.2318,8.4364,8.6624,8.9261,8.9382,8.9356,8.9552,8.9963,9.0059,8.9716,8.9767,9.0189,9.1048,9.0965,9.1018,9.1159,9.1175,9.1539,9.2296,9.1848,9.1424,9.1101,9.014,8.8844,8.7214,8.5712,8.4816,8.4465,8.3329,8.2628,8.2323,8.2179,8.1938,8.167,8.2117,8.2293,8.2332,8.2606,8.2723,8.2684,8.2456,8.2081,8.1514,0.0,0.0,0.0,0.0,0.0,0.0,0.0,0.0,0.0,0.0,0.0,0.0,0.0,0.0,0.0,0.0,0.0,0.0,5.6919,5.7876,6.0103,6.4096,6.5216,6.6527,6.8226,6.8381,6.9262,7.0914,7.0914,7.1724,7.3279,7.4141,7.4527,7.4513,7.5375,7.5614,7.5357,7.4474,7.3568,7.2554,7.0018,6.7546,6.515,6.2577,6.0201,5.8073,5.719,5.6379,5.578,5.578,5.6401,5.7175,5.733,5.8534,6.0589,6.3667,6.5356,6.761,7.3926,7.6365,7.7917,8.1135,8.3754,8.5302,8.4537,8.492,8.5187,8.4251,8.1441,7.9106,7.9024,7.8407,7.8271,7.9288,8.1663,8.4018,8.5819,8.7671,8.9192,9.0137,9.0469,9.0962,9.1811,9.1059,9.0882,9.1579,9.1541,9.1515,9.1541,9.1541,9.1592,9.1694,9.1773,9.1459,9.0707,9.0701,8.9951,8.8553,8.8661,8.8227,8.7326,8.5651,8.4362,8.3465,8.2684,8.1864,8.1122,8.1942,8.2332,8.245,8.3191,8.3543,8.3663,8.4497,8.4307,8.3287,0.0,0.0,0.0,0.0,0.0,0.0,0.0,0.0,0.0,0.0,0.0,0.0,0.0,0.0,0.0,0.0,0.0,0.0,5.3787,5.5818,5.7458,5.847,6.1797,6.4085,6.5206,6.7072,6.8582,6.9655,6.9655,6.9888,7.0316,7.051,7.0563,7.0409,7.0641,7.0591,7.0317,6.9399,6.918,6.9229,6.5967,6.467,6.4211,6.0508,5.8741,5.7997,5.6544,5.6269,5.6676,5.6676,5.8539,6.0987,6.1736,6.4018,6.6432,6.6518,6.9912,7.3948,7.5533,7.8883,8.2316,8.3826,8.501,8.5755,8.5545,8.5143,8.4069,8.1371,7.8821,7.6315,7.3825,7.4807,7.6903,7.9555,8.3331,8.7087,9.0503,9.1592,9.2067,9.2109,9.2975,9.3423,9.2968,9.2869,9.2976,9.3198,9.2133,9.1605,9.18,9.1811,9.2529,9.4059,9.3508,9.3741,9.4855,9.2981,9.153,9.0539,8.931,8.8227,8.7368,8.6275,8.4948,8.3504,8.3269,8.2723,8.1981,8.2215,8.2645,8.3191,8.3426,8.3903,8.4497,8.4736,8.4704,8.4399,0.0,0.0,0.0,0.0,0.0,0.0,0.0,0.0,0.0,0.0,0.0,0.0,0.0,0.0,0.0,0.0,0.0,0.0,0.0,5.3405,5.4362,5.4747,5.7049,5.8741,5.9594,6.1387,6.2737,6.3569,6.3959,6.4543,6.5244,6.5634,6.595,6.6238,6.662,6.6664,6.6358,6.5461,6.5111,0.0,0.0,6.1175,6.0944,5.8288,5.7284,5.7168,5.62,5.7184,5.9136,6.0644,6.2443,6.4348,6.635,6.8344,7.0191,7.1834,7.4461,7.7228,7.8976,8.1779,8.4392,8.4894,8.5529,8.5683,8.4165,8.3479,8.1981,7.7857,7.5731,7.3672,7.0728,7.2655,7.5399,7.7632,8.1971,8.6358,9.0125,9.183,9.3114,9.4125,9.4957,9.5394,9.5186,9.4646,9.4139,9.3759,9.2643,9.1995,9.2176,9.2145,9.2845,9.4373,9.3961,9.4417,9.5824,9.4353,9.3029,9.1819,9.0843,8.9516,8.7954,8.7056,8.5495,8.3504,8.3504,8.284,8.1786,8.2528,8.3074,8.3582,8.4333,8.4927,8.5403,8.5802,8.5731,8.5384,0.0,0.0,0.0,0.0,0.0,0.0,0.0,0.0,0.0,0.0,0.0,0.0,0.0,0.0,0.0,0.0,0.0,0.0,0.0,0.0,5.1671,5.2497,5.2585,5.298,5.3718,5.458,5.5383,5.6082,5.6823,5.7953,5.9391,6.0165,6.0984,6.1846,6.2581,6.2886,6.2802,6.2018,6.1179,6.0259,5.8854,5.7814,5.7046,0.0,5.6097,5.6136,5.6369,5.8487,6.1771,6.5839,6.7262,6.7877,7.1095,7.244,7.3717,7.8,7.894,7.939,8.3127,8.4853,8.5601,8.5498,8.59,8.5436,8.189,8.0892,7.9266,7.4266,7.2589,7.1317,6.9126,7.1326,7.4023,7.5719,7.9869,8.4261,8.8128,9.0875,9.338,9.5856,9.6396,9.6865,9.7533,9.6144,9.4885,9.41,9.3188,9.2611,9.2524,9.2485,9.2944,9.3861,9.4159,9.4688,9.5449,9.5332,9.4512,9.299,9.2795,9.1467,8.9164,8.8188,8.6392,8.4011,8.3777,8.2762,8.1435,8.2918,8.3585,8.3822,8.5476,8.6184,8.6346,8.7102,8.695,8.6364,0.0,0.0,0.0,0.0,0.0,0.0,0.0,0.0,0.0,0.0,4.8996,4.9214,0.0,0.0,0.0,0.0,0.0,0.0,0.0,0.0,0.0,5.1639,5.2285,5.2737,5.2893,5.375,5.4294,5.4406,5.4562,5.4794,5.5067,5.5223,5.577,5.6592,5.6745,5.7208,5.7821,5.7524,5.725,5.7074,5.6711,5.6434,5.6278,5.613,0.0,0.0,5.7729,5.9165,6.1466,6.8462,7.1661,7.3221,7.5952,7.8777,8.1213,8.2029,8.3197,8.4591,8.5949,8.7564,8.8652,8.8031,8.731,8.5622,8.1495,7.8931,7.619,7.1785,7.0323,6.9504,6.8422,6.9877,7.3154,7.9053,8.1902,8.5565,9.1891,9.3817,9.5035,9.6206,9.6999,9.7515,9.7671,9.6769,9.6102,9.5945,9.4466,9.3244,9.2539,9.25,9.3208,9.4827,9.6254,9.7085,9.7245,9.6542,9.6035,9.5723,9.4278,9.2951,9.178,9.0257,8.8501,8.6627,8.5182,8.4011,8.3074,8.3386,8.3903,8.4695,8.5713,8.6546,8.7181,8.7339,8.7342,8.7187,0.0,0.0,0.0,0.0,0.0,0.0,0.0,4.7618,4.9099,5.171,5.132,5.0903,5.1242,5.0894,5.0982,0.0,0.0,0.0,0.0,0.0,0.0,5.0741,5.1546,5.2038,5.2038,5.2897,5.3093,5.2663,0.0,5.3327,5.3327,5.3327,5.4029,5.5281,5.481,5.5357,5.6565,5.5993,5.6059,5.6446,5.6406,5.6351,5.6351,5.6351,0.0,0.0,5.8299,5.981,6.1825,6.7273,7.1405,7.5002,7.936,8.1882,8.3275,8.3701,8.508,8.6552,8.695,8.8336,8.9621,8.9274,8.7429,8.4571,8.028,7.7338,7.4177,6.944,6.8581,6.8414,6.7573,6.9215,7.2221,7.6867,7.9795,8.3777,9.0257,9.2287,9.4278,9.7362,9.7714,9.8065,9.8963,9.7838,9.6904,9.6425,9.5222,9.4087,9.3236,9.3626,9.4255,9.5083,9.6773,9.7714,9.7714,9.7284,9.6855,9.6386,9.5098,9.3771,9.2443,9.1233,8.9477,8.7329,8.6041,8.448,8.2957,8.3825,8.4185,8.4348,8.6116,8.7022,8.7418,8.742,8.7461,8.7422,0.0,0.0,0.0,0.0,0.0,0.0,0.0,4.8514,5.0346,5.397,5.3541,5.2762,5.245,5.1281,5.0813,0.0,0.0,0.0,0.0,0.0,0.0,0.0,0.0,0.0,5.1414,0.0,0.0,5.1414,5.2078,0.0,0.0,0.0,0.0,0.0,5.4029,5.4576,5.602,5.5513,5.5708,0.0,0.0,5.6606,5.6606,0.0,0.0,0.0,0.0,5.9961,6.1754,6.5663,6.9713,7.4,7.9461,8.2005,8.3234,8.428,8.5962,8.7566,8.793,8.93,9.0554,9.0216,8.7403,8.361,7.9314,7.6064,7.2612,6.7771,6.7342,6.7654,6.7185,6.8591,7.0933,7.4251,7.7065,8.1164,8.7759,9.0183,9.3072,9.787,9.7987,9.8143,9.9353,9.8391,9.7259,9.6191,9.531,9.4454,9.3576,9.4512,9.5098,9.5098,9.6777,9.7714,9.7714,9.7714,9.7362,9.666,9.5606,9.4395,9.3029,9.1822,9.0065,8.7879,8.6636,8.4762,8.269,8.419,8.4351,8.3845,8.6399,8.7418,8.742,8.7461,8.75,8.75,0.0,0.0,0.0,0.0,0.0,0.0,0.0,4.9372,5.1437,5.5688,5.4827,5.4359,5.5844,5.3814,5.2372,0.0,0.0,0.0,0.0,0.0,0.0,0.0,0.0,0.0,0.0,0.0,0.0,5.1414,5.1492,0.0,0.0,0.0,0.0,0.0,0.0,5.3366,5.4303,5.5005,0.0,0.0,0.0,0.0,0.0,0.0,0.0,0.0,0.0,5.918,6.0234,6.6009,6.8273,6.9327,7.3033,7.7853,8.2442,8.4117,8.6384,8.8742,9.0323,9.2017,9.3002,9.1527,8.7947,8.3653,7.9362,7.5185,7.1206,6.7537,6.6873,6.7146,6.7849,6.7537,6.902,7.4762,7.5941,7.9106,8.7528,9.0192,9.2616,9.6191,9.7284,9.744,9.6816,9.7323,9.7015,9.5332,9.4412,9.3553,9.2681,9.42,9.5098,9.5098,9.6777,9.7714,9.7714,9.7714,9.7675,9.7558,9.5879,9.502,9.4786,9.2382,9.0747,8.9615,8.7167,8.5097,8.3565,8.4513,8.436,8.3854,8.6401,8.7459,8.75,8.75,8.75,8.75,0.0,0.0,0.0,0.0,0.0,0.0,4.7696,4.8748,5.1008,5.5883,5.4983,5.4554,5.6312,5.4632,5.3163,5.2653,0.0,0.0,0.0,0.0,0.0,0.0,0.0,0.0,0.0,0.0,5.1648,5.2195,5.1648,0.0,0.0,0.0,0.0,0.0,0.0,5.2702,5.399,5.3795,0.0,0.0,0.0,0.0,0.0,0.0,0.0,0.0,0.0,0.0,5.961,6.3084,6.5273,6.6756,6.7615,7.1263,7.5838,7.9119,8.302,8.6775,8.9056,9.1288,9.2932,9.283,8.8383,8.3152,7.9912,7.5038,7.0397,6.7392,6.6811,6.7129,6.7947,6.7401,6.8144,7.2088,7.2715,7.5369,8.3011,8.5551,8.8711,9.4161,9.5147,9.5619,9.6322,9.6261,9.5684,9.4476,9.4042,9.3493,9.2629,9.3673,9.4328,9.4317,9.5996,9.6933,9.6933,9.744,9.7448,9.6908,9.5661,9.4844,9.4345,9.279,9.1308,8.9902,8.8344,8.5805,8.2912,8.4327,8.4095,8.3081,8.5663,8.6992,8.75,8.75,8.7461,8.7459,0.0,0.0,0.0,0.0,0.0,4.5946,4.793,4.8748,5.0813,5.5489,5.5061,5.4866,5.6351,5.5178,5.3923,5.3047,5.2544,0.0,0.0,0.0,0.0,0.0,0.0,0.0,0.0,0.0,5.1843,5.2704,5.2078,5.2117,0.0,0.0,5.196,5.2273,0.0,0.0,0.0,0.0,0.0,0.0,0.0,0.0,0.0,0.0,0.0,0.0,0.0,0.0,0.0,0.0,0.0,6.4673,6.4089,6.6153,6.9735,7.4567,7.9639,8.4245,8.6822,8.9594,9.19,9.2499,8.7849,8.2461,7.9894,7.4861,6.998,6.7363,6.686,6.706,6.7646,6.749,6.7919,6.9989,7.1162,7.378,7.9405,8.2101,8.5693,9.154,9.2679,9.3616,9.5129,9.4754,9.4293,9.3943,9.3668,9.3237,9.2613,9.3153,9.3571,9.3826,9.5268,9.601,9.601,9.6638,9.6602,9.6027,9.5168,9.428,9.3434,9.2843,9.1479,8.953,8.8941,8.6555,8.3195,8.4685,8.4412,8.3318,8.5664,8.6953,8.7461,8.7461,8.7459,8.7415,0.0,0.0,0.0,0.0,0.0,0.0,4.9605,4.9995,5.1242,5.4745,5.5212,5.5528,5.639,5.5723,5.483,5.3969,5.2374,0.0,0.0,0.0,0.0,0.0,0.0,0.0,0.0,0.0,5.1843,5.2704,5.2704,5.2704,5.2704,5.2704,5.2234,5.1414,0.0,0.0,0.0,0.0,0.0,0.0,0.0,0.0,5.6482,0.0,0.0,0.0,0.0,0.0,0.0,0.0,0.0,0.0,0.0,6.3554,6.5463,7.1568,7.6984,8.1591,8.4167,8.7368,8.9997,8.9952,8.6118,8.1621,7.9023,7.4411,6.9988,6.741,6.6904,6.6904,6.6904,6.7568,6.8388,6.9286,7.2299,7.5429,7.7884,8.1236,8.4673,8.8158,9.0073,9.1523,9.2526,9.2649,9.2967,9.3828,9.3084,9.2613,9.2613,9.2616,9.3006,9.3853,9.4671,9.5101,9.5101,9.5101,9.5101,9.5102,9.428,9.3396,9.2412,9.2539,9.1093,8.8529,8.8631,8.7226,8.4958,8.582,8.5663,8.5036,8.6796,8.746,8.7418,8.7418,8.7415,8.7408,0.0,0.0,0.0,0.0,0.0,0.0,0.0,4.7891,4.9294,5.2177,5.3034,5.3986,5.5467,5.4846,5.4674,5.5614,5.3545,0.0,0.0,0.0,0.0,0.0,0.0,0.0,0.0,0.0,5.2404,5.4479,5.3788,5.4062,5.5195,5.3974,5.2949,5.2129,5.1546,5.1273,0.0,0.0,0.0,0.0,0.0,5.5976,5.6482,0.0,0.0,0.0,0.0,0.0,0.0,0.0,0.0,0.0,0.0,0.0,0.0,6.6935,7.1521,7.6288,7.9453,8.234,8.4326,8.3822,8.1083,7.7868,7.5319,7.2071,6.9057,6.7027,6.6667,6.6853,6.7403,6.7712,6.8577,7.0707,7.2471,7.4705,7.7879,8.0812,8.3902,8.7343,9.0349,9.2028,9.1756,9.2263,9.2691,9.3001,9.2765,9.2608,9.2608,9.2609,9.2733,9.3002,9.3854,9.428,9.428,9.4829,9.4831,9.429,9.4016,9.3047,9.1531,9.2263,9.109,8.8555,8.9254,8.7812,8.4961,8.5859,8.5703,8.4999,8.617,8.6949,8.7413,8.7413,8.7407,8.7397,0.0,0.0,0.0,0.0,0.0,0.0,0.0,4.7125,4.8308,5.054,5.1905,5.3169,5.4601,5.4838,5.5322,5.64,5.4721,0.0,0.0,0.0,0.0,0.0,0.0,0.0,5.1393,5.1706,5.3002,5.5234,5.4916,5.5489,5.6842,5.5714,5.456,5.3429,5.2887,5.2461,0.0,0.0,0.0,0.0,5.5685,5.6271,5.6452,0.0,0.0,0.0,0.0,0.0,0.0,0.0,0.0,0.0,0.0,0.0,0.0,0.0,6.75,7.139,7.5191,7.7837,7.9463,7.931,7.7305,7.4862,7.292,7.0488,6.8218,6.6814,6.68,6.7096,6.7296,6.8115,6.9216,7.058,7.2873,7.5194,7.7039,8.0364,8.3887,8.7336,9.0549,9.2278,9.1816,9.2236,9.2588,9.2597,9.2588,9.2546,9.2551,9.2595,9.2606,9.2616,9.3124,9.3395,9.3393,9.39,9.3902,9.3397,9.3397,9.2614,9.1126,9.2144,9.1282,8.9015,8.972,8.8593,0.0,8.6561,8.6325,8.5892,8.6439,8.6943,8.7403,8.7403,8.7397,8.7462,0.0,0.0,0.0,0.0,0.0,0.0,0.0,4.7457,4.8069,4.9692,5.1529,5.2975,5.3719,5.5361,5.6427,5.6482,0.0,0.0,0.0,0.0,0.0,0.0,0.0,0.0,5.1399,5.2259,5.3515,5.5181,5.6035,5.6909,5.7779,5.7693,5.6757,5.5081,5.5011,5.4515,0.0,0.0,0.0,0.0,5.6992,5.7189,0.0,0.0,0.0,0.0,0.0,0.0,0.0,0.0,0.0,0.0,0.0,0.0,0.0,0.0,0.0,0.0,0.0,7.3735,7.5209,7.5869,7.4366,7.2428,7.1381,6.9376,0.0,6.6647,6.7192,6.7581,6.688,6.8789,7.023,6.9501,7.3607,7.6609,7.5779,8.0123,8.4645,8.8001,9.0697,9.2359,9.2379,9.2471,9.2546,9.258,9.2553,9.2503,9.2479,9.2577,9.2585,9.2585,9.2606,9.2615,9.2617,9.2617,9.2578,9.2499,9.2578,9.2023,9.1038,9.2103,9.1593,8.9792,9.0027,8.9605,8.8746,8.7919,8.7565,8.7486,8.7486,8.744,8.7389,8.7389,8.7459,8.7599,0.0,0.0,0.0,0.0,0.0,0.0,0.0,0.0,0.0,0.0,5.0787,5.2514,5.2063,5.4134,5.5858,0.0,0.0,0.0,0.0,0.0,0.0,0.0,0.0,0.0,5.1404,5.2185,5.3775,5.6101,5.681,5.7926,5.9419,5.869,5.7428,5.5729,5.5183,5.4523,0.0,0.0,0.0,0.0,5.637,5.662,0.0,0.0,0.0,0.0,5.6167,5.7232,0.0,0.0,0.0,0.0,0.0,0.0,0.0,0.0,6.5006,6.5672,6.7342,0.0,7.0123,6.904,6.9278,6.9225,0.0,6.7095,6.7143,6.567,6.6561,6.7724,6.818,6.9846,7.1317,7.178,7.46,7.691,7.7361,8.2504,8.7011,8.9035,9.1165,9.2167,9.1403,9.2056,9.2505,9.252,9.2529,9.2494,9.2498,9.2518,9.2535,9.2585,9.2593,9.2601,9.2609,9.2609,9.2209,9.1474,9.2248,9.1673,9.0002,9.1796,9.157,8.9823,9.0635,9.0497,8.9675,8.9478,8.9006,8.8373,8.8373,8.7975,8.7411,8.7411,8.7791,8.8361,0.0,0.0,0.0,0.0,0.0,0.0,0.0,0.0,0.0,0.0,0.0,5.2533,5.203,5.4335,0.0,0.0,0.0,0.0,0.0,0.0,0.0,0.0,0.0,5.16,5.1992,5.281,5.447,5.6946,5.7707,5.894,6.0565,6.0007,5.8892,5.7288,5.608,5.5341,0.0,0.0,0.0,5.5845,5.6689,0.0,0.0,0.0,0.0,0.0,5.6676,5.7783,0.0,5.9202,6.0344,6.1892,0.0,0.0,0.0,0.0,6.5257,6.5644,6.6069,6.7191,6.7898,6.6564,6.7232,6.7655,6.5489,6.5992,6.6533,6.5257,6.634,6.7655,6.8119,6.992,7.151,7.2036,7.4984,7.8213,8.1074,8.5032,8.8287,8.9935,9.1395,9.2082,9.1583,9.2107,9.2462,9.249,9.2505,9.252,9.249,9.251,9.2528,9.2538,9.2538,9.2585,9.2603,9.2603,9.2117,9.1128,9.2119,9.1787,9.0345,9.1871,9.2044,9.1074,9.0768,9.0627,9.0523,8.9678,8.932,8.9297,8.9297,8.9018,8.854,8.81,8.8478,8.9212,0.0,0.0,0.0,0.0,0.0,0.0,0.0,0.0,0.0,0.0,0.0,0.0,0.0,0.0,0.0,0.0,0.0,0.0,0.0,0.0,0.0,0.0,5.2226,5.1992,5.2891,5.3593,5.5175,5.7637,5.8602,5.9877,6.1337,6.1477,6.0674,5.9057,5.7424,5.657,0.0,0.0,5.7085,5.6488,5.724,0.0,0.0,0.0,0.0,0.0,0.0,0.0,0.0,5.988,6.0615,6.1582,6.2201,0.0,0.0,0.0,0.0,0.0,6.6533,6.723,6.7617,6.6495,6.6843,6.7075,6.5373,6.5605,6.5992,6.5334,6.6533,6.781,6.8197,7.0268,7.1954,7.2151,7.5583,7.997,8.4913,8.703,8.8662,9.04,9.1353,9.1889,9.1996,9.2245,9.2419,9.2474,9.2485,9.2495,9.2485,9.2507,9.2479,9.2482,9.2482,9.2538,9.2599,9.2599,9.2072,9.112,9.2111,9.2072,9.112,9.2114,9.2599,9.2519,9.0902,9.0707,9.1366,8.9779,8.9545,9.0218,9.0176,9.0098,8.9899,8.9099,8.932,9.0096,0.0,0.0,0.0,0.0,0.0,0.0,0.0,0.0,0.0,0.0,0.0,0.0,0.0,0.0,0.0,0.0,0.0,0.0,0.0,0.0,0.0,5.6015,5.375,5.2891,5.3789,5.3895,5.5162,5.7682,5.9229,6.0473,6.1427,6.2858,6.2292,6.0029,5.9017,5.7828,5.6559,0.0,5.6669,5.6482,5.6633,0.0,0.0,0.0,0.0,0.0,0.0,0.0,0.0,5.988,6.1427,6.3207,6.2588,0.0,0.0,0.0,0.0,0.0,6.8003,6.9009,6.9048,6.6766,6.6843,6.7075,6.5373,6.5605,6.6147,6.6031,6.7384,6.928,7.1407,7.339,7.4914,7.5608,7.8184,8.1407,8.5146,8.6591,8.7854,8.9507,9.063,9.1202,9.1106,9.188,9.2391,9.2405,9.2432,9.2423,9.2495,9.2485,9.2507,9.2482,9.2482,9.2486,9.2532,9.2532,9.2034,9.1097,9.2073,9.2034,9.1142,9.2077,9.2532,9.2493,9.2206,9.2167,9.2291,9.2007,9.1577,9.1077,9.1058,9.0543,8.9918,8.9735,9.0217,9.1008,0.0,0.0,0.0,0.0,0.0,0.0,0.0,0.0,0.0,0.0,0.0,0.0,0.0,0.0,0.0,0.0,0.0,0.0,0.0,0.0,5.6094,5.6562,5.5469,5.5,5.539,5.6286,5.7992,6.051,6.1738,6.2776,6.3556,6.2535,6.1412,6.0239,5.8463,5.7536,5.7265,5.6797,5.7064,5.7812,0.0,0.0,0.0,0.0,0.0,0.0,0.0,0.0,0.0,0.0,6.1311,6.2317,6.2394,0.0,0.0,0.0,0.0,0.0,6.7191,6.8352,6.8854,6.6727,6.8236,6.9435,6.634,6.6998,6.8003,6.7075,6.8274,7.0092,7.222,7.4038,7.6154,7.8867,8.0845,8.288,8.5359,8.6899,8.8248,8.94,9.0405,9.1139,9.1564,9.2106,9.2391,9.2391,9.2386,9.2417,9.249,9.252,9.2503,9.2482,9.2482,9.2482,9.2482,9.2482,9.2021,9.1125,9.2065,9.2021,9.1125,9.2065,9.2482,9.2482,9.1939,9.2021,9.244,9.1925,9.1808,9.1956,9.1895,9.1652,9.1296,9.1265,9.1197,9.1204,0.0,0.0,0.0,0.0,0.0,0.0,0.0,0.0,0.0,0.0,0.0,0.0,0.0,0.0,0.0,0.0,0.0,0.0,0.0,5.5312,5.5859,5.7148,5.7226,5.7305,5.75,5.8789,6.0701,6.3222,6.4316,6.5253,6.5996,6.2811,6.1052,6.0526,5.8392,5.7615,5.781,5.7337,5.7822,5.8861,0.0,0.0,0.0,0.0,0.0,0.0,0.0,0.0,0.0,0.0,0.0,0.0,0.0,0.0,0.0,6.4803,6.5566,6.6301,6.6688,6.7771,6.8468,6.7152,6.928,7.0789,6.7307,6.8622,7.017,6.87,7.0054,7.191,7.3226,7.541,7.812,8.1491,8.3241,8.4621,8.5849,8.7409,8.864,8.9254,9.0275,9.1209,9.1862,9.2238,9.2391,9.2391,9.2412,9.2405,9.2479,9.251,9.2494,9.2514,9.2482,9.2482,9.2482,9.2482,9.2147,9.1426,9.2151,9.2108,9.1471,9.2151,9.2482,9.2443,9.172,9.1842,9.2432,9.1688,9.1805,9.2481,9.2495,9.2479,9.2468,9.2399,9.1983,9.1495,0.0,0.0,0.0,0.0,0.0,0.0,0.0,0.0,0.0,0.0,0.0,0.0,0.0,0.0,0.0,0.0,0.0,0.0,0.0,5.5312,5.6406,5.8906,5.9023,5.9375,6.0117,6.0234,6.1601,6.4218,6.5898,6.7148,6.7929,6.5273,6.3164,6.1562,6.0492,5.9187,5.7777,5.8457,5.8714,5.872,5.8668,0.0,0.0,0.0,0.0,0.0,0.0,0.0,0.0,0.0,0.0,0.0,0.0,0.0,6.4909,6.4986,6.5566,6.6533,6.8158,6.87,6.8777,6.8661,6.8854,6.8777,6.7655,7.0015,7.2142,7.1214,7.3651,7.5972,7.6088,7.9513,8.2472,8.2922,8.5087,8.6822,8.7051,8.7914,8.8527,8.8566,9.0046,9.1098,9.1176,9.1917,9.2391,9.2391,9.2391,9.2412,9.2405,9.2479,9.2505,9.2494,9.2514,9.2482,9.2482,9.2482,9.2482,9.2401,9.2482,9.2443,9.2401,9.2482,9.2482,9.2482,9.242,9.2451,9.249,9.2422,9.2412,9.249,9.2417,9.2425,9.2398,9.2391,9.2352,9.2313,0.0,0.0,0.0,0.0,0.0,0.0,0.0,0.0,0.0,0.0,0.0,0.0,0.0,0.0,0.0,0.0,0.0,0.0,0.0,5.4492,5.5664,5.8281,5.8822,5.9478,6.0338,6.2405,6.4733,6.7273,6.8483,6.8681,6.7868,6.42,6.1897,6.0687,5.8712,5.8031,5.8418,5.8187,5.8965,6.0254,5.9742,5.9762,0.0,0.0,0.0,0.0,0.0,0.0,0.0,0.0,6.2124,6.2511,6.3052,6.3671,6.43,6.4841,6.5218,6.5721,6.6882,6.8352,6.9153,6.7492,6.9148,7.0789,6.9396,7.0905,7.2645,7.2877,7.5198,7.7686,7.932,8.1469,8.297,8.3077,8.4863,8.6644,8.7775,8.8725,8.9508,9.0053,9.1183,9.1924,9.1924,9.2197,9.2391,9.2391,9.2391,9.2405,9.2399,9.2417,9.2446,9.249,9.2498,9.2503,9.2503,9.2503,9.2498,9.2485,9.251,9.2482,9.2482,9.251,9.2503,9.2503,9.252,9.2505,9.2505,9.2474,9.2423,9.2456,9.2425,9.2398,9.2391,9.2391,9.2391,9.2391,0.0,0.0,0.0,0.0,0.0,0.0,0.0,0.0,0.0,0.0,0.0,0.0,0.0,0.0,0.0,0.0,0.0,0.0,5.3854,5.3932,5.4987,5.7292,5.8124,5.9186,6.0609,6.3448,6.6,6.8304,6.9707,6.9518,6.773,6.3979,6.1758,6.0906,5.8535,5.8276,5.9588,5.8653,5.9438,6.1136,6.0274,6.0403,0.0,0.0,0.0,0.0,0.0,0.0,0.0,0.0,6.2008,6.2201,6.3333,6.3526,6.3516,6.4638,6.4803,6.4764,6.5605,6.7075,6.8021,6.6422,6.9104,7.175,7.0235,7.1904,7.4038,7.4904,7.6671,7.8552,8.007,8.2193,8.3618,8.3141,8.5272,8.7345,8.8256,8.9457,9.0443,9.1028,9.1885,9.2391,9.2391,9.2391,9.2391,9.2391,9.2391,9.2398,9.2386,9.2399,9.2423,9.2466,9.2476,9.252,9.252,9.252,9.251,9.2495,9.249,9.2503,9.2503,9.249,9.252,9.252,9.249,9.2479,9.2474,9.2399,9.2386,9.2386,9.2398,9.2391,9.2391,9.2391,9.2391,9.2391,0.0,0.0,0.0,0.0,0.0,0.0,0.0,0.0,0.0,0.0,0.0,0.0,0.0,0.0,0.0,0.0,0.0,0.0,5.3732,5.3771,5.4554,5.6199,5.7135,5.8758,6.1193,6.2927,6.4714,6.66,6.9123,6.9473,6.7725,6.5177,6.3502,6.2606,6.0812,6.0444,6.1128,6.0199,6.0268,6.0925,6.0113,6.0297,6.1002,0.0,0.0,0.0,0.0,0.0,0.0,0.0,6.1118,6.1427,6.3168,6.3129,6.2781,6.4483,6.4416,6.3913,6.4793,6.5025,6.5198,6.5843,6.8633,7.0949,6.9913,7.3176,7.6618,7.7434,7.831,7.8657,7.7808,8.1864,8.4878,8.3281,8.67,8.9332,8.8529,8.9964,9.1105,9.1105,9.1885,9.2391,9.2391,9.2391,9.2391,9.2391,9.2391,9.2391,9.2391,9.2386,9.2399,9.2405,9.2474,9.249,9.249,9.249,9.249,9.249,9.249,9.249,9.249,9.249,9.249,9.249,9.2417,9.2399,9.2399,9.2405,9.2391,9.2391,9.2391,9.2391,9.2391,9.2391,9.2391,9.2391,0.0,0.0,0.0,0.0,0.0,0.0,0.0,0.0,0.0,0.0,0.0,0.0,0.0,0.0,0.0,0.0,0.0,0.0,5.3732,5.3229,5.3623,5.5299,5.6163,5.7229,5.8545,6.1965,6.5187,6.8148,6.8303,6.7489,6.5791,6.3804,6.2089,6.074,6.0717,6.0517,6.019,5.9862,6.0208,6.0941,6.0064,6.0267,0.0,0.0,0.0,0.0,0.0,0.0,0.0,0.0,0.0,0.0,6.4201,6.4801,6.517,6.5631,6.5613,6.5469,6.5666,6.6643,6.7636,6.7653,6.9862,7.2662,7.525,7.5551,7.585,7.7838,7.9952,8.1165,8.0368,8.2535,8.4359,8.3967,8.6632,8.9113,9.0088,9.0726,9.1339,9.1924,9.2235,9.2391,9.2391,9.2391,9.2391,9.2391,9.2391,9.2391,9.2391,9.2398,9.2419,9.2399,9.2411,9.2417,9.2417,9.2417,9.2444,9.2425,9.2425,9.245,9.249,9.2468,9.2417,9.2417,9.2419,9.2405,9.2405,9.2391,9.2391,9.2391,9.2391,9.2391,9.2391,9.2391,9.2391,9.2384,0.0,0.0,0.0,0.0,0.0,0.0,0.0,0.0,0.0,0.0,5.4514,0.0,0.0,0.0,0.0,0.0,0.0,0.0,0.0,5.2819,5.2929,5.4277,5.5433,5.6785,5.8304,6.1512,6.4164,6.6232,6.6735,6.6116,6.4415,6.3719,6.2685,6.1466,6.2549,6.222,6.0809,6.071,6.0804,6.091,6.0012,6.0398,6.145,0.0,0.0,0.0,0.0,0.0,0.0,0.0,0.0,0.0,6.4005,6.45,6.4801,6.5448,6.5178,6.4781,6.5413,6.6306,6.7236,6.7705,7.0835,7.4672,7.8108,7.8054,7.7136,7.6538,7.8806,8.0757,8.0323,8.2355,8.4243,8.4693,8.7108,8.9402,9.0789,9.1342,9.1807,9.2352,9.2391,9.2391,9.2391,9.2391,9.2391,9.2391,9.2391,9.2391,9.2391,9.2391,9.2398,9.238,9.238,9.238,9.238,9.238,9.2412,9.2391,9.2391,9.2412,9.2456,9.2432,9.238,9.238,9.2398,9.2391,9.2391,9.2391,9.2391,9.2391,9.2391,9.2625,9.2859,9.2547,9.2611,9.283,0.0,0.0,0.0,0.0,0.0,0.0,0.0,0.0,0.0,0.0,5.2696,5.2848,0.0,0.0,0.0,0.0,0.0,0.0,0.0,5.2533,5.2477,5.3252,5.5133,5.7284,5.9766,6.1515,6.2288,6.2074,6.4605,6.5069,6.3619,6.4479,6.4472,6.3739,6.5353,6.4588,6.2141,6.1934,6.1411,6.0668,5.9843,6.047,6.1863,6.113,0.0,0.0,0.0,0.0,0.0,0.0,0.0,0.0,6.3096,6.3155,6.2972,6.4608,6.393,6.3001,6.464,6.518,6.5652,6.7293,7.2112,7.684,7.8316,7.978,7.9415,7.4497,7.634,7.8815,7.8734,8.1736,8.4541,8.558,8.8021,9.0124,9.0989,9.1833,9.2384,9.2391,9.2391,9.2391,9.2391,9.2391,9.2391,9.2391,9.2391,9.2391,9.2391,9.2391,9.2391,9.2391,9.2391,9.2391,9.2391,9.2391,9.2391,9.2391,9.2391,9.2391,9.2391,9.2391,9.2391,9.2391,9.2391,9.2391,9.2391,9.2391,9.2391,9.243,9.2508,9.3015,9.3599,9.2891,9.3095,9.357,0.0,0.0,0.0,0.0,0.0,0.0,0.0,0.0,0.0,0.0,0.0,0.0,0.0,0.0,0.0,0.0,0.0,0.0,0.0,5.2219,5.248,5.3252,5.63,5.852,5.9756,6.1515,6.1689,6.0275,6.2179,6.3261,6.3555,6.4415,6.4376,6.3576,6.4574,6.3588,6.1098,5.9733,5.9045,5.8853,5.8649,5.9188,6.0046,5.9892,6.0283,0.0,0.0,0.0,0.0,0.0,0.0,0.0,6.3334,6.4304,6.5341,6.5693,6.555,6.5461,6.6307,6.8052,7.0195,7.2405,7.6401,7.847,7.3416,7.5501,7.7847,7.551,7.8481,8.1108,7.9792,8.2612,8.565,8.7265,8.9294,9.0954,9.1879,9.2176,9.2355,9.2384,9.2391,9.2391,9.2391,9.2391,9.2391,9.2391,9.2391,9.2391,9.2391,9.2391,9.2391,9.2391,9.2391,9.2391,9.2391,9.2391,9.2391,9.2391,9.2391,9.2391,9.2391,9.2391,9.2391,9.2391,9.2391,9.2391,9.2391,9.2391,9.2391,9.2469,9.3132,9.3507,9.3671,9.417,9.4457,9.4414,0.0,0.0,0.0,0.0,0.0,0.0,0.0,0.0,0.0,0.0,0.0,0.0,0.0,0.0,0.0,0.0,0.0,0.0,0.0,0.0,5.2964,5.4978,5.7196,5.8808,5.9686,6.101,6.1039,5.9644,6.0987,6.2028,6.2844,6.3731,6.4139,6.4188,6.54,6.4309,6.1445,6.0553,5.9942,5.9507,5.9061,5.9396,6.0127,6.0127,5.9942,5.9716,5.9996,0.0,0.0,0.0,0.0,0.0,0.0,0.0,6.4976,6.5774,6.6005,6.6302,6.7411,6.8679,7.0431,7.3622,7.5064,7.5174,7.3143,7.4081,7.5245,7.4842,7.7687,8.0131,7.9761,8.2786,8.5913,8.7813,8.9662,9.1199,9.21,9.226,9.23,9.2355,9.2377,9.2391,9.2391,9.2391,9.2391,9.2391,9.2391,9.2391,9.2391,9.2391,9.2391,9.2391,9.2391,9.2391,9.2391,9.2391,9.2391,9.2391,9.2391,9.2391,9.2391,9.2391,9.2391,9.2391,9.2391,9.2391,9.2391,9.2391,9.2664,9.3054,9.35,9.41,9.4816,9.4838,9.5075,9.5185,0.0,0.0,0.0,0.0,0.0,0.0,0.0,0.0,0.0,0.0,0.0,0.0,0.0,0.0,0.0,0.0,0.0,0.0,0.0,0.0,0.0,5.7077,5.7758,5.8638,5.9793,6.0464,6.0464,5.9832,6.0564,6.1593,6.298,6.3569,6.4324,6.5246,6.6337,6.5103,6.2161,6.1692,6.1092,6.0388,5.9765,5.9858,6.0358,0.0,0.0,5.8473,5.9881,6.0046,5.9733,6.0535,0.0,0.0,0.0,0.0,6.3711,6.5311,6.5635,6.5946,6.7731,6.8625,6.9881,7.3335,7.2838,7.2046,7.3967,7.3704,7.323,7.3573,7.5986,7.8376,7.9588,8.2892,8.6068,8.7975,8.9864,9.1364,9.2113,9.2256,9.2268,9.2276,9.2347,9.237,9.2377,9.2377,9.2384,9.2391,9.2391,9.2391,9.2391,9.2391,9.2391,9.2391,9.2391,9.2391,9.2391,9.2391,9.2391,9.2391,9.2391,9.2391,9.2391,9.2391,9.2391,9.2391,9.2391,9.2391,9.2391,9.2391,9.2891,9.3702,9.3788,9.4738,9.5997,9.5455,9.5642,9.5991,0.0,0.0,0.0,0.0,0.0,0.0,0.0,0.0,0.0,0.0,0.0,0.0,0.0,0.0,0.0,0.0,0.0,0.0,5.202,0.0,0.0,5.8011,5.7576,5.834,6.068,6.0166,6.0166,6.0718,6.0834,6.2814,6.641,6.5833,6.5999,6.6731,6.5499,6.3883,6.197,5.9765,5.8753,5.8715,5.9281,5.9165,5.8627,0.0,0.0,5.833,5.855,5.9011,5.9638,6.0512,6.1781,0.0,0.0,0.0,6.3524,6.4499,6.4255,6.4205,6.655,6.9764,7.2712,7.3844,7.5562,7.585,7.1671,7.285,7.4448,7.2908,7.553,7.862,8.0328,8.3794,8.6997,8.8778,9.0691,9.1985,9.2181,9.22,9.2228,9.2226,9.2234,9.226,9.2293,9.23,9.2355,9.2384,9.2391,9.2391,9.2391,9.2391,9.2391,9.2391,9.2391,9.2391,9.2391,9.2391,9.2391,9.2391,9.2391,9.2391,9.2391,9.2391,9.2391,9.2391,9.2391,9.2391,9.2391,9.2391,9.2876,9.3702,9.4434,9.524,9.6099,9.6711,9.6991,9.6899,0.0,0.0,0.0,0.0,0.0,0.0,0.0,0.0,0.0,0.0,0.0,0.0,0.0,0.0,0.0,5.1366,5.0971,5.1241,5.2538,5.4241,5.5895,5.7511,5.7698,5.8286,5.943,5.954,5.9771,6.0123,6.0123,6.2998,6.8552,6.8205,6.8475,6.9167,6.7975,6.5974,6.3358,6.1281,5.9858,0.0,0.0,0.0,0.0,0.0,0.0,0.0,0.0,0.0,5.9088,6.0935,6.1704,6.2089,6.3166,0.0,0.0,0.0,6.406,6.4172,6.5994,6.9413,7.2291,7.1785,7.3778,7.4934,7.1371,7.2586,7.4068,7.2679,7.4581,7.7202,7.9556,8.2733,8.5741,8.8133,9.0113,9.1495,9.2063,9.2171,9.22,9.2219,9.2208,9.2195,9.2252,9.2252,9.2268,9.2355,9.2355,9.2362,9.2384,9.2391,9.2391,9.2391,9.2391,9.2391,9.2391,9.2391,9.2391,9.2391,9.2391,9.2391,9.2391,9.237,9.237,9.2384,9.2362,9.2355,9.2394,9.2838,9.3514,9.4353,9.5183,9.6002,9.6769,9.7126,9.7221,9.7082,0.0,0.0,0.0,0.0,0.0,0.0,0.0,0.0,0.0,0.0,0.0,0.0,0.0,0.0,0.0,0.0,5.1664,5.1856,5.3126,5.4587,5.5703,5.6329,5.7165,5.7742,5.7973,5.855,5.905,5.9511,5.9704,6.332,7.0014,7.0244,7.1245,7.2745,7.1091,6.8667,6.5743,6.3628,0.0,0.0,0.0,0.0,0.0,0.0,0.0,0.0,0.0,0.0,0.0,0.0,0.0,6.116,6.2847,6.2669,0.0,0.0,0.0,6.3657,6.5262,6.7977,7.0205,6.9835,7.2261,7.427,7.2529,7.3251,7.4029,7.3211,7.403,7.5608,7.8155,8.1387,8.4556,8.7178,8.9356,9.0857,9.134,9.1674,9.1821,9.1821,9.185,9.1956,9.2169,9.2208,9.2226,9.2268,9.2276,9.2285,9.2355,9.237,9.2377,9.2377,9.2384,9.2384,9.2377,9.2362,9.2362,9.2362,9.2557,9.2674,9.2666,9.2635,9.2643,9.2666,9.2401,9.2393,9.2658,9.3246,9.4123,9.5155,9.5778,9.6535,9.7253,9.7221,9.7199,9.7121,0.0,0.0,0.0,0.0,0.0,0.0,0.0,0.0,0.0,0.0,0.0,0.0,5.428,5.4357,5.4049,5.3203,5.3087,5.3126,5.3203,5.4049,5.4587,5.4626,5.5395,0.0,5.706,5.7099,5.7896,5.9511,6.0319,6.4205,7.086,7.1668,7.4207,7.7938,7.386,7.1091,6.9206,6.5897,0.0,0.0,0.0,0.0,0.0,0.0,0.0,0.0,0.0,0.0,0.0,0.0,0.0,0.0,0.0,6.0519,6.1066,0.0,0.0,0.0,6.399,6.5294,6.6636,6.9171,7.3022,7.6027,7.5427,7.5257,7.5149,7.4904,7.4334,7.441,7.6237,8.0413,8.4258,8.6268,8.883,9.0361,8.9654,9.0291,9.0877,9.0877,9.0877,9.1208,9.2113,9.2191,9.221,9.2187,9.2226,9.2226,9.2187,9.2268,9.2293,9.2293,9.237,9.237,9.2293,9.2252,9.2187,9.2226,9.3052,9.3441,9.3441,9.3432,9.3432,9.3402,9.2576,9.2654,9.3432,9.3471,9.4455,9.5923,9.6001,9.6476,9.721,9.7199,9.7199,9.7199,0.0,0.0,0.0,0.0,0.0,0.0,0.0,0.0,0.0,0.0,0.0,0.0,0.0,5.528,5.5126,5.4818,5.4318,5.4049,5.4049,5.4818,5.528,5.528,5.6088,5.6676,5.6983,5.755,5.8127,5.8742,5.955,6.2627,6.7705,6.9129,7.1437,7.4437,7.4591,7.2783,6.9552,6.7205,0.0,0.0,0.0,0.0,0.0,0.0,0.0,0.0,0.0,0.0,0.0,0.0,0.0,0.0,0.0,0.0,0.0,6.0068,6.0242,6.0846,6.1503,6.3728,6.6182,6.7321,7.1313,7.4669,7.3555,7.3895,7.4783,7.5872,7.4428,7.422,7.833,8.0601,8.2701,8.5179,8.6983,8.8352,8.9198,8.9654,8.9881,8.9881,8.9952,9.01,9.0431,9.047,9.0723,9.1325,8.9761,8.98,9.2061,9.0595,9.0448,9.2165,9.226,9.226,9.2252,9.2195,9.2187,9.2187,9.2537,9.2965,9.351,9.3473,9.3736,9.4242,9.393,9.3668,9.3532,9.4591,9.5377,9.5988,9.6571,9.6949,9.7199,9.7199,9.7199,9.7199,0.0,0.0,0.0,0.0,0.0,0.0,0.0,0.0,0.0,5.4194,0.0,0.0,0.0,0.0,5.6011,5.5742,5.4972,5.4511,5.4511,5.5011,5.528,5.528,5.6099,5.6714,5.6983,5.755,5.8011,5.8319,5.9127,6.155,6.5474,6.6898,6.9206,7.2245,7.3091,7.2668,7.1283,6.9552,0.0,6.4012,0.0,0.0,5.9944,0.0,0.0,0.0,0.0,0.0,0.0,0.0,0.0,0.0,0.0,0.0,0.0,0.0,0.0,5.9194,5.9516,6.1951,6.4821,6.6657,6.9852,7.2811,7.3972,7.3572,7.3534,7.5699,7.441,7.3934,7.7569,7.9159,8.0871,8.3695,8.526,8.6442,8.7396,8.7817,8.8173,8.8495,8.8578,8.8794,8.9376,8.9415,8.9698,9.0323,8.8727,8.8903,9.1559,9.0033,9.0052,9.2139,9.2208,9.2199,9.2199,9.218,9.2171,9.2171,9.2443,9.3065,9.3892,9.3853,9.4299,9.5115,9.5084,9.4773,9.4338,9.5423,9.6072,9.6383,9.6966,9.7199,9.7199,9.7199,9.7199,9.7199,0.0,0.0,0.0,0.0,0.0,0.0,0.0,0.0,5.5228,5.5866,0.0,0.0,0.0,0.0,0.0,5.5934,5.5126,5.4664,5.4587,5.4549,5.4549,5.4549,5.528,5.6126,5.7022,5.706,5.7434,5.8319,5.9127,6.1204,6.4436,6.5282,6.7936,7.1822,6.9398,7.0629,7.4361,7.2706,7.1514,7.0217,0.0,6.2859,6.4411,0.0,0.0,0.0,6.6252,6.5553,0.0,0.0,0.0,0.0,0.0,0.0,0.0,0.0,0.0,0.0,0.0,0.0,0.0,6.7165,6.8713,7.066,7.676,7.427,7.1496,7.4448,7.416,7.3429,7.3664,7.6027,7.8853,8.1721,8.3734,8.4744,8.4069,8.4778,8.5703,8.6603,8.6731,8.7352,8.9019,8.9186,8.9225,8.9263,8.9271,8.9682,9.0624,9.0848,9.1315,9.2178,9.221,9.2181,9.2181,9.2131,9.2099,9.2099,9.2964,9.3819,9.4712,9.4712,9.514,9.5956,9.5956,9.5956,9.5956,9.5956,9.6422,9.7199,9.7199,9.7199,9.7199,9.7199,9.7199,9.7199,0.0,0.0,0.0,0.0,0.0,5.8148,5.7764,5.7053,5.6803,0.0,0.0,0.0,5.8781,5.9946,6.0331,5.9473,5.9204,5.828,5.6445,5.6329,5.6022,5.5395,5.5588,5.6395,5.7896,5.7934,5.805,5.8319,5.9127,5.9704,6.005,6.0896,6.2897,6.5782,6.6359,6.7552,6.9129,6.809,0.0,6.6719,6.5279,6.4505,0.0,0.0,0.0,0.0,0.0,6.6045,6.5886,0.0,6.5348,6.4902,0.0,0.0,0.0,0.0,0.0,0.0,5.8586,0.0,0.0,0.0,0.0,0.0,6.9323,6.8469,6.843,7.3118,7.1768,7.1138,7.5721,7.6349,7.6853,7.8871,8.0882,8.2578,8.3702,8.4132,8.4417,8.4662,8.479,8.5277,8.6362,8.6514,8.708,8.8321,8.6594,8.6982,9.0439,9.125,9.1738,9.1994,9.1971,9.196,9.196,9.1948,9.1975,9.1975,9.2208,9.3136,9.4618,9.4606,9.5445,9.6849,9.6804,9.678,9.678,9.6827,9.6966,9.7199,9.7199,9.7199,9.7199,9.7199,9.7199,9.7199,0.0,0.0,0.0,0.0,0.0,6.057,6.0849,6.0003,5.9601,0.0,0.0,0.0,6.105,6.232,6.2512,6.0935,6.0473,5.9473,5.7665,5.755,5.7126,5.6291,5.6588,5.7242,5.828,5.8627,5.8819,5.8819,5.9281,5.9281,5.8819,5.9281,6.0666,6.282,6.3474,6.4347,6.5241,6.4435,0.0,0.0,6.607,0.0,0.0,6.8077,6.8098,0.0,0.0,0.0,6.936,6.8825,6.806,0.0,0.0,0.0,0.0,0.0,0.0,0.0,0.0,0.0,0.0,0.0,0.0,0.0,6.6388,6.595,6.6137,7.0118,6.9775,6.9977,7.3985,7.4771,7.5223,7.654,7.7913,7.9438,8.13,8.1605,8.1947,8.267,8.2857,8.3425,8.4624,8.4766,8.5385,8.6765,8.5411,8.6145,8.9872,9.088,9.1539,9.1888,9.1888,9.1888,9.1888,9.1888,9.1888,9.1888,9.2276,9.3192,9.4547,9.4897,9.5801,9.7118,9.7082,9.7069,9.7069,9.7106,9.7118,9.7118,9.7118,9.7118,9.7118,9.7118,9.7118,9.7118,0.0,0.0,6.2303,6.3232,6.3327,6.3564,6.4399,6.3471,6.3051,0.0,6.3334,6.3128,6.4051,6.4666,6.4089,6.1704,6.0704,5.9742,5.8665,5.8588,5.8165,5.7176,5.7896,5.8357,5.8434,5.9242,5.9588,5.9511,5.9588,5.9588,5.9511,5.9396,6.0269,6.1861,6.0976,6.1288,6.2428,6.1787,6.4408,6.8824,6.6576,6.8925,0.0,0.0,7.2395,7.4094,7.534,7.4821,7.3435,7.2618,7.0215,0.0,0.0,0.0,0.0,0.0,5.9069,0.0,0.0,0.0,0.0,0.0,0.0,0.0,6.5823,6.5138,6.4358,6.6347,6.7758,6.9014,7.0131,7.1993,7.365,7.4334,7.5014,7.6174,7.8129,7.8362,7.8977,8.0814,8.1066,8.1726,8.3322,8.3606,8.4021,8.4979,8.5293,8.6507,8.9021,9.0041,9.0933,9.1708,9.1824,9.1863,9.1863,9.1863,9.1863,9.1902,9.2755,9.3607,9.4434,9.5287,9.6179,9.7006,9.6993,9.6993,9.6993,9.6993,9.6993,9.7006,9.7006,9.7006,9.7006,9.7006,9.7006,9.7006,0.0,6.3086,6.4241,6.5649,6.639,6.701,6.759,6.636,6.5859,6.7255,6.7269,6.7744,6.9244,6.8359,6.7167,6.5974,6.5128,6.3435,6.0512,6.0319,5.9627,5.8127,5.8204,5.8588,5.9242,6.0127,6.0204,5.9511,6.0204,6.0204,5.9473,5.8858,5.9278,6.0619,5.9726,5.975,6.0421,6.1291,6.2834,6.4878,6.669,6.9264,7.2208,7.3425,7.3747,7.3713,7.5246,7.5156,7.4227,0.0,7.1403,6.8853,0.0,0.0,0.0,0.0,0.0,0.0,0.0,0.0,0.0,0.0,0.0,0.0,6.1778,6.205,6.3028,6.4193,6.4224,6.5011,6.8238,6.96,7.0435,7.0896,7.3019,7.5492,7.796,7.7686,7.7911,7.9784,7.9969,8.0385,8.1539,8.2254,8.3046,8.4021,8.5443,8.6812,8.8039,8.9563,9.0519,9.0674,9.137,9.1757,9.1757,9.1757,9.1757,9.1757,9.2609,9.3488,9.4369,9.5208,9.6139,9.7006,9.6939,9.6912,9.6912,9.6856,9.6898,9.7006,9.7006,9.7006,9.7006,9.7006,9.7006,9.7006,6.3867,6.5416,6.7108,6.8708,6.929,6.9873,7.0982,7.0008,6.9733,7.1335,7.2322,7.2668,7.2245,7.1052,0.0,0.0,0.0,0.0,0.0,6.1447,6.0704,5.8973,5.9319,5.9742,6.0127,6.1012,6.1243,6.0781,6.1243,6.1012,6.0127,5.9573,5.9447,5.9696,5.9488,5.9229,5.8974,6.0003,6.1526,6.3576,6.7068,0.0,7.2432,7.4689,7.543,7.5405,7.6604,7.653,7.5527,7.351,7.2518,0.0,0.0,6.7256,6.6736,0.0,6.3639,6.3305,0.0,0.0,0.0,6.1945,0.0,0.0,0.0,6.1528,6.2113,6.3035,6.2918,6.3626,6.6721,6.7752,6.8439,6.9289,7.1178,7.3312,7.5456,7.5855,7.6288,7.736,7.7577,7.8141,7.9457,8.0075,8.1093,8.2909,8.4764,8.6366,8.764,8.8958,8.9861,9.0286,9.1097,9.1561,9.1561,9.1644,9.1852,9.2277,9.3171,9.4065,9.4945,9.5796,9.6469,9.6898,9.6856,9.6841,9.6841,9.6798,9.6827,9.6898,9.6898,9.6898,9.6898,9.6898,9.6898,9.6898,6.5071,6.7115,6.9359,7.0831,7.158,7.2368,7.3686,7.3356,7.3399,7.4784,7.6169,7.6399,7.4668,0.0,0.0,0.0,0.0,0.0,0.0,0.0,6.205,6.0319,6.0742,6.0973,6.0781,6.182,6.2166,6.187,6.2117,6.1709,6.071,6.0349,5.9798,5.9145,5.9349,5.9241,5.8878,5.9215,6.1052,6.4149,6.7685,7.0314,7.241,7.5281,7.6506,7.678,7.7905,7.7868,7.6892,7.3919,7.377,7.4078,6.9806,6.9472,0.0,0.0,0.0,0.0,0.0,0.0,0.0,0.0,0.0,6.3267,0.0,0.0,0.0,6.2007,6.2279,6.3067,6.5172,6.594,6.6575,6.7501,6.9144,7.06,7.1508,7.3023,7.4252,7.5076,7.5371,7.6088,7.7526,7.8108,7.9429,8.1814,8.3742,8.549,8.6994,8.8066,8.9046,8.9933,9.0744,9.1245,9.14,9.1655,9.2149,9.2805,9.3886,9.4766,9.5501,9.6351,9.6738,9.6738,9.6738,9.6738,9.6738,9.6738,9.6738,9.6738,9.6768,9.6783,9.6783,9.6783,9.6783,9.6783,6.5211,6.7138,6.914,6.9913,7.2557,7.4562,7.4599,7.5144,7.563,7.5822,7.6015,7.6592,0.0,0.0,0.0,0.0,0.0,0.0,6.986,0.0,0.0,6.2935,6.2281,6.1601,6.0819,6.2358,6.2435,6.0935,6.2117,6.1917,6.0335,6.003,5.9635,5.9155,5.8517,5.957,6.181,6.0396,6.2516,6.6951,6.8472,6.9284,0.0,7.432,7.5521,7.5156,7.7459,7.8239,7.7868,0.0,7.549,7.5304,0.0,7.1403,6.9893,0.0,0.0,0.0,0.0,0.0,0.0,0.0,6.5719,0.0,0.0,0.0,6.1878,6.0503,0.0,6.1747,6.3038,0.0,0.0,6.3603,6.6493,6.8125,6.6372,6.8721,7.1666,7.4375,7.498,7.5418,7.5994,7.7817,7.9473,8.0886,8.2721,8.4164,8.5049,8.6809,8.8159,8.9007,8.9895,9.0666,9.14,9.2171,9.2612,9.2727,9.4387,9.5252,9.5368,9.6178,9.6525,9.6525,9.6525,9.6525,9.6525,9.6525,9.6525,9.6542,9.6723,9.6783,9.6783,9.6783,9.6783,9.6783,6.6112,6.7525,6.8883,6.9654,7.1801,7.3651,7.4567,7.713,7.8784,7.8284,7.8669,7.9592,0.0,0.0,0.0,0.0,0.0,7.3899,0.0,0.0,0.0,0.0,6.4051,6.3089,6.3743,6.3474,6.2592,6.121,6.1778,6.13,5.9915,5.9554,5.9289,5.9159,5.9057,6.029,6.2376,6.2153,6.3505,6.6026,6.7701,6.7985,0.0,7.3447,7.578,7.6159,7.7199,7.7905,7.783,0.0,7.497,0.0,0.0,0.0,0.0,0.0,0.0,0.0,0.0,0.0,0.0,0.0,0.0,0.0,6.2874,0.0,6.1521,0.0,0.0,0.0,0.0,0.0,0.0,0.0,6.576,6.6783,6.5858,6.7333,6.922,7.124,7.1426,7.2109,7.3916,7.576,7.7317,7.8446,8.0476,8.2173,8.3242,8.5851,8.7731,8.8628,8.9513,9.0625,9.2023,9.2459,9.3131,9.4095,9.4933,9.5798,9.6724,9.6569,9.7032,9.7958,9.6955,9.6801,9.7264,9.7264,9.7264,9.7303,9.7887,9.7533,9.6645,9.6645,9.6645,9.6722,6.7128,0.0,0.0,6.9244,7.1321,7.3514,7.5438,7.8243,8.015,8.0227,8.0574,8.1807,8.4427,8.2386,0.0,0.0,8.1439,7.8477,0.0,0.0,7.0744,0.0,0.0,0.0,0.0,6.4269,6.2779,6.1362,6.1218,6.0692,5.9787,5.9196,5.9189,5.9654,6.0258,6.1582,6.349,6.4531,6.5794,6.7266,6.857,6.88,6.8889,7.3153,7.5744,7.7152,7.7375,7.7821,7.7793,7.4625,7.4996,0.0,7.3484,0.0,0.0,0.0,0.0,0.0,7.0215,0.0,0.0,0.0,0.0,0.0,0.0,0.0,0.0,0.0,0.0,0.0,0.0,0.0,0.0,0.0,0.0,6.5682,6.5459,6.5942,6.6826,6.8197,6.8738,7.01,7.2771,7.3992,7.5,7.5795,7.8637,8.0564,8.1239,8.4762,8.7271,8.8457,8.9089,9.0411,9.2444,9.2763,9.3624,9.5087,9.5427,9.6232,9.7389,9.6716,9.7157,9.8275,9.7217,9.714,9.7736,9.8005,9.8083,9.816,9.8777,9.8237,9.7157,9.7208,9.7225,9.7303,6.8052,6.8385,0.0,6.8423,7.186,7.5476,7.7977,7.7988,7.8588,8.1052,8.0626,0.0,0.0,0.0,0.0,0.0,0.0,8.3016,8.2054,0.0,7.4322,0.0,0.0,6.7271,0.0,0.0,6.2985,6.1022,6.0566,6.0321,6.0263,5.9057,5.9366,6.0959,6.1901,6.3653,6.6091,6.7688,7.0177,7.3064,7.2358,7.2952,7.4264,0.0,7.4959,7.7226,7.8007,0.0,0.0,7.7263,7.6456,0.0,0.0,0.0,0.0,0.0,0.0,0.0,0.0,0.0,0.0,6.7391,0.0,0.0,0.0,0.0,6.2153,0.0,0.0,0.0,0.0,0.0,0.0,0.0,0.0,0.0,0.0,6.3713,6.4345,6.6003,6.8352,7.0779,7.3078,7.3091,7.3063,7.33,7.7599,7.9856,7.9057,8.3351,8.6621,8.8346,8.8477,8.976,9.2257,9.3213,9.4113,9.4998,9.5865,9.6288,9.6326,9.6326,9.6326,9.6442,9.7134,9.748,9.7557,9.8422,9.8769,9.8769,9.8807,9.8769,9.8749,9.8931,9.9039,9.9039,0.0,0.0,0.0,0.0,7.0975,7.4091,7.7207,7.9427,8.1705,8.443,8.4888,0.0,0.0,9.2139,9.2056,0.0,0.0,8.8709,8.5055,8.14,0.0,0.0,0.0,7.0846,0.0,0.0,0.0,6.1992,6.131,6.0862,6.0602,6.0189,6.0648,6.1863,6.328,6.5055,6.7094,6.9806,7.1255,7.1775,7.2072,7.3175,7.4635,0.0,7.5861,7.7152,7.7412,7.783,0.0,7.6084,7.5601,7.5676,7.4896,7.367,7.2778,7.3892,7.341,7.2666,0.0,0.0,7.2878,7.066,0.0,0.0,0.0,0.0,0.0,0.0,0.0,0.0,0.0,0.0,0.0,0.0,0.0,0.0,0.0,6.1521,6.1967,6.4196,6.6396,6.834,6.9765,6.9734,6.9466,6.9126,7.1429,7.2977,7.3222,7.8809,8.2951,8.4954,8.7233,8.9974,9.314,9.352,9.4441,9.5865,9.6172,9.6596,9.7096,9.7096,9.7711,9.8788,9.8481,9.8673,9.925,9.9519,9.9635,9.9712,10.0212,10.0519,10.0289,9.9287,9.8882,9.8977,7.1273,0.0,0.0,6.9552,7.1398,7.4245,7.7669,8.1122,8.4329,8.701,8.8234,0.0,9.6033,0.0,9.5595,0.0,9.5634,9.2595,8.7786,8.4863,0.0,8.0362,7.6885,0.0,0.0,0.0,0.0,0.0,6.3099,6.2547,6.2754,6.1448,6.1647,6.3123,6.4837,6.6094,6.7168,7.1589,7.2666,7.1478,7.2592,7.4004,0.0,0.0,7.6344,7.7152,0.0,7.7709,7.7645,7.6344,7.5676,7.5341,7.5193,7.4338,7.3558,7.4476,7.429,7.3844,7.3844,7.3844,0.0,7.1738,6.9372,0.0,6.5268,0.0,0.0,0.0,0.0,0.0,0.0,0.0,0.0,0.0,0.0,0.0,0.0,6.0518,6.1076,6.297,6.4924,6.6545,6.7771,6.7541,6.6753,6.5469,6.7417,6.8686,6.8721,7.5665,8.0601,8.2736,8.6718,9.0302,9.3525,9.3888,9.4828,9.6288,9.6288,9.6557,9.7096,9.7365,9.8096,9.9173,9.925,9.9558,10.0096,10.0404,10.0481,10.0596,10.1096,10.1289,10.1212,10.0096,9.9673,9.9788,7.3776,7.2937,7.2129,7.136,7.3206,7.5976,7.9361,8.2901,8.6132,8.8762,9.0643,9.3026,9.6429,9.5885,9.6249,9.8596,9.7288,9.4595,9.0441,8.8517,0.0,0.0,7.9665,7.7663,7.5583,0.0,0.0,0.0,0.0,6.5255,6.6425,6.2844,6.2382,6.4604,6.6503,6.6884,6.6537,7.3001,7.4413,7.2506,7.4067,7.5665,7.704,7.6159,7.6382,7.7263,7.8007,7.7784,7.7263,7.7969,7.6642,7.5118,7.7422,7.601,7.3993,7.6344,7.5899,7.4635,7.4635,7.4635,7.3855,7.0772,6.9941,0.0,0.0,0.0,6.8487,0.0,0.0,0.0,0.0,0.0,0.0,0.0,0.0,0.0,0.0,0.0,6.141,6.2301,6.3766,6.5351,6.6945,6.6444,6.4942,6.2413,6.549,6.7037,6.5954,7.38,7.9437,8.1899,8.6566,9.0453,9.3369,9.4158,9.5137,9.6269,9.6269,9.6269,9.6308,9.7115,9.75,9.7577,9.9308,10.0096,10.0096,10.1,10.1308,10.1308,10.1308,10.1308,10.1308,10.1308,10.1308,10.1308,7.461,7.4745,7.5168,7.5592,7.6207,7.7553,8.0323,8.3172,8.6408,9.04,9.3361,9.6189,9.9112,9.9586,9.9442,9.8865,9.7827,0.0,0.0,0.0,0.0,8.7709,8.4656,8.1668,7.8864,7.6848,0.0,7.2595,0.0,6.7719,6.8197,6.5004,6.3585,6.3826,6.6764,6.7295,6.65,7.2406,7.4896,7.4896,7.5304,7.6121,7.7078,7.6855,7.7301,7.7942,7.7561,7.7645,7.783,7.679,7.6456,7.6456,7.6456,7.5861,7.5304,7.5936,7.5824,7.549,7.549,7.5044,7.455,7.4432,7.2137,6.9863,0.0,0.0,0.0,0.0,0.0,0.0,0.0,0.0,0.0,0.0,0.0,0.0,0.0,0.0,0.0,6.2153,6.1692,6.2101,6.4345,6.3847,6.2324,5.985,6.1071,6.3106,6.5691,6.9481,7.5022,8.2474,8.2665,8.6106,9.3249,9.1817,9.2718,9.5981,9.5981,9.5981,9.6019,9.6902,9.7285,9.7362,9.9051,9.978,9.9857,10.0701,10.1085,10.1085,10.1085,10.1085,10.1106,10.1188,10.1208,10.1208,7.6048,7.74,7.8669,7.8438,8.0246,8.2054,8.3131,8.4824,8.7561,9.1933,9.5045,9.7573,9.948,10.0998,10.152,10.0481,9.8981,0.0,9.5672,0.0,0.0,8.9923,8.6809,8.3944,8.15,7.9709,0.0,7.5804,0.0,6.9933,7.0154,6.5589,6.3423,6.3493,6.6038,6.6716,6.6391,7.1787,7.5156,7.6827,7.6084,7.653,0.0,7.7226,7.757,7.8239,7.7793,7.7682,7.7682,7.7087,7.6716,7.6567,7.679,7.6642,7.6419,7.679,7.6865,7.679,7.6456,7.6064,7.5819,7.5973,7.4063,7.2246,7.2454,7.2239,7.1603,0.0,7.1804,7.2964,0.0,0.0,0.0,0.0,0.0,0.0,0.0,0.0,0.0,0.0,6.1967,6.219,6.2524,6.115,5.9701,5.8289,5.8921,6.0269,6.2278,6.8512,7.3779,7.7587,8.1454,8.538,8.9463,8.8764,9.0262,9.4011,9.383,9.4521,9.5938,9.6782,9.7204,9.7281,9.8968,9.9696,9.9773,10.0578,10.1,10.1,10.1,10.1,10.1,10.0983,10.1102,10.1085,7.7665,7.9977,8.1708,8.0362,8.417,8.7325,8.7132,8.794,8.994,9.3864,9.6596,9.8404,9.9058,10.1096,10.2404,10.2289,0.0,9.8288,9.6749,9.4364,9.2287,9.0633,8.7903,8.5607,8.3839,8.22,0.0,0.0,0.0,7.168,7.1656,6.53,6.2655,6.3285,6.4855,6.5915,6.6839,7.1341,7.5007,7.7682,7.6456,7.6827,7.8053,7.7459,7.7682,7.8276,7.8276,7.783,7.7347,7.8053,7.731,7.6382,7.783,7.7793,7.7385,7.809,7.8304,7.8155,7.7476,7.7297,7.7181,7.6536,7.5857,7.5207,7.4632,7.3865,7.3048,7.2332,7.2664,7.2814,7.2005,0.0,0.0,0.0,0.0,0.0,0.0,0.0,0.0,0.0,0.0,0.0,6.141,5.9367,5.7955,5.7546,5.8252,5.8696,5.8653,6.8344,7.3112,7.1401,8.0781,8.5569,8.4991,8.5931,8.8332,9.2133,9.1317,9.2738,9.6051,9.6817,9.7239,9.7431,9.9002,9.9654,9.973,10.0612,10.0919,10.0919,10.0919,10.0919,10.0897,10.0809,10.0793,10.0919,7.8453,0.0,0.0,0.0,8.4939,8.8517,9.1864,9.371,9.5518,9.7634,10.0096,10.152,10.0904,10.1289,10.1289,10.0596,10.0096,0.0,0.0,0.0,0.0,9.4134,9.1636,8.9048,8.6486,8.4804,8.3064,0.0,0.0,7.2116,7.0729,6.5471,6.2738,6.2318,6.4015,6.6764,7.0127,7.1738,7.351,7.5341,7.6419,7.705,7.7375,7.7895,7.8165,7.8276,7.8276,7.8202,7.809,7.8239,7.809,7.7905,7.8202,7.8202,7.809,7.8239,7.8386,7.8431,7.8282,7.7867,7.7625,7.8251,7.7317,7.6455,7.7078,7.6075,7.5136,7.5675,7.4812,7.4099,7.4601,0.0,0.0,0.0,0.0,0.0,0.0,0.0,0.0,0.0,0.0,6.1741,6.1261,6.141,6.0407,5.7695,5.8252,5.9661,6.1834,6.311,6.6855,7.3576,7.5851,8.0211,8.6989,8.6294,8.8919,9.4872,9.2056,9.2842,9.6735,9.6888,9.7309,9.7974,9.9029,9.945,9.9526,10.0291,10.0711,10.0711,10.0711,10.0711,10.0711,10.0612,10.0612,10.0711,8.19,0.0,0.0,0.0,8.8479,9.2479,9.5826,9.8904,10.0404,9.8981,10.0289,10.0981,10.0096,10.1212,10.1789,10.1404,10.0212,9.9442,9.9481,9.6634,9.498,9.498,9.2005,0.0,8.7249,8.5468,8.3497,8.1354,0.0,0.0,7.0214,6.4812,6.2063,6.1781,6.4193,6.758,7.1498,7.2864,7.4402,7.5973,7.7199,7.7719,7.7756,7.8128,7.8276,7.8276,7.8276,7.8276,7.8276,7.8276,7.8276,7.8276,7.8276,7.8276,7.8304,7.8386,7.8441,7.8522,7.8576,7.8409,7.8352,7.8777,7.8067,7.7316,7.7802,7.6938,7.6075,7.6037,7.5361,7.4535,7.3657,7.2139,0.0,0.0,0.0,0.0,0.0,0.0,0.0,0.0,0.0,0.0,0.0,6.3044,6.1868,5.7212,5.8029,5.8723,5.8753,6.2512,6.7005,7.2175,7.5513,8.0476,8.7198,8.6926,8.9401,9.4647,9.2831,9.3927,9.7509,9.7509,9.7738,9.8158,9.9037,9.9381,9.9458,10.0298,10.0604,10.0604,10.0604,10.0909,10.1292,10.1292,10.1597,10.1903,8.6209,8.6401,0.0,8.8979,9.3056,9.6865,9.925,10.2904,10.4097,10.0596,10.0596,10.0596,9.9712,10.1212,10.2289,10.2097,10.0404,9.9327,9.9288,9.6442,9.4672,9.448,9.1891,8.957,8.7645,8.5908,8.365,0.0,0.0,0.0,6.9637,6.4344,6.1852,6.1997,6.5436,6.8729,7.1843,7.3951,7.5713,7.7189,7.8007,7.8276,7.8276,7.8276,7.8276,7.8276,7.8276,7.8388,7.8564,7.8664,7.8498,7.8276,7.8276,7.8498,7.8681,7.8586,7.873,7.8973,7.885,7.8941,7.9041,7.9041,7.8603,7.8189,7.8189,7.7563,7.6751,7.6075,7.5774,7.5084,7.3161,7.3567,0.0,0.0,0.0,0.0,0.0,0.0,0.0,0.0,0.0,0.0,6.2721,6.3295,6.1629,5.6172,5.7435,5.8013,5.6958,6.2799,6.7332,6.9738,7.56,8.1028,8.5912,8.7057,8.9999,9.4696,9.3666,9.5036,9.8388,9.8388,9.8464,9.8693,9.9343,9.9649,9.9725,10.0489,10.0909,10.0909,10.11,10.1597,10.2209,10.2209,10.2591,10.3087,9.0441,9.1248,9.2556,9.5057,9.775,10.0212,10.1981,10.452,10.5905,10.4713,10.3905,10.3212,10.2289,10.1789,10.1096,10.0404,10.0789,9.9827,9.6865,9.7711,9.6634,9.2903,9.3115,9.1846,8.8632,8.7459,8.4821,0.0,0.0,7.2487,6.8471,6.5015,6.3319,6.3391,6.8247,7.0635,7.1192,7.4338,7.6233,7.7189,7.8007,7.8276,7.8276,7.8276,7.8276,7.8276,7.8276,7.8759,7.9438,7.9863,7.9258,7.8276,7.8276,7.9103,7.9841,7.8947,7.9592,8.0377,7.9499,7.9359,7.9453,7.9453,7.9307,7.9174,7.9174,7.8462,7.7764,7.7689,7.7051,7.6484,7.6489,7.5154,7.3654,0.0,0.0,0.0,0.0,0.0,0.0,0.0,0.0,0.0,0.0,6.0827,5.8624,5.4351,5.6283,5.9231,6.2949,6.1566,6.2907,6.78,7.3002,7.7918,8.2519,8.5902,9.0988,9.7654,9.4654,9.5342,9.9266,9.9266,9.9687,10.0413,10.0489,10.0489,10.0604,10.1406,10.1788,10.1903,10.2591,10.3011,10.3087,10.3087,10.3087,10.3317,9.4903,9.4441,9.498,9.8019,9.9404,10.0981,10.3712,10.5405,10.6097,10.5213,10.4405,10.3597,10.2712,10.1789,10.1212,10.0789,10.0712,10.0212,9.9365,9.8057,9.6749,9.5557,9.3864,9.1846,8.9409,8.7899,8.5276,0.0,0.0,0.0,0.0,6.7524,6.5832,6.6026,6.9942,7.1961,7.2555,7.4821,7.627,7.7189,7.8007,7.8458,7.8738,7.8738,7.8904,7.9112,7.9112,7.9663,8.029,7.9991,8.0028,8.0249,8.0568,8.0999,8.133,8.0948,8.09,8.0832,8.0386,8.0287,8.031,8.024,8.0571,8.0787,8.0259,7.9825,7.9239,7.8223,7.7687,7.7437,7.7626,7.7406,7.6573,7.4709,0.0,0.0,0.0,0.0,0.0,0.0,0.0,0.0,0.0,6.2971,6.0571,6.1911,5.9223,5.7587,5.7876,6.1218,6.6026,7.2303,7.5472,8.1693,9.1482,9.092,9.3633,9.9572,9.828,9.851,10.0107,10.0107,10.0604,10.1406,10.1406,10.1712,10.2209,10.2514,10.2705,10.2705,10.3087,10.3508,10.389,10.389,10.4185,10.4607,9.9288,9.8211,9.8211,10.1404,10.1981,10.2712,10.4789,10.6097,10.6405,10.5213,10.4597,10.3789,10.2712,10.1789,10.1212,10.1019,10.0596,10.0404,10.0212,9.8211,9.6942,9.6749,9.4249,0.0,9.0183,8.84,8.591,8.2659,7.9504,0.0,0.0,7.0875,6.9227,6.9141,7.2534,7.4297,7.486,7.6711,7.7909,7.8625,7.8962,7.9267,7.951,7.9321,7.9418,7.9708,7.9708,8.0239,8.0867,8.0714,8.1376,8.2184,8.1634,8.1886,8.2374,8.2098,8.1989,8.1917,8.1577,8.1429,8.1362,8.1233,8.1655,8.1911,8.1269,8.0862,8.0177,7.8699,7.8138,7.8001,7.8384,7.8873,7.8462,7.6174,0.0,0.0,0.0,0.0,0.0,0.0,6.9789,6.8346,7.0203,6.4833,6.2785,6.6508,6.2662,5.9566,5.832,6.1985,6.7155,7.3838,7.5365,8.1722,9.3493,9.2081,9.4316,10.0183,10.0489,10.0604,10.0604,10.0909,10.1292,10.1903,10.2209,10.2591,10.3202,10.3508,10.3584,10.3584,10.3813,10.4286,10.472,10.472,10.5002,10.5408,10.3482,10.3097,10.3289,10.5905,10.629,10.602,10.5213,10.6597,10.7098,10.529,10.5097,10.4482,10.2789,10.1789,10.1019,10.0173,10.0789,10.0212,9.7711,9.8327,9.7634,0.0,0.0,9.2828,9.1028,8.9152,8.6891,8.427,0.0,0.0,7.6332,7.4977,7.3673,7.2691,7.6637,7.824,7.8116,8.043,8.1692,8.2042,8.1186,8.0883,8.0769,8.0011,7.9686,7.9708,7.9708,8.0217,8.1079,8.2433,8.341,8.3561,8.0655,8.1164,8.2703,8.1609,8.2759,8.4136,8.3159,8.2669,8.2499,8.2499,8.2323,8.2179,8.2179,8.1349,8.0303,7.9291,7.844,7.8189,7.9099,7.9214,7.8553,7.6962,0.0,0.0,0.0,0.0,0.0,0.0,6.8567,6.756,6.7733,6.5459,6.4294,6.5076,6.5917,6.7067,6.8616,6.3944,6.4018,6.9999,7.0722,0.0,8.3427,8.6655,9.2023,9.9419,10.0183,10.0604,10.0604,10.1521,10.1903,10.1903,10.2782,10.3202,10.3278,10.4081,10.4386,10.4501,10.5303,10.5611,10.5485,10.5485,10.5408,10.5175,10.2981,10.4212,10.529,10.5482,10.602,10.629,10.602,10.6521,10.6405,10.529,10.4597,10.3905,10.2712,10.2404,10.1789,10.1019,10.0712,10.0404,10.0096,9.9288,9.8442,9.7634,9.6211,9.4366,9.1949,9.0091,8.7868,8.5246,8.3219,8.0526,7.7264,7.7143,7.6768,7.6316,7.8565,7.9877,8.0455,8.1393,8.1887,8.2082,8.1869,8.1972,8.2164,8.1306,8.1557,8.2294,8.1681,8.2409,8.3615,8.3431,8.3926,8.437,8.2828,8.3609,8.5022,8.4629,8.4534,8.4439,8.3964,8.371,8.3565,8.3416,8.3747,8.39,8.3171,8.2179,8.1294,8.0869,8.0618,8.0531,8.0819,8.038,7.9579,7.8379,7.7804,0.0,7.5866,0.0,0.0,0.0,6.9537,6.9162,7.2687,7.0255,6.9257,7.1027,6.8249,6.7201,6.8885,7.1298,7.5159,8.0626,8.2034,0.0,9.2101,9.1445,9.3805,9.9264,10.0213,10.0909,10.1521,10.24,10.3087,10.3622,10.389,10.4386,10.4921,10.5189,10.5216,10.5218,10.5498,10.5498,10.5292,10.5292,10.5213,10.5078,10.4097,10.502,10.5713,10.5213,10.5597,10.579,10.552,10.602,10.602,10.4789,10.4482,10.3905,10.2712,10.2597,10.2212,10.1404,10.0789,10.0789,10.1289,9.9981,9.9135,9.8788,9.7173,9.5212,9.2833,9.1011,8.896,8.6624,8.4519,8.2147,7.9606,7.9686,7.966,7.9561,8.0706,8.1633,8.2439,8.286,8.3225,8.3548,8.3229,8.3333,8.3576,8.2695,8.2873,8.3516,8.2978,8.3478,8.4362,8.417,8.4439,8.4863,8.4632,8.5247,8.6038,8.5647,8.5273,8.5012,8.4863,8.4708,8.4546,8.4356,8.467,8.4711,8.3648,8.2845,8.2197,8.1771,8.162,8.162,8.1671,8.1257,8.0731,8.0142,7.9464,7.8798,7.8271,0.0,0.0,0.0,0.0,7.0833,0.0,7.4952,7.4952,7.7249,7.3564,7.286,7.6578,7.5695,7.7885,8.4079,8.5223,8.8344,9.377,9.2884,9.45,9.8735,10.0304,10.1406,10.1903,10.3087,10.389,10.4386,10.4692,10.5203,10.5611,10.5611,10.5498,10.5408,10.5408,10.5292,10.5121,10.5121,10.5002,10.4902,10.6213,10.5713,10.5174,10.4982,10.5097,10.4789,10.4097,10.529,10.5713,10.4212,10.4597,10.4405,10.2789,10.252,10.2212,10.1404,10.1212,10.1212,10.1289,10.0481,9.9712,9.8827,9.7326,9.5558,9.3658,9.1894,9.0072,8.8193,8.5426,8.3659,8.2859,8.2475,8.2316,8.2406,8.2885,8.3465,8.4115,8.4692,8.5373,8.5979,8.5151,8.4895,8.4962,8.4055,8.3708,8.3747,8.3747,8.3785,8.3978,8.4863,8.517,8.5286,8.6055,8.6286,8.606,8.513,8.535,8.5912,8.5896,8.5722,8.5558,8.5393,8.5263,8.4901,8.38,8.3483,8.3136,8.2184,8.1909,8.1858,8.1984,8.1946,8.192,8.2066,8.1486,8.0821,8.0481,7.7001,0.0,0.0,0.0,0.0,7.7838,7.9509,8.108,8.2911,8.0943,8.2597,8.9275,7.8144,7.5037,8.2548,8.2787,8.5185,9.0197,9.1975,9.4576,9.8125,10.0686,10.2018,10.2018,10.3699,10.4501,10.4501,10.5279,10.5587,10.5485,10.5498,10.5382,10.5175,10.5175,10.5094,10.5023,10.5023,10.4874,10.4799,10.4597,10.5405,10.5713,10.4405,10.4713,10.4982,10.4789,10.5213,10.529,10.4905,10.4405,10.3789,10.2712,10.202,10.152,10.1289,10.0712,10.0596,10.1289,10.0481,9.9712,9.8827,9.8404,9.675,9.3697,9.2488,9.0646,8.8112,8.6077,8.4885,8.4572,8.3664,8.3558,8.4108,8.4306,8.4886,8.5719,8.546,8.5875,8.6623,8.5982,8.609,8.6492,8.5099,8.4978,8.5517,8.5517,8.594,8.6632,8.7517,8.7786,8.7825,8.8017,8.8004,8.776,8.688,8.6693,8.689,8.7447,8.752,8.7378,8.7188,8.6898,8.6412,8.5531,8.5183,8.4858,8.4041,8.3865,8.3803,8.3828,8.33,8.2909,8.2896,8.2769,8.1273,7.7394,7.7047,7.6059,0.0,7.5487,7.8142,7.9999,8.4547,8.5971,0.0,0.0,8.6288,8.8656,8.6535,8.7847,9.3568,9.3667,9.4235,9.5487,9.6679,9.8123,9.9841,10.1894,10.2896,10.2896,10.4616,10.5418,10.5418,10.5485,10.5511,10.5524,10.528,10.5213,10.5002,10.5002,10.4996,10.4818,10.4818,10.479,10.4799,10.5097,10.6097,10.6597,10.529,10.5405,10.5597,10.5174,10.5097,10.4982,10.4597,10.4212,10.3597,10.2712,10.1789,10.1289,10.1289,10.0904,10.0789,10.1289,10.0904,10.0096,9.8865,9.8788,9.7327,9.4216,9.362,9.2005,8.9256,8.7434,8.649,8.6323,8.569,8.5568,8.5943,8.6008,8.6389,8.6942,8.6663,8.6945,8.7466,8.712,8.7328,8.7686,8.6855,8.6868,8.7286,8.7286,8.7594,8.8055,8.8517,8.8654,8.8619,8.8619,8.8549,8.842,8.8288,8.7925,8.7677,8.8077,8.8112,8.803,8.7759,8.7505,8.7155,8.6701,8.649,8.6241,8.5825,8.57,8.5675,8.5712,8.5334,8.5056,8.5105,8.3431,8.1259,7.8873,7.6934,7.5931,7.6429,7.8315,8.0696,8.3526,8.7444,8.8794,8.6387,8.7533,8.9614,9.2455,9.1936,9.3604,9.806,9.7718,9.7451,9.7374,9.835,9.9315,10.0277,10.2105,10.298,10.3206,10.4697,10.5498,10.5587,10.5396,10.5318,10.5277,10.5224,10.5013,10.4874,10.4874,10.4922,10.4799,10.4799,10.4799,10.4799,10.6597,10.7213,10.7482,10.6713,10.6405,10.602,10.5213,10.4982,10.4713,10.4212,10.3982,10.3597,10.2904,10.1904,10.1289,10.1289,10.1289,10.1289,10.1289,10.1289,10.0596,9.8865,9.8788,9.7539,9.4849,9.4578,9.3228,9.0784,8.9113,8.8188,8.7927,8.7779,8.7703,8.7663,8.7703,8.7817,8.7927,8.7921,8.8107,8.8345,8.825,8.8366,8.8649,8.8534,8.8567,8.8692,8.879,8.8829,8.8885,8.8983,8.8969,8.8859,8.8859,8.8824,8.8883,8.9476,8.913,8.8555,8.8474,8.8433,8.837,8.814,8.7931,8.7743,8.763,8.7482,8.7371,8.7258,8.7159,8.7109,8.7233,8.722,8.7131,8.68,8.3616,8.1193,8.1184,0.0,7.6383,8.1434,8.1391,8.2807,8.7492,8.9297,9.0586,9.1571,9.1168,9.291,9.7465,9.5755,9.6033,9.9073,9.8464,9.7984,9.7857,9.8604,9.9454,10.038,10.2004,10.2919,10.321,10.4607,10.5292,10.5396,10.5304,10.5094,10.4985,10.4996,10.4874,10.4799,10.4799,10.4799,10.4799,10.4799,10.4799,10.4799,10.7405,10.7598,10.7713,10.7521,10.629,10.529,10.5097,10.4482,10.4289,10.4789,10.4289,10.3789,10.3712,10.2289,10.1289,10.1289,10.1289,10.1289,10.1289,10.1289,10.0596,9.8865,9.8788,9.752,9.479,9.382,9.2776,9.1625,9.0648,8.9745,8.8875,8.8853,8.8825,8.8752,8.8825,8.8853,8.8836,8.8315,8.8492,8.9047,8.846,8.8672,8.9285,8.8634,8.8477,8.8626,8.9226,8.9532,8.974,9.0339,9.0532,9.0513,9.0513,9.0435,9.0395,9.049,9.037,9.0232,9.0211,9.0062,8.987,8.9809,8.9602,8.9259,8.8577,8.8401,8.8212,8.753,8.7354,8.7354,8.7378,8.7378,8.6611,8.4225,8.3308,8.1651,7.8031,0.0,8.1788,8.2048,8.5101,8.8098,9.0321,9.1382,9.2557,9.4111,9.5628,9.7072,9.8528,9.9073,9.9529,9.9987,9.9771,9.9604,9.9444,9.9691,10.0302,10.1099,10.2219,10.3096,10.3895,10.4783,10.5201,10.519,10.5094,10.5013,10.5023,10.4884,10.479,10.4799,10.4799,10.4799,10.4799,10.4799,10.4799,10.479,10.8098,10.8713,10.8906,10.8406,10.7713,10.6713,10.529,10.5213,10.5097,10.4482,10.4482,10.4405,10.3905,10.2789,10.1789,10.1289,10.1289,10.1289,10.1289,10.1289,10.0596,9.8865,9.8731,9.7653,9.5358,9.4309,9.3612,9.3191,9.1892,9.0988,9.0498,9.0498,9.0432,9.038,9.0911,9.1146,9.1108,9.0398,9.0326,9.0593,8.9794,8.974,9.0145,9.0281,9.0398,9.0551,9.1356,9.1663,9.1778,9.2123,9.2218,9.212,9.212,9.2059,9.1994,9.1994,9.1323,9.0708,9.1128,9.107,9.089,9.089,9.0704,9.0283,8.9449,8.9259,8.9146,8.8767,8.907,8.9373,8.9373,8.9752,8.9462,8.7736,8.5874,8.3775,8.1239,8.2669,8.3988,8.4063,8.7547,9.0434,9.1609,9.2898,9.3959,9.4717,9.7021,9.8504,9.869,9.9759,10.0506,10.0798,10.0682,10.0705,10.0587,10.1004,10.1422,10.1801,10.2804,10.3417,10.3916,10.4709,10.5013,10.5105,10.5006,10.4912,10.4912,10.479,10.4799,10.4799,10.4799,10.4799,10.4799,10.4799,10.4818,10.4902,10.8906,10.9713,11.0098,10.9598,10.8983,10.7982,10.5982,10.579,10.5405,10.4289,10.4597,10.4597,10.3982,10.3097,10.2212,10.1404,10.1289,10.1289,10.1289,10.1289,10.0596,9.8865,9.8288,9.7283,9.581,9.5053,9.4567,9.4419,9.306,9.2291,9.2073,9.2051,9.1963,9.185,9.2633,9.2923,9.2862,9.2346,9.2083,9.2045,9.1434,9.1208,9.1329,9.198,9.2291,9.2448,9.3098,9.3348,9.3348,9.3328,9.3266,9.3166,9.3166,9.3141,9.3115,9.3115,9.2198,9.1319,9.193,9.1947,9.1766,9.1766,9.1577,9.1192,9.0548,9.0396,9.0396,9.0396,9.0927,9.1382,9.1382,9.1875,9.1888,9.0625,0.0,8.5914,8.5461,8.5196,8.5636,8.7122,8.9729,9.1685,9.2519,9.3921,9.4945,9.5362,9.7782,9.9277,9.9179,10.0317,10.1116,10.1502,10.1605,10.1605,10.1513,10.2012,10.2411,10.2601,10.3283,10.3794,10.3981,10.4591,10.4922,10.4892,10.4818,10.4799,10.4799,10.4799,10.4799,10.4799,10.4799,10.479,10.4818,10.4818,10.4902,10.5078,10.9906,11.0175,11.0406,11.1214,10.9406,10.7713,10.7521,10.5597,10.4289,10.4905,10.4405,10.3982,10.3905,10.3097,10.2212,10.1404,10.1289,10.1289,10.1289,10.1289,10.0596,9.8865,9.7057,9.6013,9.581,9.5626,9.5206,9.4509,9.4305,9.3846,9.3187,9.3043,9.2935,9.2824,9.3011,9.3011,9.29,9.2995,9.3,9.3,9.2924,9.2924,9.2924,9.2962,9.3047,9.3131,9.3141,9.3162,9.3187,9.3141,9.3136,9.3115,9.3115,9.3115,9.3115,9.3115,9.3,9.2924,9.3,9.2824,9.2603,9.2603,9.2413,9.2178,9.214,9.2102,9.2102,9.2102,9.2178,9.2216,9.2216,9.2254,9.1458,8.8835,8.7575,8.716,8.7814,8.7311,8.8066,9.1408,9.2064,9.2557,9.3429,9.4262,9.5437,9.6991,9.896,10.0278,10.0923,10.1912,10.2395,10.2212,10.2284,10.2425,10.2212,10.2298,10.2715,10.3511,10.3586,10.4003,10.4714,10.4799,10.4799,10.479,10.4799,10.4799,10.4799,10.4799,10.4799,10.4799,10.4799,10.4884,10.4996,10.4996,10.5105,10.5201,11.0714,11.1021,11.0906,11.0714,10.9906,10.8713,10.7098,10.6097,10.5213,10.4482,10.4097,10.3712,10.3212,10.2789,10.2212,10.1404,10.1289,10.1289,10.1289,10.1289,10.0499,9.8689,9.7398,9.6393,9.5664,9.5621,9.5511,9.5313,9.4687,9.4288,9.405,9.3961,9.3813,9.3739,9.437,9.4577,9.4426,9.4042,9.3917,9.3879,9.3306,9.3115,9.3153,9.3688,9.3901,9.3961,9.4474,9.4665,9.467,9.4665,9.4643,9.4643,9.4643,9.4643,9.4643,9.4643,9.4643,9.4643,9.4643,9.4083,9.3516,9.3516,9.3287,9.2936,9.2405,9.2292,9.2292,9.2292,9.2709,9.3088,9.3088,9.3504,9.3327,9.1812,9.1711,9.1559,9.084,9.137,9.214,9.3012,9.4035,9.4793,9.5134,9.6385,9.7408,9.8053,9.9831,10.0921,10.1085,10.2484,10.3205,10.3094,10.3605,10.368,10.3094,10.3586,10.4003,10.4307,10.4307,10.4496,10.4799,10.4799,10.4799,10.4799,10.4799,10.4799,10.4799,10.4799,10.4799,10.4828,10.4912,10.5006,10.4985,10.5094,10.5201,10.5408,11.1291,11.1522,11.1214,11.0406,10.979,10.8713,10.6713,10.5713,10.4905,10.3982,10.3905,10.3597,10.2712,10.2789,10.252,10.1404,10.1289,10.1289,10.1289,10.1289,10.0518,9.8608,9.7685,9.6737,9.5703,9.5664,9.5708,9.5835,9.5172,9.4866,9.4954,9.4823,9.4669,9.4571,9.5264,9.5509,9.5333,9.4959,9.4796,9.472,9.4146,9.3879,9.3955,9.4567,9.4758,9.4796,9.5407,9.5598,9.5598,9.5598,9.5598,9.5598,9.5598,9.5598,9.5598,9.5598,9.5598,9.5598,9.5598,9.4998,9.4392,9.4392,9.416,9.3808,9.3201,9.3088,9.3163,9.3429,9.3732,9.4035,9.4338,9.4604,9.4604,9.4073,9.4414,9.4376,9.3239,9.4073,9.4679,9.4414,9.54,9.6196,9.6461,9.7749,9.8697,9.8962,10.0689,10.192,10.2305,10.3387,10.4003,10.4003,10.4496,10.4496,10.4003,10.4496,10.4799,10.4799,10.4799,10.4799,10.4799,10.4799,10.4799,10.4799,10.4799,10.4799,10.4799,10.4818,10.4922,10.4884,10.4985,10.5094,10.5224,10.5304,10.5396,10.5574,11.1522,11.1522,11.1214,11.0291,10.879,10.7405,10.6521,10.4212,10.2904,10.3789,10.3905,10.3597,10.2712,10.3405,10.3212,10.152,10.1289,10.1289,10.1289,10.1289,10.0499,9.8671,9.7726,9.6758,9.581,9.581,9.5835,9.59,9.5835,9.5835,9.59,9.567,9.5463,9.5229,9.5486,9.5463,9.5253,9.5486,9.5598,9.5598,9.5598,9.5598,9.5598,9.5598,9.5598,9.5598,9.5598,9.5598,9.5598,9.5598,9.5598,9.5598,9.5598,9.5598,9.5598,9.5598,9.5598,9.5598,9.5598,9.5417,9.5191,9.5191,9.4996,9.4793,9.4793,9.4793,9.5058,9.593,9.54,9.5096,9.5968,9.54,9.4831,9.4831,9.4793,9.4793,9.4793,9.4793,9.5134,9.6006,9.612,9.6423,9.7257,9.8091,9.8962,9.9758,10.1487,10.32,10.4909,10.4884,10.4799,10.4799,10.4799,10.4799,10.4799,10.4799,10.4799,10.4799,10.4799,10.4799,10.4799,10.4799,10.4799,10.4799,10.4799,10.4799,10.4828,10.4892,10.4985,10.5013,10.511,10.528,10.5485,10.5485,10.56,10.5724,11.1406,11.1021,11.0291,10.9406,10.8406,10.7405,10.6521,10.4789,10.3597,10.3905,10.2789,10.202,10.1712,10.1904,10.1904,10.1289,10.1289,10.1289,10.1289,10.0789,10.0192,9.9673,9.8649,9.7661,9.6652,9.5992,9.5708,9.5814,9.5708,9.5708,9.5814,9.5576,9.5676,9.6105,9.6271,9.6271,9.6105,9.6402,9.6172,9.5598,9.5598,9.5598,9.5598,9.5598,9.5598,9.5598,9.5598,9.5598,9.5598,9.5598,9.5598,9.5598,9.5598,9.5598,9.5598,9.5598,9.5598,9.5598,9.5598,9.5486,9.5324,9.5215,9.4996,9.4971,9.568,9.5857,9.6085,9.692,9.6882,9.6742,9.6916,9.6726,9.6537,9.6537,9.6082,9.5703,9.5703,9.5703,9.5816,9.6082,9.7143,9.7939,9.8204,9.9531,10.0516,10.0706,10.2315,10.368,10.4808,10.479,10.4799,10.4799,10.4799,10.4799,10.4799,10.4799,10.4799,10.4799,10.4799,10.4799,10.4799,10.4799,10.4799,10.4799,10.4799,10.4894,10.4892,10.4996,10.5078,10.5186,10.528,10.5396,10.5485,10.5587,10.5674,10.5724,11.1406,11.1098,11.0214,10.8713,10.7982,10.7213,10.5597,10.4289,10.3405,10.3405,10.252,10.1712,10.1289,10.1597,10.1712,10.1289,10.1289,10.1289,10.1289,10.0789,10.0596,10.0596,9.9552,9.8563,9.7619,9.6992,9.6549,9.627,9.6205,9.6052,9.581,9.5875,9.611,9.6523,9.6972,9.7101,9.6942,9.6898,9.6592,9.6095,9.6095,9.5904,9.5637,9.5981,9.5904,9.5598,9.5598,9.5598,9.5598,9.5598,9.5598,9.5598,9.5598,9.5598,9.5598,9.5598,9.5598,9.5598,9.5598,9.5738,9.589,9.582,9.5651,9.5692,9.6628,9.6843,9.7085,9.7921,9.7782,9.7591,9.7855,9.7549,9.7295,9.7295,9.6916,9.6575,9.6575,9.6575,9.6726,9.7067,9.7977,9.8735,9.9038,10.0289,10.1388,10.1995,10.3283,10.4307,10.4799,10.4799,10.4799,10.4799,10.4799,10.4799,10.4799,10.4799,10.4799,10.4799,10.4799,10.4799,10.4799,10.4799,10.479,10.4884,10.4884,10.5006,10.5105,10.5197,10.5201,10.5306,10.5511,10.56,10.56,10.5699,10.5724,10.5724,11.1406,11.1291,11.0521,10.8213,10.7713,10.679,10.4482,10.3289,10.2712,10.2712,10.2597,10.2212,10.1404,10.202,10.2212,10.1404,10.1212,10.1212,10.1289,10.1212,10.1212,10.1289,10.032,9.9466,9.8738,9.8418,9.7894,9.709,9.7052,9.6669,9.6019,9.6463,9.672,9.6752,9.762,9.7939,9.7779,9.7318,9.7089,9.699,9.699,9.6493,9.5882,9.6684,9.6515,9.5828,9.5828,9.5789,9.5713,9.5637,9.5598,9.5598,9.5598,9.5598,9.5598,9.5598,9.5598,9.5598,9.5713,9.6219,9.6737,9.689,9.6834,9.6928,9.7652,9.7842,9.807,9.8946,9.839,9.7984,9.8756,9.8158,9.7522,9.7522,9.7484,9.7446,9.7446,9.7446,9.7712,9.8508,9.8735,9.9114,9.9872,10.0782,10.1995,10.3586,10.4382,10.4799,10.4799,10.4799,10.4799,10.4799,10.4799,10.4799,10.4799,10.4799,10.4799,10.4799,10.4799,10.4799,10.4799,10.479,10.4912,10.4985,10.5013,10.5094,10.519,10.5396,10.5485,10.5511,10.5713,10.5724,10.5724,10.5724,10.5724,10.5724,11.1021,10.9906,10.8521,10.8598,10.7598,10.6521,10.5905,10.4597,10.3597,10.3597,10.2404,10.152,10.1289,10.152,10.152,10.1289,10.0712,10.0596,10.1289,10.0712,10.0596,10.1289,10.0896,10.0578,10.0502,9.8965,9.8028,9.7837,9.7248,9.7172,9.757,9.6975,9.7329,9.8464,9.8802,9.8854,9.8693,9.8806,9.8418,9.7676,9.7676,9.7562,9.7409,9.76,9.7608,9.7585,9.7585,9.7165,9.6515,9.5828,9.5598,9.5598,9.5598,9.5598,9.5598,9.5598,9.5598,9.5751,9.6439,9.6722,9.7158,9.8518,9.88,9.8792,9.8864,9.8878,9.9107,9.9945,9.9921,9.977,9.9758,9.9566,9.9399,9.9293,9.8735,9.8318,9.8318,9.8318,9.8394,9.8583,9.9758,10.0592,10.0782,10.2184,10.3473,10.4496,10.4686,10.4799,10.4799,10.4799,10.4799,10.4799,10.4799,10.4799,10.4799,10.4799,10.4799,10.4799,10.4799,10.4799,10.4799,10.4874,10.4996,10.4985,10.5094,10.5304,10.5396,10.5498,10.5574,10.5713,10.5699,10.5724,10.5724,10.5724,10.5724,10.5609,10.979,10.8906,10.7713,10.7713,10.7598,10.7213,10.5982,10.5405,10.4789,10.3982,10.2712,10.1789,10.1289,10.1289,10.1289,10.1289,10.0904,10.0904,10.1289,10.0903,10.0807,10.121,10.1004,10.0875,10.0875,9.9855,9.9114,9.8732,9.8311,9.812,9.8097,9.7943,9.8282,9.9035,9.954,9.9643,9.9492,9.9346,9.895,9.841,9.841,9.8182,9.7839,9.833,9.8325,9.799,9.8097,9.7853,9.7333,9.641,9.612,9.6043,9.5623,9.5509,9.5608,9.6073,9.621,9.6401,9.7241,9.7776,9.8311,9.919,9.9687,9.9931,9.9861,9.9813,9.9879,10.0299,10.0315,10.0228,9.9998,9.9957,9.9877,9.9796,9.9455,9.919,9.919,9.919,9.919,9.919,10.0289,10.1388,10.2184,10.3094,10.389,10.4686,10.4799,10.4799,10.4799,10.4799,10.4799,10.4799,10.4799,10.4799,10.4799,10.4799,10.479,10.4912,10.4912,10.4912,10.4912,10.4975,10.5083,10.5201,10.5292,10.5422,10.5625,10.5625,10.5611,10.5724,10.5724,10.5724,10.5724,10.5724,10.5418,10.4998,10.8482,10.779,10.6982,10.6713,10.7521,10.7598,10.5597,10.579,10.5713,10.4289,10.3405,10.252,10.1789,10.1692,10.1711,10.1711,10.1596,10.1499,10.1499,10.1303,10.1185,10.1185,10.0897,10.0787,10.0787,10.0711,10.0298,9.961,9.9458,9.9114,9.8518,9.8821,9.9044,9.9226,9.9883,10.0075,9.9986,9.9591,9.9349,9.9226,9.9201,9.8719,9.8173,9.9044,9.894,9.834,9.8495,9.8464,9.8174,9.7242,9.6928,9.679,9.6066,9.5837,9.6013,9.683,9.7066,9.728,9.812,9.8846,9.9419,9.9572,10.0084,10.0619,10.0619,10.0486,10.0389,10.0427,10.0215,9.9998,10.001,9.9904,9.9823,9.9796,9.9796,9.9796,9.9796,9.9948,9.9986,9.9986,10.0895,10.2108,10.37,10.3776,10.4079,10.4686,10.4799,10.4799,10.4799,10.4799,10.4799,10.4799,10.4799,10.4828,10.479,10.479,10.4874,10.4975,10.5078,10.5078,10.4975,10.5213,10.5306,10.5485,10.5511,10.5625,10.5724,10.5724,10.5724,10.5724,10.5724,10.5724,10.5724,10.5495,10.4998,10.4386,10.7405,10.5982,10.5097,10.7213,10.6482,10.579,10.6213,10.5713,10.5213,10.4982,10.4212,10.3712,10.3597,10.3401,10.3378,10.3378,10.2603,10.2117,10.2117,10.1426,10.0983,10.0983,10.0891,10.0787,10.0787,10.0711,10.0489,10.0413,9.9725,9.9687,10.0222,9.8768,9.8777,9.9987,9.9564,9.9654,10.0215,10.0188,10.0188,10.0025,9.9898,9.977,9.972,9.9962,10.0087,10.007,10.0213,9.9801,9.9075,9.8212,9.7837,9.7706,9.7591,9.7553,9.7591,9.7729,9.7837,9.812,9.8999,9.9305,9.9572,10.0298,10.0395,10.0399,10.0399,10.0413,10.0427,10.0304,10.0177,10.0126,9.9998,9.9983,9.993,9.9823,9.9796,9.9796,9.9796,10.0403,10.0895,10.0895,10.2298,10.3586,10.4496,10.461,10.4686,10.4799,10.4799,10.4799,10.4799,10.4799,10.4799,10.4799,10.4799,10.4922,10.4996,10.4996,10.5002,10.5213,10.528,10.528,10.5213,10.5382,10.5498,10.5485,10.5611,10.5699,10.5724,10.5724,10.5724,10.5724,10.5724,10.5724,10.5609,10.4883,10.4501,10.4195,10.5405,10.4982,10.5097,10.6713,10.7482,10.779,10.7213,10.7213,10.6713,10.529,10.4789,10.4405,10.3905,10.3702,10.3613,10.3509,10.3014,10.2502,10.2027,10.1614,10.1185,10.0711,10.0495,10.0486,10.0486,10.0375,10.0399,10.0486,10.0175,10.0298,10.0604,9.9699,9.9616,10.0177,9.991,9.9898,10.0113,10.0203,10.0126,10.0088,9.9998,10.001,9.9998,10.0202,10.0326,10.0375,10.0595,10.0413,9.9954,9.9021,9.8621,9.8448,9.7929,9.7777,9.7915,9.8445,9.8715,9.8999,9.984,10.0107,10.0084,10.0395,10.0399,10.0403,10.0177,10.019,10.0203,10.0113,9.9998,9.9957,9.9904,9.9904,9.9877,9.9796,9.9796,9.9986,10.0516,10.0895,10.1388,10.2411,10.3094,10.389,10.4686,10.4799,10.4799,10.4799,10.4799,10.4799,10.4799,10.4799,10.4799,10.4799,10.4884,10.4892,10.4985,10.5105,10.5213,10.5382,10.5498,10.5498,10.5408,10.5498,10.5587,10.5587,10.5699,10.5724,10.5724,10.5724,10.5724,10.5724,10.5724,10.5418,10.4921,10.4501,10.3813,10.2896]}]]